Seleccionar fecha


Semana del 02-11-2018 al 09-11-2018

Fecha Temperaturas Humedad relativa Presión atmosférica Precipitaciones Dirección viento Velocidad del viento Velocidad de racha Iluminancia
Fri 02, 12:00 AM9,9 ºC100,0 %966 hPa0,00 l/m2 45º NE 0,0 km/h0,0 km/h2.4 Lux
Fri 02, 12:05 AM9,9 ºC100,0 %965 hPa0,00 l/m2 45º NE 0,0 km/h0,0 km/h2.2 Lux
Fri 02, 12:10 AM9,7 ºC100,0 %965 hPa0,00 l/m2 112.5º ESE 0,0 km/h0,3 km/h2.4 Lux
Fri 02, 12:15 AM9,8 ºC100,0 %965 hPa0,00 l/m2 67,5º ENE 0,0 km/h0,0 km/h2.3 Lux
Fri 02, 12:20 AM9,7 ºC100,0 %965 hPa0,00 l/m2 0º N 0,0 km/h0,0 km/h2.2 Lux
Fri 02, 12:25 AM9,6 ºC100,0 %966 hPa0,00 l/m2 45º NE 0,1 km/h0,6 km/h2.4 Lux
Fri 02, 12:30 AM9,6 ºC100,0 %965 hPa0,00 l/m2 45º NE 0,1 km/h0,6 km/h2.3 Lux
Fri 02, 12:35 AM9,7 ºC100,0 %965 hPa0,00 l/m2 45º NE 0,0 km/h0,0 km/h2.2 Lux
Fri 02, 12:40 AM9,7 ºC100,0 %966 hPa0,00 l/m2 45º NE 0,0 km/h0,0 km/h2.3 Lux
Fri 02, 12:45 AM9,6 ºC100,0 %965 hPa0,00 l/m2 0º N 0,0 km/h0,0 km/h2.2 Lux
Fri 02, 12:50 AM9,8 ºC100,0 %965 hPa0,00 l/m2 225º SO 0,0 km/h0,3 km/h2.3 Lux
Fri 02, 12:55 AM9,9 ºC100,0 %965 hPa0,00 l/m2 157,5º SSE 0,0 km/h0,0 km/h2.3 Lux
Fri 02, 01:00 AM10,0 ºC100,0 %965 hPa0,00 l/m2 67,5º ENE 0,0 km/h0,0 km/h2.3 Lux
Fri 02, 01:05 AM10,2 ºC100,0 %965 hPa0,00 l/m2 67,5º ENE 0,0 km/h0,0 km/h2.3 Lux
Fri 02, 01:10 AM10,2 ºC100,0 %966 hPa0,00 l/m2 157,5º SSE 0,0 km/h0,0 km/h2.3 Lux
Fri 02, 01:15 AM10,4 ºC100,0 %966 hPa0,00 l/m2 157,5º SSE 0,0 km/h0,0 km/h2.1 Lux
Fri 02, 01:20 AM10,3 ºC100,0 %966 hPa0,00 l/m2 67,5º ENE 0,0 km/h0,3 km/h2.3 Lux
Fri 02, 01:25 AM10,1 ºC100,0 %966 hPa0,00 l/m2 202,5º SSO 0,0 km/h0,0 km/h2.3 Lux
Fri 02, 01:30 AM10,1 ºC100,0 %966 hPa0,00 l/m2 157,5º SSE 0,0 km/h0,0 km/h2.2 Lux
Fri 02, 01:35 AM10,0 ºC100,0 %966 hPa0,00 l/m2 157,5º SSE 0,0 km/h0,0 km/h2.2 Lux
Fri 02, 01:40 AM10,0 ºC100,0 %966 hPa0,00 l/m2 157,5º SSE 0,0 km/h0,0 km/h2.3 Lux
Fri 02, 01:45 AM10,0 ºC100,0 %966 hPa0,00 l/m2 0º N 0,0 km/h0,0 km/h2.2 Lux
Fri 02, 01:50 AM10,1 ºC100,0 %966 hPa0,00 l/m2 45º NE 0,0 km/h0,0 km/h2.2 Lux
Fri 02, 01:55 AM10,1 ºC100,0 %966 hPa0,00 l/m2 45º NE 0,0 km/h0,0 km/h2.2 Lux
Fri 02, 02:00 AM9,9 ºC100,0 %966 hPa0,00 l/m2 67,5º ENE 0,0 km/h0,0 km/h2.3 Lux
Fri 02, 02:05 AM9,7 ºC100,0 %966 hPa0,00 l/m2 202,5º SSO 0,0 km/h0,0 km/h2.3 Lux
Fri 02, 02:10 AM9,3 ºC100,0 %966 hPa0,00 l/m2 0º N 0,0 km/h0,0 km/h2.1 Lux
Fri 02, 02:15 AM9,1 ºC100,0 %966 hPa0,00 l/m2 202,5º SSO 0,0 km/h0,3 km/h2.2 Lux
Fri 02, 02:20 AM9,1 ºC100,0 %965 hPa0,00 l/m2 45º NE 0,0 km/h0,0 km/h2.3 Lux
Fri 02, 02:25 AM9,1 ºC100,0 %965 hPa0,00 l/m2 157,5º SSE 0,0 km/h0,0 km/h2.3 Lux
Fri 02, 02:30 AM9,4 ºC100,0 %965 hPa0,00 l/m2 45º NE 0,0 km/h0,0 km/h2.3 Lux
Fri 02, 02:35 AM9,4 ºC100,0 %965 hPa0,00 l/m2 225º SO 0,0 km/h0,0 km/h2.1 Lux
Fri 02, 02:40 AM9,1 ºC100,0 %965 hPa0,00 l/m2 45º NE 0,0 km/h0,0 km/h2.2 Lux
Fri 02, 02:45 AM9,0 ºC100,0 %965 hPa0,00 l/m2 45º NE 0,0 km/h0,3 km/h2.2 Lux
Fri 02, 02:50 AM9,0 ºC100,0 %965 hPa0,00 l/m2 67,5º ENE 0,0 km/h0,0 km/h2.2 Lux
Fri 02, 02:55 AM9,3 ºC100,0 %965 hPa0,00 l/m2 67,5º ENE 0,0 km/h0,0 km/h2.3 Lux
Fri 02, 03:00 AM9,3 ºC100,0 %965 hPa0,00 l/m2 45º NE 0,0 km/h0,0 km/h2.2 Lux
Fri 02, 03:05 AM9,1 ºC100,0 %965 hPa0,00 l/m2 0º N 0,0 km/h0,0 km/h2.2 Lux
Fri 02, 03:10 AM9,0 ºC100,0 %965 hPa0,00 l/m2 67,5º ENE 0,0 km/h0,0 km/h2.2 Lux
Fri 02, 03:15 AM9,0 ºC100,0 %965 hPa0,00 l/m2 45º NE 0,0 km/h0,0 km/h2.2 Lux
Fri 02, 03:20 AM9,0 ºC100,0 %965 hPa0,00 l/m2 45º NE 0,0 km/h0,3 km/h2.3 Lux
Fri 02, 03:25 AM8,9 ºC100,0 %965 hPa0,00 l/m2 45º NE 0,0 km/h0,0 km/h2.4 Lux
Fri 02, 03:30 AM9,2 ºC100,0 %965 hPa0,00 l/m2 67,5º ENE 0,0 km/h0,0 km/h2.2 Lux
Fri 02, 03:35 AM9,4 ºC100,0 %965 hPa0,00 l/m2 0º N 0,0 km/h0,0 km/h2.3 Lux
Fri 02, 03:40 AM9,4 ºC100,0 %965 hPa0,00 l/m2 45º NE 0,0 km/h0,3 km/h2.1 Lux
Fri 02, 03:45 AM9,4 ºC100,0 %965 hPa0,00 l/m2 45º NE 0,0 km/h0,3 km/h2.2 Lux
Fri 02, 03:50 AM9,4 ºC100,0 %965 hPa0,00 l/m2 0º N 0,0 km/h0,3 km/h2.4 Lux
Fri 02, 03:55 AM8,9 ºC100,0 %965 hPa0,00 l/m2 45º NE 0,0 km/h0,3 km/h2.3 Lux
Fri 02, 04:00 AM9,0 ºC100,0 %965 hPa0,00 l/m2 67,5º ENE 0,0 km/h0,3 km/h2.2 Lux
Fri 02, 04:05 AM8,9 ºC100,0 %965 hPa0,00 l/m2 0º N 0,0 km/h0,3 km/h2.2 Lux
Fri 02, 04:10 AM8,7 ºC100,0 %965 hPa0,00 l/m2 0º N 0,0 km/h0,0 km/h2.3 Lux
Fri 02, 04:15 AM8,6 ºC100,0 %965 hPa0,00 l/m2 0º N 0,0 km/h0,0 km/h2.3 Lux
Fri 02, 04:20 AM8,4 ºC100,0 %965 hPa0,00 l/m2 0º N 0,0 km/h0,0 km/h2.3 Lux
Fri 02, 04:25 AM8,4 ºC100,0 %965 hPa0,00 l/m2 45º NE 0,0 km/h0,0 km/h2.2 Lux
Fri 02, 04:30 AM8,5 ºC100,0 %965 hPa0,00 l/m2 45º NE 0,0 km/h0,0 km/h2.4 Lux
Fri 02, 04:35 AM8,5 ºC100,0 %965 hPa0,00 l/m2 45º NE 0,0 km/h0,0 km/h2.3 Lux
Fri 02, 04:40 AM8,8 ºC100,0 %965 hPa0,00 l/m2 0º N 0,0 km/h0,0 km/h2.4 Lux
Fri 02, 04:45 AM8,5 ºC100,0 %965 hPa0,00 l/m2 0º N 0,0 km/h0,0 km/h2.1 Lux
Fri 02, 04:50 AM8,5 ºC100,0 %965 hPa0,00 l/m2 0º N 0,0 km/h0,0 km/h2.2 Lux
Fri 02, 04:55 AM8,3 ºC100,0 %965 hPa0,00 l/m2 0º N 0,0 km/h0,0 km/h2.2 Lux
Fri 02, 05:00 AM8,4 ºC100,0 %965 hPa0,00 l/m2 0º N 0,0 km/h0,0 km/h2.2 Lux
Fri 02, 05:05 AM8,4 ºC100,0 %965 hPa0,00 l/m2 0º N 0,0 km/h0,0 km/h2.4 Lux
Fri 02, 05:10 AM8,2 ºC100,0 %965 hPa0,00 l/m2 67,5º ENE 0,0 km/h0,0 km/h2.3 Lux
Fri 02, 05:15 AM8,3 ºC100,0 %965 hPa0,00 l/m2 0º N 0,0 km/h0,0 km/h2.2 Lux
Fri 02, 05:20 AM8,4 ºC100,0 %965 hPa0,00 l/m2 67,5º ENE 0,0 km/h0,0 km/h2.4 Lux
Fri 02, 05:25 AM8,5 ºC100,0 %965 hPa0,00 l/m2 315º NO 0,0 km/h0,0 km/h2.3 Lux
Fri 02, 05:30 AM8,5 ºC100,0 %965 hPa0,00 l/m2 202,5º SSO 0,0 km/h0,3 km/h2.2 Lux
Fri 02, 05:35 AM8,9 ºC100,0 %965 hPa0,00 l/m2 225º SO 0,0 km/h0,3 km/h2.1 Lux
Fri 02, 05:40 AM8,9 ºC100,0 %965 hPa0,00 l/m2 67,5º ENE 0,0 km/h0,0 km/h2.1 Lux
Fri 02, 05:45 AM8,7 ºC100,0 %965 hPa0,00 l/m2 202,5º SSO 0,0 km/h0,0 km/h2.2 Lux
Fri 02, 05:50 AM8,7 ºC100,0 %965 hPa0,00 l/m2 202,5º SSO 0,0 km/h0,0 km/h2.2 Lux
Fri 02, 05:55 AM8,8 ºC100,0 %965 hPa0,00 l/m2 0º N 0,0 km/h0,0 km/h2.4 Lux
Fri 02, 06:00 AM8,9 ºC100,0 %965 hPa0,00 l/m2 67,5º ENE 0,0 km/h0,0 km/h2.1 Lux
Fri 02, 06:05 AM8,9 ºC100,0 %965 hPa0,00 l/m2 0º N 0,0 km/h0,0 km/h2.2 Lux
Fri 02, 06:10 AM8,8 ºC100,0 %965 hPa0,00 l/m2 67,5º ENE 0,0 km/h0,0 km/h2.4 Lux
Fri 02, 06:15 AM8,8 ºC100,0 %965 hPa0,00 l/m2 202,5º SSO 0,0 km/h0,0 km/h2.3 Lux
Fri 02, 06:20 AM9,0 ºC100,0 %965 hPa0,00 l/m2 202,5º SSO 0,0 km/h0,3 km/h2.3 Lux
Fri 02, 06:25 AM9,0 ºC100,0 %965 hPa0,00 l/m2 157,5º SSE 0,0 km/h0,3 km/h2.4 Lux
Fri 02, 06:30 AM9,1 ºC100,0 %965 hPa0,00 l/m2 225º SO 0,0 km/h0,3 km/h2.3 Lux
Fri 02, 06:35 AM9,3 ºC100,0 %965 hPa0,00 l/m2 0º N 0,0 km/h0,0 km/h2.1 Lux
Fri 02, 06:40 AM9,3 ºC100,0 %965 hPa0,00 l/m2 67,5º ENE 0,0 km/h0,0 km/h2.3 Lux
Fri 02, 06:45 AM9,3 ºC100,0 %965 hPa0,00 l/m2 67,5º ENE 0,0 km/h0,0 km/h2.1 Lux
Fri 02, 06:50 AM9,1 ºC100,0 %965 hPa0,00 l/m2 337,5º NNO 0,0 km/h0,0 km/h2.1 Lux
Fri 02, 06:55 AM9,0 ºC100,0 %966 hPa0,00 l/m2 0º N 0,0 km/h0,0 km/h2.3 Lux
Fri 02, 07:00 AM8,5 ºC100,0 %966 hPa0,00 l/m2 0º N 0,0 km/h0,0 km/h2.2 Lux
Fri 02, 07:05 AM8,3 ºC100,0 %966 hPa0,00 l/m2 0º N 0,0 km/h0,0 km/h2.1 Lux
Fri 02, 07:10 AM8,1 ºC100,0 %966 hPa0,00 l/m2 0º N 0,0 km/h0,0 km/h2.3 Lux
Fri 02, 07:15 AM8,0 ºC100,0 %966 hPa0,00 l/m2 157,5º SSE 0,0 km/h0,0 km/h2.3 Lux
Fri 02, 07:20 AM8,1 ºC100,0 %966 hPa0,00 l/m2 225º SO 0,0 km/h0,0 km/h2.3 Lux
Fri 02, 07:25 AM8,4 ºC100,0 %966 hPa0,00 l/m2 157,5º SSE 0,0 km/h0,0 km/h2.7 Lux
Fri 02, 07:30 AM8,7 ºC100,0 %966 hPa0,00 l/m2 0º N 0,0 km/h0,0 km/h4 Lux
Fri 02, 07:35 AM8,9 ºC100,0 %966 hPa0,00 l/m2 225º SO 0,0 km/h0,0 km/h6 Lux
Fri 02, 07:40 AM9,0 ºC100,0 %966 hPa0,00 l/m2 157,5º SSE 0,0 km/h0,0 km/h8 Lux
Fri 02, 07:45 AM9,1 ºC100,0 %966 hPa0,00 l/m2 202,5º SSO 0,0 km/h0,0 km/h10.6 Lux
Fri 02, 07:50 AM9,2 ºC100,0 %966 hPa0,00 l/m2 157,5º SSE 0,0 km/h0,0 km/h18.8 Lux
Fri 02, 07:55 AM9,3 ºC100,0 %966 hPa0,00 l/m2 157,5º SSE 0,0 km/h0,0 km/h31.8 Lux
Fri 02, 08:00 AM9,2 ºC100,0 %966 hPa0,00 l/m2 157,5º SSE 0,0 km/h0,0 km/h36.4 Lux
Fri 02, 08:05 AM9,1 ºC100,0 %966 hPa0,00 l/m2 157,5º SSE 0,0 km/h0,3 km/h46.5 Lux
Fri 02, 08:10 AM9,3 ºC100,0 %966 hPa0,00 l/m2 0º N 0,0 km/h0,0 km/h63.2 Lux
Fri 02, 08:15 AM9,2 ºC100,0 %966 hPa0,00 l/m2 0º N 0,0 km/h0,0 km/h68.5 Lux
Fri 02, 08:20 AM9,2 ºC100,0 %966 hPa0,00 l/m2 0º N 0,0 km/h0,0 km/h82.2 Lux
Fri 02, 08:25 AM9,4 ºC100,0 %966 hPa0,00 l/m2 0º N 0,0 km/h0,0 km/h89.1 Lux
Fri 02, 08:30 AM9,4 ºC100,0 %966 hPa0,00 l/m2 45º NE 0,0 km/h0,0 km/h118.3 Lux
Fri 02, 08:35 AM9,5 ºC100,0 %966 hPa0,00 l/m2 45º NE 0,0 km/h0,0 km/h126.4 Lux
Fri 02, 08:40 AM9,6 ºC100,0 %966 hPa0,00 l/m2 0º N 0,0 km/h0,0 km/h156.5 Lux
Fri 02, 08:45 AM9,8 ºC100,0 %966 hPa0,00 l/m2 45º NE 0,0 km/h0,0 km/h163.7 Lux
Fri 02, 08:50 AM9,9 ºC100,0 %966 hPa0,00 l/m2 0º N 0,0 km/h0,0 km/h198 Lux
Fri 02, 08:55 AM10,2 ºC100,0 %966 hPa0,00 l/m2 0º N 0,0 km/h0,0 km/h179.7 Lux
Fri 02, 09:00 AM10,6 ºC100,0 %966 hPa0,00 l/m2 45º NE 0,0 km/h0,0 km/h154.2 Lux
Fri 02, 09:05 AM10,8 ºC100,0 %966 hPa0,00 l/m2 0º N 0,0 km/h0,0 km/h208.2 Lux
Fri 02, 09:10 AM10,8 ºC100,0 %966 hPa0,00 l/m2 0º N 0,0 km/h0,0 km/h252.9 Lux
Fri 02, 09:15 AM10,5 ºC100,0 %966 hPa0,00 l/m2 0º N 0,0 km/h0,0 km/h252.9 Lux
Fri 02, 09:20 AM10,6 ºC100,0 %967 hPa0,00 l/m2 0º N 0,0 km/h0,0 km/h188.5 Lux
Fri 02, 09:25 AM10,8 ºC100,0 %967 hPa0,00 l/m2 0º N 0,1 km/h2,6 km/h158.8 Lux
Fri 02, 09:30 AM10,8 ºC100,0 %967 hPa0,00 l/m2 0º N 0,0 km/h0,0 km/h166.2 Lux
Fri 02, 09:35 AM10,7 ºC100,0 %967 hPa0,00 l/m2 337,5º NNO 0,0 km/h0,0 km/h313 Lux
Fri 02, 09:40 AM10,8 ºC100,0 %967 hPa0,00 l/m2 0º N 0,0 km/h0,0 km/h277.9 Lux
Fri 02, 09:45 AM11,1 ºC100,0 %967 hPa0,00 l/m2 337,5º NNO 0,0 km/h0,3 km/h239.4 Lux
Fri 02, 09:50 AM11,0 ºC100,0 %967 hPa0,00 l/m2 337,5º NNO 0,0 km/h0,0 km/h219.2 Lux
Fri 02, 09:55 AM10,8 ºC100,0 %967 hPa0,00 l/m2 0º N 0,0 km/h0,0 km/h215.4 Lux
Fri 02, 10:00 AM10,8 ºC100,0 %967 hPa0,00 l/m2 0º N 0,0 km/h0,0 km/h414.6 Lux
Fri 02, 10:05 AM11,2 ºC100,0 %967 hPa0,00 l/m2 0º N 0,0 km/h0,0 km/h396.1 Lux
Fri 02, 10:10 AM11,7 ºC100,0 %967 hPa0,00 l/m2 0º N 0,0 km/h0,0 km/h434.3 Lux
Fri 02, 10:15 AM11,8 ºC100,0 %967 hPa0,00 l/m2 0º N 0,0 km/h0,0 km/h478.2 Lux
Fri 02, 10:20 AM11,9 ºC100,0 %967 hPa0,00 l/m2 0º N 0,0 km/h0,0 km/h466.6 Lux
Fri 02, 10:25 AM11,8 ºC100,0 %967 hPa0,00 l/m2 0º N 0,0 km/h0,0 km/h674.9 Lux
Fri 02, 10:30 AM12,4 ºC100,0 %967 hPa0,00 l/m2 337,5º NNO 0,4 km/h2,3 km/h620.3 Lux
Fri 02, 10:35 AM12,1 ºC100,0 %967 hPa0,00 l/m2 0º N 0,0 km/h0,0 km/h340 Lux
Fri 02, 10:40 AM12,2 ºC100,0 %967 hPa0,00 l/m2 0º N 0,0 km/h0,0 km/h466.6 Lux
Fri 02, 10:45 AM12,4 ºC100,0 %967 hPa0,00 l/m2 337,5º NNO 0,0 km/h0,0 km/h542.6 Lux
Fri 02, 10:50 AM12,8 ºC100,0 %967 hPa0,00 l/m2 0º N 0,0 km/h0,0 km/h387.3 Lux
Fri 02, 10:55 AM12,3 ºC100,0 %967 hPa0,00 l/m2 45º NE 0,0 km/h0,0 km/h362.5 Lux
Fri 02, 11:00 AM11,9 ºC100,0 %967 hPa0,00 l/m2 337,5º NNO 0,0 km/h0,0 km/h637.8 Lux
Fri 02, 11:05 AM12,0 ºC100,0 %967 hPa0,00 l/m2 45º NE 0,0 km/h0,0 km/h466.6 Lux
Fri 02, 11:10 AM12,3 ºC100,0 %967 hPa0,00 l/m2 0º N 0,0 km/h0,0 km/h347.3 Lux
Fri 02, 11:15 AM12,4 ºC100,0 %967 hPa0,00 l/m2 135º SE 0,0 km/h0,0 km/h313 Lux
Fri 02, 11:20 AM12,1 ºC100,0 %967 hPa0,00 l/m2 337,5º NNO 0,0 km/h0,3 km/h434.3 Lux
Fri 02, 11:25 AM12,2 ºC100,0 %967 hPa0,00 l/m2 0º N 0,2 km/h2,3 km/h571.9 Lux
Fri 02, 11:30 AM12,2 ºC100,0 %967 hPa0,00 l/m2 0º N 2,3 km/h12,4 km/h490.1 Lux
Fri 02, 11:35 AM12,1 ºC100,0 %967 hPa0,00 l/m2 67,5º ENE 1,3 km/h9,8 km/h455.5 Lux
Fri 02, 11:40 AM12,1 ºC100,0 %967 hPa0,00 l/m2 67,5º ENE 0,1 km/h0,9 km/h887.7 Lux
Fri 02, 11:45 AM12,4 ºC100,0 %967 hPa0,00 l/m2 0º N 0,2 km/h1,7 km/h694.7 Lux
Fri 02, 11:50 AM12,9 ºC100,0 %967 hPa0,00 l/m2 337,5º NNO 3,9 km/h13,3 km/h434.3 Lux
Fri 02, 11:55 AM12,0 ºC100,0 %967 hPa0,00 l/m2 337,5º NNO 1,4 km/h6,4 km/h313 Lux
Fri 02, 12:00 PM12,1 ºC100,0 %967 hPa0,00 l/m2 0º N 1,2 km/h8,4 km/h340 Lux
Fri 02, 12:05 PM12,5 ºC100,0 %967 hPa0,00 l/m2 45º NE 0,2 km/h2,9 km/h283.4 Lux
Fri 02, 12:10 PM12,6 ºC100,0 %967 hPa0,00 l/m2 337,5º NNO 0,3 km/h1,2 km/h231 Lux
Fri 02, 12:15 PM12,5 ºC100,0 %967 hPa0,00 l/m2 45º NE 0,3 km/h2,6 km/h185.5 Lux
Fri 02, 12:20 PM12,3 ºC100,0 %967 hPa0,00 l/m2 67,5º ENE 0,2 km/h0,9 km/h179.7 Lux
Fri 02, 12:25 PM12,3 ºC100,0 %967 hPa0,00 l/m2 0º N 0,3 km/h3,5 km/h194.8 Lux
Fri 02, 12:30 PM12,2 ºC100,0 %967 hPa0,00 l/m2 315º NO 0,0 km/h0,0 km/h139.3 Lux
Fri 02, 12:35 PM12,4 ºC100,0 %967 hPa0,00 l/m2 0º N 0,0 km/h0,0 km/h168.8 Lux
Fri 02, 12:40 PM12,3 ºC100,0 %967 hPa0,00 l/m2 45º NE 0,9 km/h6,4 km/h294.7 Lux
Fri 02, 12:45 PM12,2 ºC100,0 %967 hPa0,00 l/m2 0º N 0,1 km/h0,6 km/h283.4 Lux
Fri 02, 12:50 PM12,6 ºC100,0 %967 hPa0,00 l/m2 0º N 0,8 km/h4,9 km/h223 Lux
Fri 02, 12:55 PM12,6 ºC100,0 %966 hPa0,00 l/m2 0º N 0,6 km/h2,9 km/h306.7 Lux
Fri 02, 01:00 PM12,4 ºC100,0 %966 hPa0,00 l/m2 45º NE 0,4 km/h2,3 km/h300.6 Lux
Fri 02, 01:05 PM12,5 ºC100,0 %966 hPa0,00 l/m2 337,5º NNO 0,5 km/h2,3 km/h289 Lux
Fri 02, 01:10 PM12,6 ºC100,0 %967 hPa0,00 l/m2 67,5º ENE 0,6 km/h2,9 km/h289 Lux
Fri 02, 01:15 PM12,7 ºC100,0 %967 hPa0,00 l/m2 0º N 0,4 km/h1,7 km/h277.9 Lux
Fri 02, 01:20 PM12,7 ºC100,0 %966 hPa0,00 l/m2 0º N 0,3 km/h0,9 km/h340 Lux
Fri 02, 01:25 PM12,8 ºC100,0 %966 hPa0,00 l/m2 337,5º NNO 0,8 km/h4,0 km/h300.6 Lux
Fri 02, 01:30 PM12,9 ºC100,0 %966 hPa0,00 l/m2 337,5º NNO 0,5 km/h5,8 km/h319.4 Lux
Fri 02, 01:35 PM13,0 ºC100,0 %966 hPa0,00 l/m2 0º N 0,1 km/h1,4 km/h556.9 Lux
Fri 02, 01:40 PM13,3 ºC100,0 %966 hPa0,00 l/m2 45º NE 0,1 km/h0,6 km/h444.7 Lux
Fri 02, 01:45 PM13,4 ºC100,0 %966 hPa0,00 l/m2 0º N 0,2 km/h2,6 km/h515.4 Lux
Fri 02, 01:50 PM13,6 ºC100,0 %966 hPa0,00 l/m2 0º N 2,8 km/h10,4 km/h405.2 Lux
Fri 02, 01:55 PM13,5 ºC100,0 %966 hPa0,00 l/m2 45º NE 0,1 km/h0,9 km/h434.3 Lux
Fri 02, 02:00 PM13,7 ºC100,0 %966 hPa0,00 l/m2 337,5º NNO 0,1 km/h1,7 km/h326.1 Lux
Fri 02, 02:05 PM13,7 ºC100,0 %966 hPa0,00 l/m2 0º N 0,1 km/h0,6 km/h424.3 Lux
Fri 02, 02:10 PM13,5 ºC100,0 %966 hPa0,00 l/m2 337,5º NNO 0,3 km/h3,5 km/h674.9 Lux
Fri 02, 02:15 PM13,7 ºC100,0 %966 hPa0,00 l/m2 337,5º NNO 0,0 km/h0,3 km/h370.5 Lux
Fri 02, 02:20 PM14,5 ºC100,0 %966 hPa0,00 l/m2 45º NE 1,4 km/h8,1 km/h248.3 Lux
Fri 02, 02:25 PM13,8 ºC100,0 %966 hPa0,00 l/m2 0º N 0,6 km/h2,3 km/h198 Lux
Fri 02, 02:30 PM13,5 ºC100,0 %966 hPa0,00 l/m2 0º N 2,0 km/h6,7 km/h262.5 Lux
Fri 02, 02:35 PM13,3 ºC100,0 %966 hPa0,00 l/m2 45º NE 1,8 km/h6,7 km/h231 Lux
Fri 02, 02:40 PM13,5 ºC100,0 %966 hPa0,00 l/m2 0º N 0,3 km/h3,5 km/h204.7 Lux
Fri 02, 02:45 PM13,6 ºC100,0 %965 hPa0,00 l/m2 0º N 2,4 km/h11,6 km/h188.5 Lux
Fri 02, 02:50 PM13,4 ºC100,0 %965 hPa0,00 l/m2 67,5º ENE 1,2 km/h9,0 km/h154.2 Lux
Fri 02, 02:55 PM13,5 ºC100,0 %965 hPa0,00 l/m2 247,5º OSO 0,0 km/h0,6 km/h116.7 Lux
Fri 02, 03:00 PM13,6 ºC100,0 %965 hPa0,00 l/m2 337,5º NNO 0,0 km/h0,3 km/h108.1 Lux
Fri 02, 03:05 PM13,5 ºC100,0 %965 hPa0,00 l/m2 67,5º ENE 0,1 km/h0,6 km/h124.7 Lux
Fri 02, 03:10 PM13,5 ºC100,0 %965 hPa0,00 l/m2 0º N 1,7 km/h7,2 km/h168.8 Lux
Fri 02, 03:15 PM13,6 ºC100,0 %965 hPa0,00 l/m2 67,5º ENE 0,6 km/h3,5 km/h129.9 Lux
Fri 02, 03:20 PM13,6 ºC100,0 %965 hPa0,00 l/m2 337,5º NNO 0,8 km/h1,4 km/h118.3 Lux
Fri 02, 03:25 PM13,6 ºC100,0 %965 hPa0,00 l/m2 0º N 2,1 km/h7,5 km/h124.7 Lux
Fri 02, 03:30 PM13,6 ºC100,0 %965 hPa0,00 l/m2 67,5º ENE 1,2 km/h6,9 km/h131.7 Lux
Fri 02, 03:35 PM13,7 ºC100,0 %966 hPa0,00 l/m2 337,5º NNO 1,6 km/h6,4 km/h188.5 Lux
Fri 02, 03:40 PM13,7 ºC100,0 %966 hPa0,00 l/m2 67,5º ENE 3,5 km/h9,8 km/h223 Lux
Fri 02, 03:45 PM13,7 ºC100,0 %966 hPa0,00 l/m2 0º N 1,5 km/h6,1 km/h277.9 Lux
Fri 02, 03:50 PM13,8 ºC100,0 %966 hPa0,00 l/m2 157,5º SSE 0,5 km/h1,7 km/h272.7 Lux
Fri 02, 03:55 PM13,9 ºC100,0 %966 hPa0,00 l/m2 337,5º NNO 2,6 km/h10,7 km/h227 Lux
Fri 02, 04:00 PM13,9 ºC100,0 %966 hPa0,00 l/m2 225º SO 1,6 km/h5,2 km/h174.1 Lux
Fri 02, 04:05 PM13,9 ºC100,0 %966 hPa0,00 l/m2 45º NE 1,3 km/h5,2 km/h143.3 Lux
Fri 02, 04:10 PM13,9 ºC100,0 %966 hPa0,00 l/m2 0º N 1,0 km/h5,5 km/h133.6 Lux
Fri 02, 04:15 PM13,9 ºC100,0 %965 hPa0,00 l/m2 337,5º NNO 0,5 km/h1,7 km/h141.3 Lux
Fri 02, 04:20 PM13,8 ºC100,0 %965 hPa0,00 l/m2 67,5º ENE 1,6 km/h5,8 km/h129.9 Lux
Fri 02, 04:25 PM13,7 ºC100,0 %966 hPa0,00 l/m2 225º SO 2,7 km/h7,5 km/h110.9 Lux
Fri 02, 04:30 PM13,8 ºC100,0 %965 hPa0,00 l/m2 0º N 2,4 km/h7,5 km/h97.9 Lux
Fri 02, 04:35 PM13,7 ºC100,0 %965 hPa0,00 l/m2 337,5º NNO 1,8 km/h6,4 km/h84.1 Lux
Fri 02, 04:40 PM13,7 ºC100,0 %965 hPa0,00 l/m2 45º NE 1,0 km/h4,3 km/h91.2 Lux
Fri 02, 04:45 PM13,7 ºC100,0 %965 hPa0,00 l/m2 135º SE 1,1 km/h6,4 km/h80.4 Lux
Fri 02, 04:50 PM13,6 ºC100,0 %965 hPa0,00 l/m2 0º N 1,5 km/h5,2 km/h59 Lux
Fri 02, 04:55 PM13,6 ºC100,0 %965 hPa0,00 l/m2 67,5º ENE 1,9 km/h4,3 km/h78.7 Lux
Fri 02, 05:00 PM13,6 ºC100,0 %965 hPa0,00 l/m2 45º NE 0,7 km/h2,3 km/h65.1 Lux
Fri 02, 05:05 PM13,6 ºC100,0 %966 hPa0,00 l/m2 0º N 1,5 km/h7,2 km/h54.7 Lux
Fri 02, 05:10 PM13,6 ºC100,0 %965 hPa0,00 l/m2 45º NE 1,0 km/h5,2 km/h46.5 Lux
Fri 02, 05:15 PM13,6 ºC100,0 %965 hPa0,00 l/m2 67,5º ENE 0,3 km/h2,3 km/h57.4 Lux
Fri 02, 05:20 PM13,6 ºC100,0 %966 hPa0,00 l/m2 0º N 0,5 km/h2,0 km/h29 Lux
Fri 02, 05:25 PM13,5 ºC100,0 %965 hPa0,00 l/m2 0º N 0,1 km/h0,6 km/h32.5 Lux
Fri 02, 05:30 PM13,5 ºC100,0 %965 hPa0,00 l/m2 337,5º NNO 0,1 km/h0,6 km/h16.9 Lux
Fri 02, 05:35 PM13,5 ºC100,0 %965 hPa0,00 l/m2 337,5º NNO 0,1 km/h0,6 km/h20.7 Lux
Fri 02, 05:40 PM13,5 ºC100,0 %966 hPa0,00 l/m2 0º N 0,1 km/h1,7 km/h30.4 Lux
Fri 02, 05:45 PM13,5 ºC100,0 %966 hPa0,00 l/m2 225º SO 0,5 km/h2,6 km/h28.2 Lux
Fri 02, 05:50 PM13,5 ºC100,0 %966 hPa0,00 l/m2 45º NE 0,3 km/h2,0 km/h16.7 Lux
Fri 02, 05:55 PM13,5 ºC100,0 %966 hPa0,00 l/m2 90º E 0,4 km/h1,2 km/h7.7 Lux
Fri 02, 06:00 PM13,4 ºC100,0 %966 hPa0,00 l/m2 0º N 0,4 km/h2,3 km/h8.4 Lux
Fri 02, 06:05 PM13,4 ºC100,0 %966 hPa0,00 l/m2 45º NE 0,7 km/h5,8 km/h8.1 Lux
Fri 02, 06:10 PM13,4 ºC100,0 %966 hPa0,00 l/m2 0º N 0,2 km/h1,2 km/h7.2 Lux
Fri 02, 06:15 PM13,3 ºC100,0 %966 hPa0,00 l/m2 0º N 0,0 km/h0,3 km/h4.5 Lux
Fri 02, 06:20 PM13,3 ºC100,0 %966 hPa0,00 l/m2 0º N 0,1 km/h0,9 km/h3.8 Lux
Fri 02, 06:25 PM13,3 ºC100,0 %966 hPa0,00 l/m2 0º N 0,1 km/h0,6 km/h3 Lux
Fri 02, 06:30 PM13,2 ºC100,0 %966 hPa0,00 l/m2 0º N 0,0 km/h0,3 km/h3 Lux
Fri 02, 06:35 PM13,2 ºC100,0 %966 hPa0,00 l/m2 0º N 0,3 km/h0,9 km/h2.5 Lux
Fri 02, 06:40 PM13,2 ºC100,0 %966 hPa0,00 l/m2 135º SE 0,1 km/h0,3 km/h2.3 Lux
Fri 02, 06:45 PM13,2 ºC100,0 %966 hPa0,00 l/m2 67,5º ENE 0,3 km/h1,7 km/h2.2 Lux
Fri 02, 06:50 PM13,2 ºC100,0 %966 hPa0,00 l/m2 337,5º NNO 0,0 km/h0,3 km/h2.3 Lux
Fri 02, 06:55 PM13,2 ºC100,0 %966 hPa0,00 l/m2 315º NO 0,0 km/h0,0 km/h2.3 Lux
Fri 02, 07:00 PM13,2 ºC100,0 %966 hPa0,00 l/m2 0º N 0,1 km/h0,6 km/h2.2 Lux
Fri 02, 07:05 PM13,1 ºC100,0 %966 hPa0,00 l/m2 45º NE 0,0 km/h0,0 km/h2.3 Lux
Fri 02, 07:10 PM13,1 ºC100,0 %966 hPa0,00 l/m2 0º N 0,0 km/h0,0 km/h2.3 Lux
Fri 02, 07:15 PM13,1 ºC100,0 %966 hPa0,00 l/m2 337,5º NNO 0,0 km/h0,0 km/h2.3 Lux
Fri 02, 07:20 PM12,9 ºC100,0 %966 hPa0,00 l/m2 0º N 0,0 km/h0,0 km/h2.1 Lux
Fri 02, 07:25 PM12,8 ºC100,0 %966 hPa0,00 l/m2 0º N 0,0 km/h0,0 km/h2.3 Lux
Fri 02, 07:30 PM12,8 ºC100,0 %966 hPa0,00 l/m2 0º N 0,0 km/h0,0 km/h2.4 Lux
Fri 02, 07:35 PM12,8 ºC100,0 %966 hPa0,00 l/m2 0º N 0,0 km/h0,0 km/h2.4 Lux
Fri 02, 07:40 PM12,7 ºC100,0 %966 hPa0,00 l/m2 0º N 0,0 km/h0,0 km/h2.3 Lux
Fri 02, 07:45 PM12,6 ºC100,0 %966 hPa0,00 l/m2 45º NE 0,0 km/h0,0 km/h2.3 Lux
Fri 02, 07:50 PM12,7 ºC100,0 %966 hPa0,00 l/m2 45º NE 0,0 km/h0,0 km/h2.4 Lux
Fri 02, 07:55 PM12,8 ºC100,0 %966 hPa0,00 l/m2 0º N 0,0 km/h0,0 km/h2.4 Lux
Fri 02, 08:00 PM12,8 ºC100,0 %966 hPa0,00 l/m2 0º N 0,0 km/h0,0 km/h2.2 Lux
Fri 02, 08:05 PM12,8 ºC100,0 %967 hPa0,00 l/m2 0º N 0,0 km/h0,0 km/h2.3 Lux
Fri 02, 08:10 PM12,8 ºC100,0 %967 hPa0,00 l/m2 0º N 0,0 km/h0,0 km/h2.3 Lux
Fri 02, 08:15 PM12,8 ºC100,0 %967 hPa0,00 l/m2 0º N 0,0 km/h0,0 km/h2.3 Lux
Fri 02, 08:20 PM12,8 ºC100,0 %967 hPa0,00 l/m2 0º N 0,0 km/h0,0 km/h2.2 Lux
Fri 02, 08:25 PM12,8 ºC100,0 %967 hPa0,00 l/m2 45º NE 0,0 km/h0,0 km/h2.3 Lux
Fri 02, 08:30 PM12,9 ºC100,0 %967 hPa0,00 l/m2 45º NE 0,0 km/h0,0 km/h2.4 Lux
Fri 02, 08:35 PM13,0 ºC100,0 %967 hPa0,00 l/m2 0º N 0,0 km/h0,0 km/h2.3 Lux
Fri 02, 08:40 PM13,0 ºC100,0 %966 hPa0,00 l/m2 0º N 0,0 km/h0,0 km/h2.3 Lux
Fri 02, 08:45 PM13,0 ºC100,0 %967 hPa0,00 l/m2 0º N 0,0 km/h0,0 km/h2.3 Lux
Fri 02, 08:50 PM13,0 ºC100,0 %966 hPa0,00 l/m2 0º N 0,0 km/h0,3 km/h2.4 Lux
Fri 02, 08:55 PM13,0 ºC100,0 %967 hPa0,00 l/m2 337,5º NNO 0,0 km/h0,0 km/h2.3 Lux
Fri 02, 09:00 PM13,1 ºC100,0 %967 hPa0,00 l/m2 0º N 0,0 km/h0,0 km/h2.3 Lux
Fri 02, 09:05 PM13,1 ºC100,0 %967 hPa0,00 l/m2 0º N 0,0 km/h0,0 km/h2.3 Lux
Fri 02, 09:10 PM13,2 ºC100,0 %967 hPa0,00 l/m2 0º N 0,0 km/h0,0 km/h2.2 Lux
Fri 02, 09:15 PM13,3 ºC100,0 %967 hPa0,00 l/m2 45º NE 0,0 km/h0,0 km/h2.3 Lux
Fri 02, 09:20 PM13,2 ºC100,0 %967 hPa0,00 l/m2 45º NE 0,0 km/h0,0 km/h2.3 Lux
Fri 02, 09:25 PM13,2 ºC100,0 %967 hPa0,00 l/m2 0º N 0,0 km/h0,0 km/h2.3 Lux
Fri 02, 09:30 PM13,2 ºC100,0 %967 hPa0,00 l/m2 0º N 0,0 km/h0,0 km/h2.3 Lux
Fri 02, 09:35 PM13,1 ºC100,0 %967 hPa0,00 l/m2 0º N 0,0 km/h0,0 km/h2.3 Lux
Fri 02, 09:40 PM13,1 ºC100,0 %967 hPa0,00 l/m2 45º NE 0,0 km/h0,0 km/h2.3 Lux
Fri 02, 09:45 PM13,1 ºC100,0 %967 hPa0,00 l/m2 0º N 0,0 km/h0,0 km/h2.1 Lux
Fri 02, 09:50 PM13,1 ºC100,0 %967 hPa0,00 l/m2 45º NE 0,0 km/h0,0 km/h2.3 Lux
Fri 02, 09:55 PM13,1 ºC100,0 %967 hPa0,00 l/m2 0º N 0,0 km/h0,0 km/h2.3 Lux
Fri 02, 10:00 PM13,0 ºC100,0 %967 hPa0,00 l/m2 45º NE 0,0 km/h0,0 km/h2.4 Lux
Fri 02, 10:05 PM12,9 ºC100,0 %967 hPa0,00 l/m2 0º N 0,0 km/h0,0 km/h2.3 Lux
Fri 02, 10:10 PM12,9 ºC100,0 %967 hPa0,00 l/m2 0º N 0,0 km/h0,0 km/h2.2 Lux
Fri 02, 10:15 PM12,7 ºC100,0 %967 hPa0,00 l/m2 0º N 0,0 km/h0,0 km/h2.3 Lux
Fri 02, 10:20 PM12,6 ºC100,0 %967 hPa0,00 l/m2 0º N 0,0 km/h0,0 km/h2.2 Lux
Fri 02, 10:25 PM12,6 ºC100,0 %967 hPa0,00 l/m2 0º N 0,0 km/h0,0 km/h2.3 Lux
Fri 02, 10:30 PM12,7 ºC100,0 %967 hPa0,00 l/m2 0º N 0,0 km/h0,0 km/h2.3 Lux
Fri 02, 10:35 PM12,7 ºC100,0 %967 hPa0,00 l/m2 0º N 0,0 km/h0,0 km/h2.3 Lux
Fri 02, 10:40 PM12,8 ºC100,0 %967 hPa0,00 l/m2 45º NE 0,0 km/h0,0 km/h2.1 Lux
Fri 02, 10:45 PM12,8 ºC100,0 %967 hPa0,00 l/m2 0º N 0,0 km/h0,0 km/h2.3 Lux
Fri 02, 10:50 PM12,5 ºC100,0 %967 hPa0,00 l/m2 0º N 0,0 km/h0,0 km/h2.3 Lux
Fri 02, 10:55 PM12,4 ºC100,0 %967 hPa0,00 l/m2 0º N 0,0 km/h0,0 km/h2.4 Lux
Fri 02, 11:00 PM12,4 ºC100,0 %967 hPa0,00 l/m2 0º N 0,0 km/h0,0 km/h2.1 Lux
Fri 02, 11:05 PM12,3 ºC100,0 %967 hPa0,00 l/m2 0º N 0,0 km/h0,0 km/h2.2 Lux
Fri 02, 11:10 PM12,2 ºC100,0 %967 hPa0,00 l/m2 0º N 0,0 km/h0,0 km/h2.2 Lux
Fri 02, 11:15 PM12,1 ºC100,0 %967 hPa0,00 l/m2 0º N 0,0 km/h0,0 km/h2.4 Lux
Fri 02, 11:20 PM12,1 ºC100,0 %967 hPa0,00 l/m2 45º NE 0,0 km/h0,0 km/h2.3 Lux
Fri 02, 11:25 PM12,1 ºC100,0 %967 hPa0,00 l/m2 45º NE 0,0 km/h0,0 km/h2.3 Lux
Fri 02, 11:30 PM12,0 ºC100,0 %967 hPa0,00 l/m2 0º N 0,0 km/h0,0 km/h2.2 Lux
Fri 02, 11:35 PM11,8 ºC100,0 %967 hPa0,00 l/m2 0º N 0,0 km/h0,0 km/h2.3 Lux
Fri 02, 11:40 PM11,7 ºC100,0 %967 hPa0,00 l/m2 0º N 0,0 km/h0,0 km/h2.2 Lux
Fri 02, 11:45 PM11,7 ºC100,0 %967 hPa0,00 l/m2 0º N 0,0 km/h0,0 km/h2.3 Lux
Fri 02, 11:50 PM11,6 ºC100,0 %966 hPa0,00 l/m2 157,5º SSE 0,0 km/h0,0 km/h2.1 Lux
Fri 02, 11:55 PM11,6 ºC100,0 %966 hPa0,00 l/m2 0º N 0,0 km/h0,0 km/h2.2 Lux
Sat 03, 12:00 AM11,5 ºC100,0 %966 hPa0,00 l/m2 202,5º SSO 0,0 km/h0,0 km/h2.1 Lux
Sat 03, 12:05 AM11,4 ºC100,0 %966 hPa0,00 l/m2 0º N 0,0 km/h0,0 km/h2.2 Lux
Sat 03, 12:10 AM11,3 ºC100,0 %966 hPa0,00 l/m2 157,5º SSE 0,0 km/h0,0 km/h2.2 Lux
Sat 03, 12:15 AM11,3 ºC100,0 %966 hPa0,00 l/m2 337,5º NNO 0,0 km/h0,0 km/h2.3 Lux
Sat 03, 12:20 AM11,2 ºC100,0 %966 hPa0,00 l/m2 337,5º NNO 0,0 km/h0,0 km/h2.2 Lux
Sat 03, 12:25 AM11,3 ºC100,0 %966 hPa0,00 l/m2 135º SE 0,0 km/h0,0 km/h2.1 Lux
Sat 03, 12:30 AM11,3 ºC100,0 %966 hPa0,00 l/m2 157,5º SSE 0,0 km/h0,0 km/h2.4 Lux
Sat 03, 12:35 AM11,4 ºC100,0 %966 hPa0,00 l/m2 0º N 0,0 km/h0,0 km/h2.4 Lux
Sat 03, 12:40 AM11,5 ºC100,0 %966 hPa0,00 l/m2 247,5º OSO 0,0 km/h0,0 km/h2.2 Lux
Sat 03, 12:45 AM11,4 ºC100,0 %966 hPa0,00 l/m2 337,5º NNO 0,0 km/h0,0 km/h2.3 Lux
Sat 03, 12:50 AM11,6 ºC100,0 %966 hPa0,00 l/m2 45º NE 0,0 km/h0,0 km/h2.2 Lux
Sat 03, 12:55 AM11,4 ºC100,0 %966 hPa0,00 l/m2 157,5º SSE 0,0 km/h0,0 km/h2.3 Lux
Sat 03, 01:00 AM11,5 ºC100,0 %966 hPa0,00 l/m2 0º N 0,0 km/h0,0 km/h2.2 Lux
Sat 03, 01:05 AM11,6 ºC100,0 %966 hPa0,00 l/m2 0º N 0,0 km/h0,0 km/h2.3 Lux
Sat 03, 01:10 AM11,8 ºC100,0 %966 hPa0,00 l/m2 0º N 0,0 km/h0,0 km/h2.2 Lux
Sat 03, 01:15 AM11,6 ºC100,0 %966 hPa0,00 l/m2 45º NE 0,0 km/h0,0 km/h2.3 Lux
Sat 03, 01:20 AM11,2 ºC100,0 %966 hPa0,00 l/m2 0º N 0,0 km/h0,0 km/h2.3 Lux
Sat 03, 01:30 AM11,3 ºC100,0 %966 hPa0,00 l/m2 0º N 0,0 km/h0,0 km/h2.3 Lux
Sat 03, 01:35 AM11,4 ºC100,0 %966 hPa0,00 l/m2 0º N 0,0 km/h0,0 km/h2.2 Lux
Sat 03, 01:40 AM11,4 ºC100,0 %966 hPa0,00 l/m2 0º N 0,0 km/h0,0 km/h2.3 Lux
Sat 03, 01:45 AM11,5 ºC100,0 %966 hPa0,00 l/m2 0º N 0,0 km/h0,0 km/h2.3 Lux
Sat 03, 01:50 AM11,6 ºC100,0 %966 hPa0,00 l/m2 0º N 0,0 km/h0,0 km/h2.3 Lux
Sat 03, 01:55 AM11,4 ºC100,0 %966 hPa0,00 l/m2 0º N 0,0 km/h0,0 km/h2.3 Lux
Sat 03, 02:00 AM11,3 ºC100,0 %966 hPa0,00 l/m2 0º N 0,0 km/h0,0 km/h2.1 Lux
Sat 03, 02:05 AM11,2 ºC100,0 %966 hPa0,00 l/m2 0º N 0,0 km/h0,0 km/h2.2 Lux
Sat 03, 02:10 AM11,0 ºC100,0 %966 hPa0,00 l/m2 0º N 0,0 km/h0,0 km/h2.2 Lux
Sat 03, 02:15 AM10,8 ºC100,0 %966 hPa0,00 l/m2 0º N 0,0 km/h0,0 km/h2.3 Lux
Sat 03, 02:20 AM10,9 ºC100,0 %966 hPa0,00 l/m2 0º N 0,0 km/h0,0 km/h2.3 Lux
Sat 03, 02:25 AM10,8 ºC100,0 %965 hPa0,00 l/m2 45º NE 0,0 km/h0,0 km/h2.3 Lux
Sat 03, 02:30 AM10,9 ºC100,0 %965 hPa0,00 l/m2 45º NE 0,0 km/h0,0 km/h2.4 Lux
Sat 03, 02:35 AM10,9 ºC100,0 %965 hPa0,00 l/m2 0º N 0,0 km/h0,0 km/h2.2 Lux
Sat 03, 02:40 AM10,6 ºC100,0 %965 hPa0,00 l/m2 0º N 0,0 km/h0,0 km/h2.3 Lux
Sat 03, 02:45 AM10,5 ºC100,0 %965 hPa0,00 l/m2 45º NE 0,0 km/h0,0 km/h2.3 Lux
Sat 03, 02:50 AM10,6 ºC100,0 %965 hPa0,00 l/m2 135º SE 0,0 km/h0,0 km/h2.2 Lux
Sat 03, 02:55 AM10,7 ºC100,0 %965 hPa0,00 l/m2 135º SE 0,0 km/h0,0 km/h2.3 Lux
Sat 03, 03:00 AM10,5 ºC100,0 %965 hPa0,00 l/m2 247,5º OSO 0,0 km/h0,0 km/h2.2 Lux
Sat 03, 03:05 AM10,7 ºC100,0 %965 hPa0,00 l/m2 337,5º NNO 0,0 km/h0,0 km/h2.2 Lux
Sat 03, 03:10 AM10,6 ºC100,0 %965 hPa0,00 l/m2 157,5º SSE 0,0 km/h0,0 km/h2.2 Lux
Sat 03, 03:15 AM10,7 ºC100,0 %965 hPa0,00 l/m2 337,5º NNO 0,0 km/h0,0 km/h2.1 Lux
Sat 03, 03:20 AM10,5 ºC100,0 %965 hPa0,00 l/m2 247,5º OSO 0,0 km/h0,0 km/h2.2 Lux
Sat 03, 03:25 AM10,7 ºC100,0 %965 hPa0,00 l/m2 337,5º NNO 0,0 km/h0,3 km/h2.3 Lux
Sat 03, 03:30 AM10,6 ºC100,0 %965 hPa0,00 l/m2 67,5º ENE 0,1 km/h0,3 km/h2.3 Lux
Sat 03, 03:35 AM10,8 ºC100,0 %965 hPa0,00 l/m2 0º N 0,0 km/h0,0 km/h2.3 Lux
Sat 03, 03:40 AM10,7 ºC100,0 %965 hPa0,00 l/m2 337,5º NNO 0,2 km/h1,7 km/h2.3 Lux
Sat 03, 03:45 AM10,9 ºC100,0 %965 hPa0,00 l/m2 0º N 0,2 km/h2,3 km/h2.2 Lux
Sat 03, 03:50 AM10,9 ºC100,0 %965 hPa0,00 l/m2 0º N 0,0 km/h0,0 km/h2.2 Lux
Sat 03, 03:55 AM10,9 ºC100,0 %965 hPa0,00 l/m2 337,5º NNO 0,0 km/h0,0 km/h2.3 Lux
Sat 03, 04:00 AM10,9 ºC100,0 %965 hPa0,00 l/m2 337,5º NNO 0,0 km/h0,3 km/h2.2 Lux
Sat 03, 04:05 AM11,1 ºC100,0 %965 hPa0,00 l/m2 202,5º SSO 0,0 km/h0,0 km/h2.3 Lux
Sat 03, 04:10 AM11,1 ºC100,0 %965 hPa0,00 l/m2 0º N 0,0 km/h0,0 km/h2.3 Lux
Sat 03, 04:15 AM11,1 ºC100,0 %965 hPa0,00 l/m2 0º N 0,0 km/h0,0 km/h2.1 Lux
Sat 03, 04:20 AM11,2 ºC100,0 %965 hPa0,00 l/m2 0º N 0,0 km/h0,0 km/h2.3 Lux
Sat 03, 04:25 AM11,5 ºC100,0 %965 hPa0,00 l/m2 157,5º SSE 0,0 km/h0,0 km/h2.2 Lux
Sat 03, 04:30 AM11,7 ºC100,0 %965 hPa0,00 l/m2 0º N 0,0 km/h0,0 km/h2.3 Lux
Sat 03, 04:35 AM11,5 ºC100,0 %965 hPa0,00 l/m2 0º N 0,0 km/h0,0 km/h2.3 Lux
Sat 03, 04:40 AM11,4 ºC100,0 %965 hPa0,00 l/m2 0º N 0,0 km/h0,0 km/h2.2 Lux
Sat 03, 04:45 AM11,6 ºC100,0 %965 hPa0,00 l/m2 45º NE 0,0 km/h0,0 km/h2.2 Lux
Sat 03, 04:50 AM11,7 ºC100,0 %965 hPa0,00 l/m2 0º N 0,0 km/h0,0 km/h2.3 Lux
Sat 03, 04:55 AM11,5 ºC100,0 %965 hPa0,00 l/m2 0º N 0,0 km/h0,0 km/h2.2 Lux
Sat 03, 05:00 AM11,4 ºC100,0 %965 hPa0,00 l/m2 0º N 0,0 km/h0,0 km/h2.4 Lux
Sat 03, 05:05 AM11,3 ºC100,0 %965 hPa0,00 l/m2 0º N 0,0 km/h0,0 km/h2.2 Lux
Sat 03, 05:10 AM11,3 ºC100,0 %965 hPa0,00 l/m2 0º N 0,0 km/h0,0 km/h2.2 Lux
Sat 03, 05:15 AM11,3 ºC100,0 %964 hPa0,00 l/m2 0º N 0,0 km/h0,0 km/h2.2 Lux
Sat 03, 05:20 AM11,2 ºC100,0 %964 hPa0,00 l/m2 0º N 0,0 km/h0,0 km/h2.3 Lux
Sat 03, 05:25 AM11,3 ºC100,0 %964 hPa0,00 l/m2 0º N 0,0 km/h0,0 km/h2.3 Lux
Sat 03, 05:30 AM11,3 ºC100,0 %964 hPa0,00 l/m2 0º N 0,0 km/h0,0 km/h2.2 Lux
Sat 03, 05:35 AM11,3 ºC100,0 %964 hPa0,00 l/m2 0º N 0,0 km/h0,0 km/h2.3 Lux
Sat 03, 05:40 AM11,3 ºC100,0 %964 hPa0,00 l/m2 0º N 0,0 km/h0,0 km/h2.4 Lux
Sat 03, 05:45 AM11,3 ºC100,0 %964 hPa0,00 l/m2 337,5º NNO 0,0 km/h0,0 km/h2.3 Lux
Sat 03, 05:50 AM11,4 ºC100,0 %964 hPa0,00 l/m2 0º N 0,0 km/h0,0 km/h2.1 Lux
Sat 03, 05:55 AM11,4 ºC100,0 %964 hPa0,00 l/m2 337,5º NNO 0,0 km/h0,0 km/h2.3 Lux
Sat 03, 06:00 AM11,3 ºC100,0 %964 hPa0,00 l/m2 337,5º NNO 1,5 km/h5,5 km/h2.2 Lux
Sat 03, 06:05 AM11,3 ºC100,0 %964 hPa0,00 l/m2 0º N 0,0 km/h0,3 km/h2.2 Lux
Sat 03, 06:10 AM11,2 ºC100,0 %964 hPa0,00 l/m2 0º N 0,0 km/h0,0 km/h2.2 Lux
Sat 03, 06:15 AM11,2 ºC100,0 %964 hPa0,00 l/m2 0º N 0,0 km/h0,0 km/h2.3 Lux
Sat 03, 06:20 AM11,1 ºC100,0 %964 hPa0,00 l/m2 0º N 0,0 km/h0,0 km/h2.1 Lux
Sat 03, 06:25 AM11,1 ºC100,0 %964 hPa0,00 l/m2 0º N 0,0 km/h0,0 km/h2.2 Lux
Sat 03, 06:30 AM11,1 ºC100,0 %964 hPa0,00 l/m2 0º N 0,0 km/h0,0 km/h2.3 Lux
Sat 03, 06:35 AM11,1 ºC100,0 %964 hPa0,00 l/m2 0º N 0,0 km/h0,0 km/h2.2 Lux
Sat 03, 06:40 AM11,0 ºC100,0 %964 hPa0,00 l/m2 337,5º NNO 0,0 km/h0,0 km/h2.1 Lux
Sat 03, 06:45 AM11,0 ºC100,0 %964 hPa0,00 l/m2 0º N 0,0 km/h0,0 km/h2.1 Lux
Sat 03, 06:50 AM11,0 ºC100,0 %964 hPa0,00 l/m2 0º N 0,0 km/h0,0 km/h2.2 Lux
Sat 03, 06:55 AM11,0 ºC100,0 %964 hPa0,00 l/m2 0º N 0,0 km/h0,0 km/h2.1 Lux
Sat 03, 07:00 AM11,0 ºC100,0 %964 hPa0,00 l/m2 0º N 0,0 km/h0,0 km/h2.1 Lux
Sat 03, 07:05 AM11,0 ºC100,0 %964 hPa0,00 l/m2 0º N 0,0 km/h0,0 km/h2.3 Lux
Sat 03, 07:10 AM11,0 ºC100,0 %964 hPa0,00 l/m2 0º N 0,0 km/h0,0 km/h2.3 Lux
Sat 03, 07:15 AM11,0 ºC100,0 %964 hPa0,00 l/m2 0º N 0,0 km/h0,0 km/h2.1 Lux
Sat 03, 07:20 AM11,1 ºC100,0 %964 hPa0,00 l/m2 0º N 0,0 km/h0,0 km/h2.3 Lux
Sat 03, 07:25 AM11,1 ºC100,0 %964 hPa0,00 l/m2 0º N 0,0 km/h0,0 km/h2.5 Lux
Sat 03, 07:30 AM11,1 ºC100,0 %964 hPa0,00 l/m2 0º N 0,0 km/h0,0 km/h2.7 Lux
Sat 03, 07:35 AM11,1 ºC100,0 %964 hPa0,00 l/m2 0º N 0,0 km/h0,0 km/h3.2 Lux
Sat 03, 07:40 AM11,1 ºC100,0 %964 hPa0,00 l/m2 0º N 0,0 km/h0,0 km/h3.6 Lux
Sat 03, 07:45 AM11,0 ºC100,0 %964 hPa0,00 l/m2 0º N 0,0 km/h0,0 km/h4.2 Lux
Sat 03, 07:50 AM11,0 ºC100,0 %964 hPa0,00 l/m2 337,5º NNO 0,0 km/h0,0 km/h4.7 Lux
Sat 03, 07:55 AM11,0 ºC100,0 %964 hPa0,00 l/m2 337,5º NNO 0,0 km/h0,0 km/h5.7 Lux
Sat 03, 08:00 AM11,0 ºC100,0 %964 hPa0,00 l/m2 337,5º NNO 0,0 km/h0,0 km/h6.4 Lux
Sat 03, 08:05 AM10,9 ºC100,0 %965 hPa0,00 l/m2 0º N 0,0 km/h0,0 km/h8.3 Lux
Sat 03, 08:10 AM10,9 ºC100,0 %965 hPa0,00 l/m2 0º N 0,0 km/h0,0 km/h19.5 Lux
Sat 03, 08:15 AM10,9 ºC100,0 %965 hPa0,00 l/m2 0º N 0,0 km/h0,0 km/h31.3 Lux
Sat 03, 08:20 AM10,9 ºC100,0 %965 hPa0,00 l/m2 0º N 0,0 km/h0,0 km/h35.6 Lux
Sat 03, 08:25 AM11,0 ºC100,0 %965 hPa0,00 l/m2 0º N 0,0 km/h0,0 km/h48.2 Lux
Sat 03, 08:30 AM10,9 ºC100,0 %965 hPa0,00 l/m2 0º N 0,0 km/h0,0 km/h49.1 Lux
Sat 03, 08:35 AM11,0 ºC100,0 %965 hPa0,00 l/m2 0º N 0,0 km/h0,0 km/h58.5 Lux
Sat 03, 08:40 AM11,0 ºC100,0 %965 hPa0,00 l/m2 337,5º NNO 0,0 km/h0,0 km/h81.3 Lux
Sat 03, 08:45 AM11,0 ºC100,0 %965 hPa0,00 l/m2 337,5º NNO 0,0 km/h0,0 km/h99.1 Lux
Sat 03, 08:50 AM10,8 ºC100,0 %965 hPa0,00 l/m2 0º N 0,0 km/h0,0 km/h93.3 Lux
Sat 03, 08:55 AM11,0 ºC100,0 %965 hPa0,00 l/m2 0º N 0,0 km/h0,0 km/h158.8 Lux
Sat 03, 09:00 AM11,1 ºC100,0 %965 hPa0,00 l/m2 45º NE 0,0 km/h0,3 km/h158.8 Lux
Sat 03, 09:05 AM11,0 ºC100,0 %965 hPa0,00 l/m2 337,5º NNO 0,0 km/h0,0 km/h166.2 Lux
Sat 03, 09:10 AM10,9 ºC100,0 %965 hPa0,00 l/m2 337,5º NNO 0,0 km/h0,3 km/h231 Lux
Sat 03, 09:15 AM11,0 ºC100,0 %965 hPa0,00 l/m2 337,5º NNO 0,0 km/h0,0 km/h231 Lux
Sat 03, 09:20 AM11,0 ºC100,0 %965 hPa0,00 l/m2 337,5º NNO 0,0 km/h0,0 km/h313 Lux
Sat 03, 09:25 AM11,0 ºC100,0 %965 hPa0,00 l/m2 337,5º NNO 0,0 km/h0,0 km/h294.7 Lux
Sat 03, 09:30 AM10,7 ºC100,0 %965 hPa0,00 l/m2 0º N 0,0 km/h0,3 km/h313 Lux
Sat 03, 09:35 AM11,0 ºC100,0 %965 hPa0,00 l/m2 0º N 0,0 km/h0,6 km/h294.7 Lux
Sat 03, 09:40 AM11,0 ºC100,0 %965 hPa0,00 l/m2 0º N 0,0 km/h0,0 km/h267.5 Lux
Sat 03, 09:45 AM11,0 ºC100,0 %965 hPa0,00 l/m2 0º N 0,0 km/h0,3 km/h257.6 Lux
Sat 03, 09:50 AM11,1 ºC100,0 %965 hPa0,00 l/m2 0º N 0,0 km/h0,0 km/h300.6 Lux
Sat 03, 09:55 AM11,2 ºC100,0 %965 hPa0,00 l/m2 0º N 0,0 km/h0,3 km/h319.4 Lux
Sat 03, 10:00 AM11,2 ºC100,0 %965 hPa0,00 l/m2 0º N 0,2 km/h1,7 km/h378.8 Lux
Sat 03, 10:05 AM11,4 ºC100,0 %965 hPa0,00 l/m2 337,5º NNO 0,0 km/h0,0 km/h414.6 Lux
Sat 03, 10:10 AM11,5 ºC100,0 %965 hPa0,00 l/m2 0º N 0,0 km/h0,0 km/h466.6 Lux
Sat 03, 10:15 AM11,8 ºC100,0 %965 hPa0,00 l/m2 0º N 0,0 km/h0,0 km/h478.2 Lux
Sat 03, 10:20 AM12,0 ºC100,0 %965 hPa0,00 l/m2 0º N 0,0 km/h0,0 km/h502.5 Lux
Sat 03, 10:25 AM12,0 ºC100,0 %965 hPa0,00 l/m2 0º N 0,0 km/h0,0 km/h556.9 Lux
Sat 03, 10:30 AM12,2 ºC100,0 %965 hPa0,00 l/m2 45º NE 0,0 km/h0,0 km/h656 Lux
Sat 03, 10:35 AM13,5 ºC100,0 %965 hPa0,00 l/m2 45º NE 0,0 km/h0,3 km/h759.2 Lux
Sat 03, 10:40 AM14,2 ºC100,0 %965 hPa0,00 l/m2 0º N 0,0 km/h0,0 km/h759.2 Lux
Sat 03, 10:45 AM16,1 ºC100,0 %965 hPa0,00 l/m2 0º N 0,0 km/h0,0 km/h859.6 Lux
Sat 03, 10:50 AM16,3 ºC98,0 %965 hPa0,00 l/m2 0º N 0,0 km/h0,0 km/h887.7 Lux
Sat 03, 10:55 AM16,9 ºC95,7 %965 hPa0,00 l/m2 0º N 0,1 km/h0,6 km/h1014.5 Lux
Sat 03, 11:00 AM15,1 ºC100,0 %965 hPa0,00 l/m2 0º N 0,0 km/h0,3 km/h1014.5 Lux
Sat 03, 11:05 AM15,2 ºC100,0 %965 hPa0,00 l/m2 0º N 0,1 km/h0,3 km/h1169.2 Lux
Sat 03, 11:10 AM15,7 ºC100,0 %964 hPa0,00 l/m2 337,5º NNO 0,0 km/h0,0 km/h1259.7 Lux
Sat 03, 11:15 AM15,9 ºC100,0 %964 hPa0,00 l/m2 337,5º NNO 0,1 km/h0,6 km/h1360.7 Lux
Sat 03, 11:20 AM15,9 ºC100,0 %964 hPa0,00 l/m2 67,5º ENE 0,1 km/h1,4 km/h1415.6 Lux
Sat 03, 11:25 AM16,2 ºC100,0 %964 hPa0,00 l/m2 337,5º NNO 0,8 km/h4,6 km/h1473.8 Lux
Sat 03, 11:30 AM15,9 ºC100,0 %964 hPa0,00 l/m2 0º N 0,0 km/h0,6 km/h1535.5 Lux
Sat 03, 11:35 AM16,2 ºC100,0 %964 hPa0,00 l/m2 0º N 0,1 km/h2,0 km/h1473.8 Lux
Sat 03, 11:40 AM16,0 ºC100,0 %964 hPa0,00 l/m2 0º N 0,0 km/h0,0 km/h1360.7 Lux
Sat 03, 11:45 AM16,7 ºC99,8 %964 hPa0,00 l/m2 0º N 0,1 km/h0,6 km/h1473.8 Lux
Sat 03, 11:50 AM15,7 ºC100,0 %964 hPa0,00 l/m2 45º NE 2,0 km/h9,8 km/h1415.6 Lux
Sat 03, 11:55 AM15,0 ºC100,0 %964 hPa0,00 l/m2 45º NE 0,0 km/h0,3 km/h1360.7 Lux
Sat 03, 12:00 PM16,5 ºC100,0 %964 hPa0,00 l/m2 315º NO 0,4 km/h2,9 km/h1535.5 Lux
Sat 03, 12:05 PM16,2 ºC100,0 %964 hPa0,00 l/m2 337,5º NNO 5,4 km/h9,5 km/h1535.5 Lux
Sat 03, 12:10 PM15,1 ºC100,0 %964 hPa0,00 l/m2 0º N 0,9 km/h6,7 km/h1670.6 Lux
Sat 03, 12:15 PM16,8 ºC100,0 %964 hPa0,00 l/m2 0º N 0,0 km/h0,3 km/h1473.8 Lux
Sat 03, 12:20 PM16,6 ºC100,0 %964 hPa0,00 l/m2 0º N 0,0 km/h0,0 km/h1473.8 Lux
Sat 03, 12:25 PM17,2 ºC91,0 %964 hPa0,00 l/m2 0º N 0,0 km/h0,0 km/h1601 Lux
Sat 03, 12:30 PM17,2 ºC82,8 %964 hPa0,00 l/m2 337,5º NNO 2,8 km/h8,1 km/h1744.7 Lux
Sat 03, 12:35 PM16,1 ºC89,4 %964 hPa0,00 l/m2 337,5º NNO 2,8 km/h9,3 km/h1744.7 Lux
Sat 03, 12:40 PM16,1 ºC88,4 %964 hPa0,00 l/m2 67,5º ENE 0,3 km/h3,5 km/h1744.7 Lux
Sat 03, 12:45 PM17,8 ºC84,3 %964 hPa0,00 l/m2 0º N 1,4 km/h8,7 km/h1535.5 Lux
Sat 03, 12:50 PM17,8 ºC84,5 %964 hPa0,00 l/m2 337,5º NNO 0,7 km/h4,0 km/h1670.6 Lux
Sat 03, 12:55 PM18,0 ºC82,1 %964 hPa0,00 l/m2 337,5º NNO 3,6 km/h9,0 km/h1601 Lux
Sat 03, 01:00 PM17,4 ºC87,7 %964 hPa0,00 l/m2 337,5º NNO 3,4 km/h10,7 km/h1473.8 Lux
Sat 03, 01:05 PM17,1 ºC82,6 %964 hPa0,00 l/m2 45º NE 1,0 km/h5,2 km/h1535.5 Lux
Sat 03, 01:10 PM16,9 ºC89,4 %963 hPa0,00 l/m2 337,5º NNO 1,0 km/h6,4 km/h1670.6 Lux
Sat 03, 01:15 PM17,7 ºC82,3 %963 hPa0,00 l/m2 315º NO 4,1 km/h8,4 km/h1473.8 Lux
Sat 03, 01:20 PM16,8 ºC87,2 %963 hPa0,00 l/m2 337,5º NNO 3,7 km/h10,1 km/h1823.7 Lux
Sat 03, 01:25 PM17,8 ºC79,4 %963 hPa0,00 l/m2 337,5º NNO 4,1 km/h15,3 km/h1823.7 Lux
Sat 03, 01:30 PM18,1 ºC76,7 %963 hPa0,00 l/m2 337,5º NNO 0,7 km/h6,9 km/h1670.6 Lux
Sat 03, 01:35 PM19,3 ºC71,7 %963 hPa0,00 l/m2 45º NE 2,9 km/h16,5 km/h1670.6 Lux
Sat 03, 01:40 PM18,5 ºC82,6 %963 hPa0,00 l/m2 337,5º NNO 4,6 km/h15,0 km/h1670.6 Lux
Sat 03, 01:45 PM18,7 ºC73,6 %963 hPa0,00 l/m2 337,5º NNO 2,8 km/h9,3 km/h1601 Lux
Sat 03, 01:50 PM18,6 ºC74,0 %963 hPa0,00 l/m2 337,5º NNO 6,2 km/h15,0 km/h1360.7 Lux
Sat 03, 01:55 PM18,0 ºC70,8 %963 hPa0,00 l/m2 45º NE 1,3 km/h6,4 km/h1535.5 Lux
Sat 03, 02:00 PM20,1 ºC61,5 %963 hPa0,00 l/m2 45º NE 0,3 km/h0,9 km/h1601 Lux
Sat 03, 02:05 PM20,0 ºC70,0 %963 hPa0,00 l/m2 67,5º ENE 4,1 km/h16,2 km/h1415.6 Lux
Sat 03, 02:10 PM19,5 ºC69,1 %963 hPa0,00 l/m2 225º SO 0,8 km/h5,2 km/h1360.7 Lux
Sat 03, 02:15 PM19,9 ºC61,4 %963 hPa0,00 l/m2 0º N 0,7 km/h2,6 km/h1127.5 Lux
Sat 03, 02:20 PM19,8 ºC59,1 %962 hPa0,00 l/m2 337,5º NNO 3,8 km/h15,9 km/h1169.2 Lux
Sat 03, 02:25 PM18,6 ºC59,7 %963 hPa0,00 l/m2 337,5º NNO 8,9 km/h12,7 km/h1087.9 Lux
Sat 03, 02:30 PM18,7 ºC58,7 %962 hPa0,00 l/m2 337,5º NNO 3,1 km/h12,1 km/h1014.5 Lux
Sat 03, 02:35 PM20,1 ºC55,9 %962 hPa0,00 l/m2 135º SE 1,4 km/h9,3 km/h1169.2 Lux
Sat 03, 02:40 PM19,7 ºC55,1 %962 hPa0,00 l/m2 45º NE 0,1 km/h0,6 km/h1127.5 Lux
Sat 03, 02:45 PM19,9 ºC52,6 %962 hPa0,00 l/m2 0º N 0,3 km/h2,3 km/h1169.2 Lux
Sat 03, 02:50 PM19,4 ºC54,3 %962 hPa0,00 l/m2 337,5º NNO 3,1 km/h19,7 km/h1213.3 Lux
Sat 03, 02:55 PM19,5 ºC54,6 %962 hPa0,00 l/m2 45º NE 8,5 km/h14,1 km/h1050.3 Lux
Sat 03, 03:00 PM19,4 ºC57,9 %962 hPa0,00 l/m2 67,5º ENE 6,7 km/h13,9 km/h759.2 Lux
Sat 03, 03:05 PM19,2 ºC59,7 %962 hPa0,00 l/m2 45º NE 2,7 km/h16,2 km/h715.3 Lux
Sat 03, 03:10 PM18,9 ºC61,4 %962 hPa0,00 l/m2 337,5º NNO 0,3 km/h0,9 km/h832.8 Lux
Sat 03, 03:15 PM19,2 ºC64,7 %962 hPa0,00 l/m2 315º NO 3,7 km/h15,9 km/h715.3 Lux
Sat 03, 03:20 PM18,6 ºC63,7 %962 hPa0,00 l/m2 337,5º NNO 8,6 km/h16,2 km/h694.7 Lux
Sat 03, 03:25 PM18,5 ºC66,6 %962 hPa0,00 l/m2 337,5º NNO 4,5 km/h19,9 km/h782.6 Lux
Sat 03, 03:30 PM18,8 ºC65,4 %962 hPa0,00 l/m2 0º N 6,9 km/h13,3 km/h759.2 Lux
Sat 03, 03:35 PM18,8 ºC65,7 %962 hPa0,00 l/m2 45º NE 9,0 km/h16,8 km/h807.1 Lux
Sat 03, 03:40 PM18,5 ºC61,9 %962 hPa0,00 l/m2 45º NE 9,2 km/h16,8 km/h782.6 Lux
Sat 03, 03:45 PM18,7 ºC60,1 %962 hPa0,00 l/m2 337,5º NNO 4,9 km/h16,8 km/h759.2 Lux
Sat 03, 03:50 PM19,1 ºC58,2 %962 hPa0,00 l/m2 225º SO 6,5 km/h17,9 km/h807.1 Lux
Sat 03, 03:55 PM19,5 ºC56,2 %962 hPa0,00 l/m2 337,5º NNO 5,1 km/h13,9 km/h832.8 Lux
Sat 03, 04:00 PM19,4 ºC55,9 %962 hPa0,00 l/m2 337,5º NNO 8,9 km/h20,2 km/h736.7 Lux
Sat 03, 04:05 PM18,9 ºC56,4 %962 hPa0,00 l/m2 337,5º NNO 6,2 km/h15,6 km/h715.3 Lux
Sat 03, 04:10 PM18,4 ºC55,9 %962 hPa0,00 l/m2 337,5º NNO 9,0 km/h14,7 km/h807.1 Lux
Sat 03, 04:15 PM18,4 ºC56,1 %962 hPa0,00 l/m2 67,5º ENE 5,9 km/h13,3 km/h603.5 Lux
Sat 03, 04:20 PM19,0 ºC54,2 %962 hPa0,00 l/m2 337,5º NNO 5,3 km/h14,7 km/h620.3 Lux
Sat 03, 04:25 PM18,5 ºC52,7 %962 hPa0,00 l/m2 0º N 8,1 km/h13,3 km/h542.6 Lux
Sat 03, 04:30 PM18,2 ºC53,9 %962 hPa0,00 l/m2 135º SE 6,5 km/h19,9 km/h502.5 Lux
Sat 03, 04:35 PM18,5 ºC53,4 %962 hPa0,00 l/m2 45º NE 0,5 km/h2,6 km/h542.6 Lux
Sat 03, 04:40 PM18,7 ºC53,2 %962 hPa0,00 l/m2 45º NE 3,6 km/h11,3 km/h637.8 Lux
Sat 03, 04:45 PM18,9 ºC52,9 %962 hPa0,00 l/m2 67,5º ENE 3,0 km/h8,1 km/h603.5 Lux
Sat 03, 04:50 PM19,3 ºC51,6 %962 hPa0,00 l/m2 45º NE 0,9 km/h5,8 km/h571.9 Lux
Sat 03, 04:55 PM19,0 ºC52,7 %962 hPa0,00 l/m2 45º NE 1,3 km/h6,1 km/h362.5 Lux
Sat 03, 05:00 PM19,2 ºC48,8 %962 hPa0,00 l/m2 0º N 0,7 km/h4,6 km/h434.3 Lux
Sat 03, 05:05 PM18,7 ºC51,6 %962 hPa0,00 l/m2 157,5º SSE 1,2 km/h6,4 km/h455.5 Lux
Sat 03, 05:10 PM18,7 ºC54,3 %962 hPa0,00 l/m2 337,5º NNO 0,6 km/h4,0 km/h455.5 Lux
Sat 03, 05:15 PM18,9 ºC59,6 %962 hPa0,00 l/m2 45º NE 0,1 km/h0,9 km/h313 Lux
Sat 03, 05:20 PM19,2 ºC59,6 %962 hPa0,00 l/m2 45º NE 0,8 km/h7,5 km/h168.8 Lux
Sat 03, 05:25 PM17,7 ºC64,1 %962 hPa0,00 l/m2 67,5º ENE 0,5 km/h1,7 km/h166.2 Lux
Sat 03, 05:30 PM17,3 ºC65,5 %962 hPa0,00 l/m2 67,5º ENE 0,3 km/h0,6 km/h182.5 Lux
Sat 03, 05:35 PM17,1 ºC67,4 %962 hPa0,00 l/m2 67,5º ENE 0,3 km/h0,9 km/h887.7 Lux
Sat 03, 05:40 PM16,9 ºC66,7 %962 hPa0,00 l/m2 45º NE 0,5 km/h4,3 km/h151.9 Lux
Sat 03, 05:45 PM16,9 ºC65,7 %962 hPa0,00 l/m2 45º NE 0,0 km/h0,3 km/h3368.1 Lux
Sat 03, 05:50 PM16,6 ºC72,2 %962 hPa0,00 l/m2 0º N 0,1 km/h0,9 km/h736.7 Lux
Sat 03, 05:55 PM16,5 ºC75,7 %962 hPa0,00 l/m2 0º N 0,0 km/h0,0 km/h42.8 Lux
Sat 03, 06:00 PM16,1 ºC79,1 %962 hPa0,00 l/m2 0º N 0,0 km/h0,0 km/h30.2 Lux
Sat 03, 06:05 PM15,9 ºC82,1 %962 hPa0,00 l/m2 45º NE 0,0 km/h0,0 km/h22.8 Lux
Sat 03, 06:10 PM15,7 ºC84,9 %962 hPa0,00 l/m2 45º NE 0,0 km/h0,0 km/h18.2 Lux
Sat 03, 06:15 PM15,3 ºC88,6 %962 hPa0,00 l/m2 112.5º ESE 0,0 km/h0,0 km/h12.8 Lux
Sat 03, 06:20 PM15,0 ºC89,5 %962 hPa0,00 l/m2 0º N 0,0 km/h0,0 km/h8.8 Lux
Sat 03, 06:25 PM15,0 ºC87,6 %962 hPa0,00 l/m2 337,5º NNO 0,9 km/h4,0 km/h6.2 Lux
Sat 03, 06:30 PM15,1 ºC84,0 %962 hPa0,00 l/m2 45º NE 0,4 km/h4,0 km/h4.4 Lux
Sat 03, 06:35 PM14,9 ºC84,9 %962 hPa0,00 l/m2 45º NE 0,4 km/h3,5 km/h3.2 Lux
Sat 03, 06:40 PM14,8 ºC78,8 %962 hPa0,00 l/m2 0º N 0,0 km/h0,3 km/h2.6 Lux
Sat 03, 06:45 PM14,8 ºC78,8 %962 hPa0,00 l/m2 0º N 0,0 km/h0,0 km/h2.4 Lux
Sat 03, 06:50 PM14,4 ºC81,9 %962 hPa0,00 l/m2 225º SO 0,0 km/h0,0 km/h2.4 Lux
Sat 03, 06:55 PM14,6 ºC83,7 %962 hPa0,00 l/m2 0º N 1,2 km/h5,2 km/h2.3 Lux
Sat 03, 07:00 PM14,8 ºC81,1 %962 hPa0,00 l/m2 337,5º NNO 0,0 km/h0,0 km/h2.3 Lux
Sat 03, 07:05 PM14,3 ºC85,8 %962 hPa0,00 l/m2 157,5º SSE 0,0 km/h0,0 km/h2.3 Lux
Sat 03, 07:10 PM14,2 ºC86,5 %962 hPa0,00 l/m2 157,5º SSE 0,0 km/h0,0 km/h2.3 Lux
Sat 03, 07:15 PM14,1 ºC86,6 %962 hPa0,00 l/m2 157,5º SSE 0,0 km/h0,0 km/h2.3 Lux
Sat 03, 07:20 PM13,9 ºC86,3 %962 hPa0,00 l/m2 157,5º SSE 0,0 km/h0,0 km/h2.3 Lux
Sat 03, 07:25 PM13,8 ºC86,1 %962 hPa0,00 l/m2 157,5º SSE 0,0 km/h0,0 km/h2.4 Lux
Sat 03, 07:30 PM13,6 ºC87,4 %962 hPa0,00 l/m2 157,5º SSE 0,0 km/h0,0 km/h2.2 Lux
Sat 03, 07:35 PM13,7 ºC88,5 %962 hPa0,00 l/m2 157,5º SSE 0,0 km/h0,0 km/h2.2 Lux
Sat 03, 07:40 PM13,9 ºC86,5 %962 hPa0,00 l/m2 157,5º SSE 0,0 km/h0,0 km/h2.2 Lux
Sat 03, 07:45 PM13,5 ºC89,6 %962 hPa0,00 l/m2 45º NE 0,0 km/h0,0 km/h2.3 Lux
Sat 03, 07:50 PM13,6 ºC90,7 %962 hPa0,00 l/m2 67,5º ENE 0,0 km/h0,0 km/h2.3 Lux
Sat 03, 07:55 PM13,9 ºC87,7 %962 hPa0,00 l/m2 45º NE 0,0 km/h0,3 km/h2.2 Lux
Sat 03, 08:00 PM13,6 ºC90,8 %962 hPa0,00 l/m2 0º N 0,0 km/h0,0 km/h2.3 Lux
Sat 03, 08:05 PM13,1 ºC96,4 %962 hPa0,00 l/m2 0º N 0,0 km/h0,0 km/h2.2 Lux
Sat 03, 08:10 PM12,9 ºC98,6 %962 hPa0,00 l/m2 135º SE 0,0 km/h0,0 km/h2.2 Lux
Sat 03, 08:15 PM13,2 ºC97,0 %962 hPa0,00 l/m2 157,5º SSE 0,0 km/h0,0 km/h2.2 Lux
Sat 03, 08:20 PM13,1 ºC97,2 %962 hPa0,00 l/m2 202,5º SSO 0,0 km/h0,0 km/h2.2 Lux
Sat 03, 08:25 PM13,3 ºC96,5 %962 hPa0,00 l/m2 0º N 0,0 km/h0,0 km/h2.2 Lux
Sat 03, 08:30 PM13,0 ºC98,1 %962 hPa0,00 l/m2 67,5º ENE 0,0 km/h0,3 km/h2.2 Lux
Sat 03, 08:35 PM13,1 ºC97,8 %962 hPa0,00 l/m2 45º NE 0,2 km/h1,2 km/h2.3 Lux
Sat 03, 08:40 PM12,9 ºC98,3 %962 hPa0,00 l/m2 45º NE 0,4 km/h2,3 km/h2.2 Lux
Sat 03, 08:45 PM12,7 ºC100,0 %962 hPa0,00 l/m2 112.5º ESE 0,4 km/h2,0 km/h2.4 Lux
Sat 03, 08:50 PM12,5 ºC100,0 %962 hPa0,00 l/m2 45º NE 0,1 km/h0,6 km/h2.2 Lux
Sat 03, 08:55 PM12,4 ºC100,0 %962 hPa0,00 l/m2 45º NE 0,1 km/h0,6 km/h2.2 Lux
Sat 03, 09:00 PM12,4 ºC100,0 %962 hPa0,00 l/m2 337,5º NNO 0,2 km/h0,6 km/h2.2 Lux
Sat 03, 09:05 PM12,3 ºC100,0 %962 hPa0,00 l/m2 0º N 0,3 km/h2,0 km/h2.3 Lux
Sat 03, 09:10 PM12,2 ºC100,0 %962 hPa0,00 l/m2 0º N 0,0 km/h0,0 km/h2.3 Lux
Sat 03, 09:15 PM12,1 ºC100,0 %962 hPa0,00 l/m2 0º N 0,0 km/h0,0 km/h2.3 Lux
Sat 03, 09:20 PM12,0 ºC100,0 %962 hPa0,00 l/m2 45º NE 0,0 km/h0,0 km/h2.2 Lux
Sat 03, 09:25 PM12,0 ºC100,0 %962 hPa0,00 l/m2 45º NE 0,0 km/h0,0 km/h2.3 Lux
Sat 03, 09:30 PM12,1 ºC100,0 %962 hPa0,00 l/m2 45º NE 0,0 km/h0,0 km/h2.2 Lux
Sat 03, 09:35 PM12,1 ºC100,0 %962 hPa0,00 l/m2 45º NE 0,0 km/h0,0 km/h2.3 Lux
Sat 03, 09:40 PM12,0 ºC100,0 %962 hPa0,00 l/m2 45º NE 0,0 km/h0,0 km/h2.2 Lux
Sat 03, 09:45 PM11,7 ºC100,0 %962 hPa0,00 l/m2 45º NE 0,0 km/h0,0 km/h2.3 Lux
Sat 03, 09:50 PM12,0 ºC100,0 %962 hPa0,00 l/m2 45º NE 0,0 km/h0,0 km/h2.1 Lux
Sat 03, 09:55 PM11,9 ºC100,0 %962 hPa0,00 l/m2 45º NE 0,0 km/h0,0 km/h2.2 Lux
Sat 03, 10:00 PM12,1 ºC100,0 %962 hPa0,00 l/m2 45º NE 0,0 km/h0,0 km/h2.1 Lux
Sat 03, 10:05 PM11,9 ºC100,0 %962 hPa0,00 l/m2 67,5º ENE 0,0 km/h0,0 km/h2.3 Lux
Sat 03, 10:10 PM11,8 ºC100,0 %962 hPa0,00 l/m2 135º SE 0,0 km/h0,0 km/h2.3 Lux
Sat 03, 10:15 PM12,2 ºC100,0 %962 hPa0,00 l/m2 45º NE 0,0 km/h0,0 km/h2.2 Lux
Sat 03, 10:20 PM11,6 ºC100,0 %962 hPa0,00 l/m2 45º NE 1,0 km/h4,0 km/h2.2 Lux
Sat 03, 10:25 PM11,7 ºC100,0 %962 hPa0,00 l/m2 0º N 0,5 km/h2,0 km/h2.2 Lux
Sat 03, 10:30 PM11,6 ºC100,0 %962 hPa0,00 l/m2 0º N 0,5 km/h2,0 km/h2.2 Lux
Sat 03, 10:35 PM11,4 ºC100,0 %962 hPa0,00 l/m2 45º NE 0,4 km/h2,3 km/h2.3 Lux
Sat 03, 10:40 PM11,5 ºC100,0 %962 hPa0,00 l/m2 0º N 0,1 km/h0,6 km/h2.3 Lux
Sat 03, 10:45 PM11,5 ºC100,0 %962 hPa0,00 l/m2 45º NE 0,3 km/h2,3 km/h2.2 Lux
Sat 03, 10:50 PM11,6 ºC100,0 %962 hPa0,00 l/m2 45º NE 0,5 km/h2,9 km/h2.1 Lux
Sat 03, 10:55 PM11,7 ºC100,0 %962 hPa0,00 l/m2 0º N 0,1 km/h0,6 km/h2.4 Lux
Sat 03, 11:00 PM11,6 ºC100,0 %962 hPa0,00 l/m2 337,5º NNO 0,0 km/h0,0 km/h2.3 Lux
Sat 03, 11:05 PM11,5 ºC100,0 %962 hPa0,00 l/m2 157,5º SSE 0,0 km/h0,0 km/h2.1 Lux
Sat 03, 11:10 PM11,3 ºC100,0 %962 hPa0,00 l/m2 67,5º ENE 0,0 km/h0,3 km/h2.3 Lux
Sat 03, 11:15 PM11,4 ºC100,0 %962 hPa0,00 l/m2 0º N 0,0 km/h0,0 km/h2.3 Lux
Sat 03, 11:20 PM11,0 ºC100,0 %962 hPa0,00 l/m2 67,5º ENE 0,0 km/h0,0 km/h2.1 Lux
Sat 03, 11:25 PM10,7 ºC100,0 %962 hPa0,00 l/m2 67,5º ENE 0,0 km/h0,0 km/h2.3 Lux
Sat 03, 11:30 PM10,6 ºC100,0 %962 hPa0,00 l/m2 45º NE 0,0 km/h0,0 km/h2.3 Lux
Sat 03, 11:35 PM10,9 ºC100,0 %962 hPa0,00 l/m2 0º N 0,0 km/h0,0 km/h2.3 Lux
Sat 03, 11:40 PM10,9 ºC100,0 %962 hPa0,00 l/m2 45º NE 0,0 km/h0,0 km/h2.3 Lux
Sat 03, 11:45 PM10,9 ºC100,0 %962 hPa0,00 l/m2 0º N 0,0 km/h0,3 km/h2.3 Lux
Sat 03, 11:50 PM10,6 ºC100,0 %962 hPa0,00 l/m2 67,5º ENE 0,4 km/h3,5 km/h2.2 Lux
Sat 03, 11:55 PM10,5 ºC100,0 %962 hPa0,00 l/m2 45º NE 1,2 km/h3,5 km/h2.1 Lux
Sun 04, 12:00 AM10,6 ºC100,0 %962 hPa0,00 l/m2 45º NE 0,8 km/h4,0 km/h2.3 Lux
Sun 04, 12:05 AM10,7 ºC100,0 %962 hPa0,00 l/m2 45º NE 0,6 km/h4,6 km/h2.2 Lux
Sun 04, 12:10 AM10,6 ºC100,0 %962 hPa0,00 l/m2 0º N 0,1 km/h0,6 km/h2.3 Lux
Sun 04, 12:15 AM10,6 ºC100,0 %962 hPa0,00 l/m2 45º NE 0,4 km/h2,6 km/h2.2 Lux
Sun 04, 12:20 AM10,6 ºC100,0 %962 hPa0,00 l/m2 67,5º ENE 0,8 km/h2,3 km/h2.1 Lux
Sun 04, 12:25 AM10,6 ºC100,0 %962 hPa0,00 l/m2 0º N 0,0 km/h0,3 km/h2.3 Lux
Sun 04, 12:30 AM10,3 ºC100,0 %962 hPa0,00 l/m2 315º NO 0,0 km/h0,0 km/h2.4 Lux
Sun 04, 12:35 AM10,3 ºC100,0 %962 hPa0,00 l/m2 0º N 0,0 km/h0,6 km/h2.4 Lux
Sun 04, 12:40 AM10,3 ºC100,0 %962 hPa0,00 l/m2 45º NE 0,9 km/h2,3 km/h2.1 Lux
Sun 04, 12:45 AM10,3 ºC100,0 %961 hPa0,00 l/m2 67,5º ENE 0,4 km/h2,0 km/h2.2 Lux
Sun 04, 12:50 AM10,3 ºC100,0 %962 hPa0,00 l/m2 0º N 0,1 km/h0,9 km/h2.3 Lux
Sun 04, 12:55 AM10,3 ºC100,0 %962 hPa0,00 l/m2 45º NE 1,2 km/h4,6 km/h2.1 Lux
Sun 04, 01:00 AM10,4 ºC100,0 %961 hPa0,00 l/m2 45º NE 1,3 km/h5,2 km/h2.4 Lux
Sun 04, 01:05 AM10,4 ºC100,0 %961 hPa0,00 l/m2 45º NE 0,7 km/h3,2 km/h2.2 Lux
Sun 04, 01:10 AM10,3 ºC100,0 %961 hPa0,00 l/m2 0º N 0,0 km/h0,0 km/h2.2 Lux
Sun 04, 01:15 AM10,3 ºC100,0 %961 hPa0,00 l/m2 337,5º NNO 0,0 km/h0,0 km/h2.3 Lux
Sun 04, 01:20 AM10,3 ºC99,6 %961 hPa0,00 l/m2 0º N 0,0 km/h0,0 km/h2.2 Lux
Sun 04, 01:25 AM10,3 ºC98,6 %961 hPa0,00 l/m2 0º N 0,0 km/h0,0 km/h2.2 Lux
Sun 04, 01:30 AM10,5 ºC96,3 %961 hPa0,00 l/m2 45º NE 0,0 km/h0,3 km/h2.3 Lux
Sun 04, 01:35 AM10,6 ºC93,9 %961 hPa0,00 l/m2 0º N 0,1 km/h0,6 km/h2.4 Lux
Sun 04, 01:40 AM10,4 ºC94,4 %961 hPa0,00 l/m2 337,5º NNO 0,0 km/h0,3 km/h2.2 Lux
Sun 04, 01:45 AM10,1 ºC96,8 %961 hPa0,00 l/m2 0º N 0,0 km/h0,3 km/h2.1 Lux
Sun 04, 01:50 AM10,1 ºC96,4 %961 hPa0,00 l/m2 0º N 0,0 km/h0,0 km/h2.3 Lux
Sun 04, 01:55 AM10,0 ºC97,0 %961 hPa0,00 l/m2 45º NE 0,0 km/h0,3 km/h2.3 Lux
Sun 04, 02:00 AM9,9 ºC97,1 %961 hPa0,00 l/m2 45º NE 0,1 km/h1,7 km/h2.3 Lux
Sun 04, 02:05 AM10,3 ºC92,2 %961 hPa0,00 l/m2 0º N 0,6 km/h2,3 km/h2.3 Lux
Sun 04, 02:10 AM10,3 ºC90,2 %961 hPa0,00 l/m2 45º NE 0,6 km/h2,6 km/h2.1 Lux
Sun 04, 02:15 AM10,3 ºC89,7 %961 hPa0,00 l/m2 45º NE 0,5 km/h4,0 km/h2.4 Lux
Sun 04, 02:20 AM10,1 ºC91,3 %960 hPa0,00 l/m2 112.5º ESE 0,4 km/h2,6 km/h2.2 Lux
Sun 04, 02:25 AM10,0 ºC91,7 %961 hPa0,00 l/m2 45º NE 0,1 km/h0,9 km/h2.3 Lux
Sun 04, 02:30 AM10,1 ºC90,8 %961 hPa0,00 l/m2 0º N 0,3 km/h2,0 km/h2.2 Lux
Sun 04, 02:35 AM10,2 ºC89,9 %960 hPa0,00 l/m2 45º NE 0,2 km/h2,3 km/h2.3 Lux
Sun 04, 02:40 AM10,1 ºC89,5 %960 hPa0,00 l/m2 337,5º NNO 0,6 km/h3,2 km/h2.4 Lux
Sun 04, 02:45 AM10,1 ºC88,0 %960 hPa0,00 l/m2 45º NE 0,5 km/h2,3 km/h2.4 Lux
Sun 04, 02:50 AM10,0 ºC87,9 %960 hPa0,00 l/m2 45º NE 0,2 km/h1,2 km/h2.2 Lux
Sun 04, 02:55 AM10,0 ºC87,1 %960 hPa0,00 l/m2 0º N 0,0 km/h0,3 km/h2.2 Lux
Sun 04, 03:00 AM10,0 ºC86,9 %960 hPa0,00 l/m2 0º N 0,0 km/h0,0 km/h2.3 Lux
Sun 04, 03:05 AM10,0 ºC85,5 %960 hPa0,00 l/m2 67,5º ENE 0,1 km/h0,9 km/h2.2 Lux
Sun 04, 03:10 AM10,0 ºC84,8 %960 hPa0,00 l/m2 45º NE 0,4 km/h2,9 km/h2.3 Lux
Sun 04, 03:15 AM10,1 ºC83,4 %960 hPa0,00 l/m2 337,5º NNO 0,1 km/h1,7 km/h2.3 Lux
Sun 04, 03:20 AM10,1 ºC82,8 %960 hPa0,00 l/m2 337,5º NNO 0,0 km/h0,0 km/h2.1 Lux
Sun 04, 03:25 AM10,1 ºC82,7 %960 hPa0,00 l/m2 45º NE 0,4 km/h2,0 km/h2.2 Lux
Sun 04, 03:30 AM10,1 ºC82,2 %960 hPa0,00 l/m2 45º NE 1,9 km/h4,6 km/h2.3 Lux
Sun 04, 03:35 AM10,1 ºC81,0 %960 hPa0,00 l/m2 0º N 1,2 km/h4,9 km/h2.4 Lux
Sun 04, 03:40 AM10,0 ºC80,9 %960 hPa0,00 l/m2 337,5º NNO 0,0 km/h0,3 km/h2.3 Lux
Sun 04, 03:45 AM9,8 ºC82,4 %960 hPa0,00 l/m2 45º NE 0,4 km/h2,0 km/h2.3 Lux
Sun 04, 03:50 AM10,0 ºC80,7 %960 hPa0,00 l/m2 45º NE 0,5 km/h2,6 km/h2.1 Lux
Sun 04, 03:55 AM10,1 ºC80,0 %960 hPa0,00 l/m2 45º NE 0,0 km/h0,0 km/h2.2 Lux
Sun 04, 04:00 AM9,9 ºC80,2 %960 hPa0,00 l/m2 45º NE 0,0 km/h0,0 km/h2.3 Lux
Sun 04, 04:05 AM10,0 ºC79,7 %960 hPa0,00 l/m2 45º NE 1,0 km/h4,0 km/h2.3 Lux
Sun 04, 04:10 AM10,3 ºC75,7 %960 hPa0,00 l/m2 45º NE 0,8 km/h3,5 km/h2.1 Lux
Sun 04, 04:15 AM10,4 ºC75,5 %960 hPa0,00 l/m2 0º N 0,1 km/h0,9 km/h2.3 Lux
Sun 04, 04:20 AM10,1 ºC80,1 %960 hPa0,00 l/m2 0º N 0,0 km/h0,0 km/h2.3 Lux
Sun 04, 04:25 AM9,5 ºC83,1 %960 hPa0,00 l/m2 0º N 0,0 km/h0,0 km/h2.2 Lux
Sun 04, 04:30 AM9,1 ºC85,1 %960 hPa0,00 l/m2 0º N 0,0 km/h0,0 km/h2.3 Lux
Sun 04, 04:35 AM8,8 ºC89,1 %960 hPa0,00 l/m2 337,5º NNO 0,0 km/h0,0 km/h2.2 Lux
Sun 04, 04:40 AM9,2 ºC84,4 %960 hPa0,00 l/m2 45º NE 0,0 km/h0,3 km/h2.3 Lux
Sun 04, 04:45 AM9,4 ºC83,1 %960 hPa0,00 l/m2 0º N 0,0 km/h0,0 km/h2.2 Lux
Sun 04, 04:50 AM9,4 ºC83,2 %960 hPa0,00 l/m2 45º NE 0,0 km/h0,0 km/h2.1 Lux
Sun 04, 04:55 AM8,9 ºC88,5 %959 hPa0,00 l/m2 45º NE 0,0 km/h0,0 km/h2.2 Lux
Sun 04, 05:00 AM9,1 ºC86,8 %959 hPa0,00 l/m2 45º NE 0,2 km/h1,4 km/h2.2 Lux
Sun 04, 05:05 AM9,6 ºC83,0 %959 hPa0,00 l/m2 45º NE 0,3 km/h1,4 km/h2.2 Lux
Sun 04, 05:10 AM9,8 ºC81,2 %959 hPa0,00 l/m2 45º NE 0,1 km/h0,6 km/h2.3 Lux
Sun 04, 05:15 AM9,8 ºC80,4 %959 hPa0,00 l/m2 0º N 0,1 km/h1,2 km/h2.3 Lux
Sun 04, 05:20 AM9,9 ºC80,3 %959 hPa0,00 l/m2 0º N 0,0 km/h0,3 km/h2.3 Lux
Sun 04, 05:25 AM10,0 ºC81,0 %959 hPa0,00 l/m2 0º N 0,1 km/h0,6 km/h2.2 Lux
Sun 04, 05:30 AM9,8 ºC83,1 %959 hPa0,00 l/m2 225º SO 0,0 km/h0,3 km/h2.3 Lux
Sun 04, 05:35 AM10,0 ºC82,4 %959 hPa0,00 l/m2 0º N 0,0 km/h0,6 km/h2.2 Lux
Sun 04, 05:40 AM9,7 ºC84,6 %959 hPa0,00 l/m2 0º N 0,0 km/h0,0 km/h2.3 Lux
Sun 04, 05:45 AM9,3 ºC88,4 %959 hPa0,00 l/m2 67,5º ENE 0,0 km/h0,0 km/h2.2 Lux
Sun 04, 05:50 AM9,4 ºC89,6 %959 hPa0,00 l/m2 337,5º NNO 0,0 km/h0,0 km/h2.3 Lux
Sun 04, 05:55 AM9,1 ºC91,9 %959 hPa0,00 l/m2 0º N 0,0 km/h0,0 km/h2.1 Lux
Sun 04, 06:00 AM9,1 ºC91,6 %959 hPa0,00 l/m2 0º N 0,0 km/h0,0 km/h2.3 Lux
Sun 04, 06:05 AM9,4 ºC90,3 %959 hPa0,00 l/m2 45º NE 0,0 km/h0,0 km/h2.4 Lux
Sun 04, 06:10 AM9,7 ºC88,5 %959 hPa0,00 l/m2 157,5º SSE 0,0 km/h0,0 km/h2.4 Lux
Sun 04, 06:15 AM9,5 ºC90,9 %959 hPa0,00 l/m2 202,5º SSO 0,0 km/h0,0 km/h2.3 Lux
Sun 04, 06:20 AM9,3 ºC92,0 %959 hPa0,00 l/m2 337,5º NNO 0,0 km/h0,0 km/h2.3 Lux
Sun 04, 06:25 AM9,6 ºC90,5 %959 hPa0,00 l/m2 247,5º OSO 0,0 km/h0,0 km/h2.2 Lux
Sun 04, 06:30 AM9,4 ºC92,7 %959 hPa0,00 l/m2 225º SO 0,0 km/h0,0 km/h2.3 Lux
Sun 04, 06:35 AM9,3 ºC94,2 %959 hPa0,00 l/m2 0º N 0,0 km/h0,0 km/h2.2 Lux
Sun 04, 06:40 AM9,1 ºC96,1 %959 hPa0,00 l/m2 45º NE 0,0 km/h0,0 km/h2.3 Lux
Sun 04, 06:45 AM9,5 ºC94,4 %959 hPa0,00 l/m2 45º NE 0,0 km/h0,0 km/h2.3 Lux
Sun 04, 06:50 AM10,0 ºC88,2 %959 hPa0,00 l/m2 67,5º ENE 0,0 km/h0,0 km/h2.3 Lux
Sun 04, 06:55 AM10,0 ºC87,3 %959 hPa0,00 l/m2 247,5º OSO 0,0 km/h0,0 km/h2.1 Lux
Sun 04, 07:00 AM9,9 ºC90,5 %959 hPa0,00 l/m2 45º NE 0,0 km/h0,0 km/h2.4 Lux
Sun 04, 07:05 AM9,7 ºC93,7 %959 hPa0,00 l/m2 45º NE 0,0 km/h0,0 km/h2.2 Lux
Sun 04, 07:10 AM9,5 ºC96,0 %959 hPa0,00 l/m2 45º NE 0,0 km/h0,0 km/h2.3 Lux
Sun 04, 07:15 AM9,2 ºC99,6 %959 hPa0,00 l/m2 0º N 0,0 km/h0,0 km/h2.2 Lux
Sun 04, 07:20 AM9,1 ºC100,0 %959 hPa0,00 l/m2 0º N 0,0 km/h0,3 km/h2.5 Lux
Sun 04, 07:25 AM8,9 ºC100,0 %959 hPa0,00 l/m2 45º NE 0,0 km/h0,0 km/h2.6 Lux
Sun 04, 07:30 AM9,0 ºC100,0 %959 hPa0,00 l/m2 45º NE 0,1 km/h0,3 km/h3.2 Lux
Sun 04, 07:35 AM9,2 ºC100,0 %959 hPa0,00 l/m2 0º N 0,0 km/h0,3 km/h4.2 Lux
Sun 04, 07:40 AM9,0 ºC100,0 %959 hPa0,00 l/m2 45º NE 0,0 km/h0,0 km/h6.3 Lux
Sun 04, 07:45 AM8,9 ºC100,0 %959 hPa0,00 l/m2 0º N 0,0 km/h0,0 km/h10.3 Lux
Sun 04, 07:50 AM9,0 ºC100,0 %959 hPa0,00 l/m2 0º N 0,0 km/h0,0 km/h14.3 Lux
Sun 04, 07:55 AM9,4 ºC100,0 %959 hPa0,00 l/m2 45º NE 0,0 km/h0,0 km/h19 Lux
Sun 04, 08:00 AM9,3 ºC100,0 %959 hPa0,00 l/m2 45º NE 0,0 km/h0,0 km/h25.5 Lux
Sun 04, 08:05 AM9,2 ºC100,0 %959 hPa0,00 l/m2 45º NE 0,0 km/h0,0 km/h32.7 Lux
Sun 04, 08:10 AM9,3 ºC100,0 %960 hPa0,00 l/m2 202,5º SSO 0,0 km/h0,0 km/h40.4 Lux
Sun 04, 08:15 AM9,4 ºC100,0 %959 hPa0,00 l/m2 45º NE 0,0 km/h0,0 km/h47.8 Lux
Sun 04, 08:20 AM9,5 ºC100,0 %960 hPa0,00 l/m2 45º NE 0,0 km/h0,0 km/h54.7 Lux
Sun 04, 08:25 AM9,3 ºC100,0 %960 hPa0,00 l/m2 45º NE 0,0 km/h0,3 km/h63.2 Lux
Sun 04, 08:30 AM9,2 ºC100,0 %960 hPa0,00 l/m2 0º N 0,3 km/h2,3 km/h80.4 Lux
Sun 04, 08:35 AM9,4 ºC100,0 %960 hPa0,00 l/m2 45º NE 0,2 km/h0,6 km/h96.7 Lux
Sun 04, 08:40 AM9,5 ºC100,0 %960 hPa0,00 l/m2 45º NE 0,7 km/h2,3 km/h102.8 Lux
Sun 04, 08:45 AM9,8 ºC100,0 %960 hPa0,00 l/m2 45º NE 0,5 km/h2,3 km/h112.3 Lux
Sun 04, 08:50 AM10,1 ºC100,0 %960 hPa0,00 l/m2 45º NE 0,5 km/h2,0 km/h131.7 Lux
Sun 04, 08:55 AM10,2 ºC100,0 %960 hPa0,00 l/m2 0º N 0,1 km/h0,6 km/h147.5 Lux
Sun 04, 09:00 AM10,2 ºC100,0 %960 hPa0,00 l/m2 0º N 0,0 km/h0,3 km/h151.9 Lux
Sun 04, 09:05 AM10,3 ºC100,0 %960 hPa0,00 l/m2 337,5º NNO 0,1 km/h0,9 km/h166.2 Lux
Sun 04, 09:10 AM10,5 ºC100,0 %960 hPa0,00 l/m2 337,5º NNO 0,0 km/h0,3 km/h168.8 Lux
Sun 04, 09:15 AM10,7 ºC100,0 %960 hPa0,00 l/m2 45º NE 0,3 km/h2,6 km/h179.7 Lux
Sun 04, 09:20 AM10,9 ºC100,0 %960 hPa0,00 l/m2 0º N 0,4 km/h3,2 km/h194.8 Lux
Sun 04, 09:25 AM11,1 ºC100,0 %960 hPa0,00 l/m2 0º N 0,2 km/h1,7 km/h215.4 Lux
Sun 04, 09:30 AM11,4 ºC100,0 %960 hPa0,00 l/m2 0º N 0,2 km/h1,4 km/h239.4 Lux
Sun 04, 09:35 AM11,6 ºC100,0 %960 hPa0,00 l/m2 0º N 0,0 km/h0,0 km/h257.6 Lux
Sun 04, 09:40 AM11,5 ºC100,0 %960 hPa0,00 l/m2 45º NE 0,0 km/h0,0 km/h262.5 Lux
Sun 04, 09:45 AM11,1 ºC100,0 %960 hPa0,00 l/m2 0º N 0,0 km/h0,0 km/h277.9 Lux
Sun 04, 09:50 AM11,4 ºC100,0 %960 hPa0,00 l/m2 45º NE 0,0 km/h0,0 km/h306.7 Lux
Sun 04, 09:55 AM11,5 ºC100,0 %960 hPa0,00 l/m2 45º NE 0,0 km/h0,0 km/h267.5 Lux
Sun 04, 10:00 AM11,8 ºC100,0 %960 hPa0,00 l/m2 0º N 0,0 km/h0,0 km/h347.3 Lux
Sun 04, 10:05 AM11,9 ºC100,0 %960 hPa0,00 l/m2 0º N 0,0 km/h0,0 km/h396.1 Lux
Sun 04, 10:10 AM12,0 ºC100,0 %960 hPa0,00 l/m2 0º N 0,0 km/h0,0 km/h434.3 Lux
Sun 04, 10:15 AM12,2 ºC100,0 %960 hPa0,00 l/m2 0º N 0,0 km/h0,0 km/h466.6 Lux
Sun 04, 10:20 AM12,3 ºC100,0 %960 hPa0,00 l/m2 0º N 0,0 km/h0,0 km/h478.2 Lux
Sun 04, 10:25 AM12,4 ºC100,0 %960 hPa0,00 l/m2 45º NE 0,0 km/h0,0 km/h502.5 Lux
Sun 04, 10:30 AM12,8 ºC100,0 %960 hPa0,00 l/m2 0º N 0,0 km/h0,0 km/h556.9 Lux
Sun 04, 10:35 AM13,3 ºC100,0 %960 hPa0,00 l/m2 0º N 0,0 km/h0,0 km/h715.3 Lux
Sun 04, 10:40 AM16,2 ºC87,7 %959 hPa0,00 l/m2 67,5º ENE 0,0 km/h0,0 km/h759.2 Lux
Sun 04, 10:45 AM18,0 ºC72,1 %959 hPa0,00 l/m2 0º N 0,0 km/h0,0 km/h832.8 Lux
Sun 04, 10:50 AM18,2 ºC70,4 %959 hPa0,00 l/m2 0º N 0,0 km/h0,3 km/h807.1 Lux
Sun 04, 10:55 AM17,1 ºC76,5 %959 hPa0,00 l/m2 0º N 0,0 km/h0,3 km/h917.2 Lux
Sun 04, 11:00 AM17,0 ºC76,7 %959 hPa0,00 l/m2 0º N 0,0 km/h0,0 km/h1014.5 Lux
Sun 04, 11:05 AM17,7 ºC71,5 %959 hPa0,00 l/m2 0º N 0,0 km/h0,3 km/h1127.5 Lux
Sun 04, 11:10 AM17,0 ºC74,8 %959 hPa0,00 l/m2 45º NE 0,0 km/h0,3 km/h1213.3 Lux
Sun 04, 11:15 AM17,7 ºC72,3 %959 hPa0,00 l/m2 0º N 0,0 km/h0,3 km/h1169.2 Lux
Sun 04, 11:20 AM18,3 ºC69,1 %959 hPa0,00 l/m2 202,5º SSO 0,0 km/h0,0 km/h1415.6 Lux
Sun 04, 11:25 AM17,4 ºC73,6 %959 hPa0,00 l/m2 337,5º NNO 0,0 km/h0,3 km/h1601 Lux
Sun 04, 11:30 AM17,4 ºC74,2 %959 hPa0,00 l/m2 0º N 0,1 km/h0,3 km/h1473.8 Lux
Sun 04, 11:35 AM17,0 ºC75,9 %959 hPa0,00 l/m2 337,5º NNO 1,5 km/h6,1 km/h1601 Lux
Sun 04, 11:40 AM16,4 ºC78,4 %959 hPa0,00 l/m2 67,5º ENE 2,2 km/h8,1 km/h1535.5 Lux
Sun 04, 11:45 AM16,8 ºC76,5 %959 hPa0,00 l/m2 337,5º NNO 0,0 km/h0,3 km/h1670.6 Lux
Sun 04, 11:50 AM17,6 ºC66,3 %959 hPa0,00 l/m2 135º SE 0,0 km/h0,3 km/h1601 Lux
Sun 04, 11:55 AM17,2 ºC69,6 %959 hPa0,00 l/m2 45º NE 0,0 km/h0,0 km/h1670.6 Lux
Sun 04, 12:00 PM19,3 ºC57,0 %959 hPa0,00 l/m2 315º NO 0,0 km/h0,3 km/h1670.6 Lux
Sun 04, 12:05 PM19,0 ºC56,0 %959 hPa0,00 l/m2 0º N 0,2 km/h3,5 km/h1535.5 Lux
Sun 04, 12:10 PM17,6 ºC55,7 %959 hPa0,00 l/m2 337,5º NNO 0,0 km/h0,3 km/h1744.7 Lux
Sun 04, 12:15 PM18,7 ºC47,8 %958 hPa0,00 l/m2 45º NE 1,3 km/h5,8 km/h1670.6 Lux
Sun 04, 12:20 PM18,4 ºC52,1 %958 hPa0,00 l/m2 67,5º ENE 0,0 km/h0,6 km/h1670.6 Lux
Sun 04, 12:25 PM19,2 ºC50,6 %958 hPa0,00 l/m2 67,5º ENE 0,0 km/h0,3 km/h1670.6 Lux
Sun 04, 12:30 PM19,7 ºC49,2 %958 hPa0,00 l/m2 0º N 0,2 km/h1,7 km/h1823.7 Lux
Sun 04, 12:35 PM19,5 ºC49,5 %958 hPa0,00 l/m2 67,5º ENE 0,1 km/h0,6 km/h1473.8 Lux
Sun 04, 12:40 PM18,9 ºC50,9 %958 hPa0,00 l/m2 45º NE 1,0 km/h7,2 km/h1601 Lux
Sun 04, 12:45 PM18,5 ºC53,2 %958 hPa0,00 l/m2 45º NE 0,9 km/h6,7 km/h1744.7 Lux
Sun 04, 12:50 PM18,8 ºC53,7 %958 hPa0,00 l/m2 45º NE 0,1 km/h1,2 km/h1744.7 Lux
Sun 04, 12:55 PM19,1 ºC53,8 %958 hPa0,00 l/m2 45º NE 0,6 km/h7,2 km/h1744.7 Lux
Sun 04, 01:00 PM19,3 ºC55,8 %958 hPa0,00 l/m2 157,5º SSE 0,4 km/h1,7 km/h1823.7 Lux
Sun 04, 01:05 PM19,0 ºC54,2 %958 hPa0,00 l/m2 45º NE 0,5 km/h4,0 km/h1744.7 Lux
Sun 04, 01:10 PM19,1 ºC54,4 %958 hPa0,00 l/m2 67,5º ENE 0,8 km/h3,5 km/h1823.7 Lux
Sun 04, 01:15 PM20,0 ºC52,3 %957 hPa0,00 l/m2 337,5º NNO 5,9 km/h13,3 km/h1823.7 Lux
Sun 04, 01:20 PM18,9 ºC57,1 %957 hPa0,00 l/m2 157,5º SSE 5,4 km/h16,2 km/h1744.7 Lux
Sun 04, 01:25 PM19,2 ºC55,4 %957 hPa0,00 l/m2 337,5º NNO 2,5 km/h10,1 km/h1908 Lux
Sun 04, 01:30 PM19,3 ºC57,8 %957 hPa0,00 l/m2 315º NO 0,8 km/h11,3 km/h1998 Lux
Sun 04, 01:35 PM19,4 ºC54,5 %957 hPa0,00 l/m2 337,5º NNO 0,0 km/h0,0 km/h1744.7 Lux
Sun 04, 01:40 PM19,5 ºC55,1 %957 hPa0,00 l/m2 135º SE 2,6 km/h10,1 km/h1823.7 Lux
Sun 04, 01:45 PM19,2 ºC56,0 %957 hPa0,00 l/m2 67,5º ENE 1,7 km/h6,7 km/h1670.6 Lux
Sun 04, 01:50 PM19,7 ºC55,5 %957 hPa0,00 l/m2 315º NO 1,5 km/h4,3 km/h1473.8 Lux
Sun 04, 01:55 PM19,6 ºC55,7 %957 hPa0,00 l/m2 90º E 5,0 km/h13,3 km/h1473.8 Lux
Sun 04, 02:00 PM19,0 ºC55,4 %957 hPa0,00 l/m2 315º NO 1,0 km/h5,8 km/h1473.8 Lux
Sun 04, 02:05 PM20,0 ºC53,9 %957 hPa0,00 l/m2 315º NO 1,5 km/h6,9 km/h1360.7 Lux
Sun 04, 02:10 PM19,1 ºC56,3 %956 hPa0,00 l/m2 67,5º ENE 0,0 km/h0,0 km/h1415.6 Lux
Sun 04, 02:15 PM19,8 ºC54,8 %956 hPa0,00 l/m2 337,5º NNO 2,2 km/h10,1 km/h1535.5 Lux
Sun 04, 02:20 PM19,7 ºC56,4 %956 hPa0,00 l/m2 45º NE 1,0 km/h6,4 km/h1360.7 Lux
Sun 04, 02:25 PM20,1 ºC56,3 %956 hPa0,00 l/m2 45º NE 0,6 km/h9,8 km/h1415.6 Lux
Sun 04, 02:30 PM21,1 ºC53,6 %956 hPa0,00 l/m2 315º NO 4,3 km/h17,9 km/h1360.7 Lux
Sun 04, 02:35 PM19,9 ºC56,2 %956 hPa0,00 l/m2 45º NE 5,5 km/h15,6 km/h1415.6 Lux
Sun 04, 02:40 PM19,4 ºC55,9 %956 hPa0,00 l/m2 247,5º OSO 1,9 km/h17,1 km/h1415.6 Lux
Sun 04, 02:45 PM19,5 ºC55,5 %956 hPa0,00 l/m2 337,5º NNO 4,2 km/h12,7 km/h948 Lux
Sun 04, 02:50 PM19,4 ºC57,4 %956 hPa0,00 l/m2 315º NO 2,3 km/h11,0 km/h887.7 Lux
Sun 04, 02:55 PM18,9 ºC58,7 %956 hPa0,00 l/m2 315º NO 6,4 km/h17,4 km/h917.2 Lux
Sun 04, 03:00 PM18,6 ºC60,3 %956 hPa0,00 l/m2 45º NE 9,7 km/h18,2 km/h782.6 Lux
Sun 04, 03:05 PM19,1 ºC58,7 %956 hPa0,00 l/m2 315º NO 12,3 km/h18,5 km/h759.2 Lux
Sun 04, 03:10 PM18,1 ºC62,2 %956 hPa0,00 l/m2 337,5º NNO 10,4 km/h17,9 km/h759.2 Lux
Sun 04, 03:15 PM18,4 ºC63,4 %956 hPa0,00 l/m2 337,5º NNO 3,3 km/h12,1 km/h694.7 Lux
Sun 04, 03:20 PM19,3 ºC62,0 %956 hPa0,00 l/m2 135º SE 5,6 km/h16,2 km/h466.6 Lux
Sun 04, 03:25 PM18,3 ºC72,5 %956 hPa0,00 l/m2 337,5º NNO 5,9 km/h11,6 km/h502.5 Lux
Sun 04, 03:30 PM18,0 ºC75,9 %956 hPa0,00 l/m2 135º SE 3,1 km/h10,4 km/h370.5 Lux
Sun 04, 03:35 PM17,9 ºC75,8 %956 hPa0,00 l/m2 157,5º SSE 5,9 km/h12,4 km/h528.7 Lux
Sun 04, 03:40 PM17,7 ºC80,3 %956 hPa0,00 l/m2 337,5º NNO 11,3 km/h26,6 km/h466.6 Lux
Sun 04, 03:45 PM17,3 ºC83,3 %956 hPa0,00 l/m2 0º N 2,2 km/h6,4 km/h362.5 Lux
Sun 04, 03:50 PM17,3 ºC83,9 %956 hPa0,00 l/m2 45º NE 6,7 km/h30,1 km/h674.9 Lux
Sun 04, 03:55 PM17,2 ºC86,5 %955 hPa0,00 l/m2 337,5º NNO 6,4 km/h13,6 km/h478.2 Lux
Sun 04, 04:00 PM17,0 ºC87,8 %955 hPa0,00 l/m2 315º NO 8,2 km/h17,1 km/h587.4 Lux
Sun 04, 04:05 PM16,9 ºC88,9 %955 hPa0,00 l/m2 67,5º ENE 11,1 km/h24,3 km/h715.3 Lux
Sun 04, 04:10 PM17,1 ºC90,2 %955 hPa0,00 l/m2 45º NE 8,1 km/h17,9 km/h490.1 Lux
Sun 04, 04:15 PM17,0 ºC89,5 %955 hPa0,00 l/m2 225º SO 3,0 km/h9,0 km/h515.4 Lux
Sun 04, 04:20 PM17,0 ºC87,9 %955 hPa0,00 l/m2 337,5º NNO 4,7 km/h9,3 km/h694.7 Lux
Sun 04, 04:25 PM16,9 ºC89,2 %955 hPa0,00 l/m2 225º SO 5,8 km/h14,1 km/h294.7 Lux
Sun 04, 04:30 PM17,0 ºC88,8 %955 hPa0,00 l/m2 337,5º NNO 4,1 km/h21,4 km/h556.9 Lux
Sun 04, 04:35 PM16,7 ºC89,9 %955 hPa0,00 l/m2 67,5º ENE 2,0 km/h9,0 km/h807.1 Lux
Sun 04, 04:40 PM17,5 ºC85,9 %955 hPa0,00 l/m2 337,5º NNO 0,9 km/h9,8 km/h620.3 Lux
Sun 04, 04:45 PM17,9 ºC84,8 %955 hPa0,00 l/m2 157,5º SSE 2,4 km/h15,3 km/h223 Lux
Sun 04, 04:50 PM17,2 ºC85,5 %955 hPa0,00 l/m2 45º NE 0,9 km/h3,5 km/h556.9 Lux
Sun 04, 04:55 PM16,8 ºC88,0 %955 hPa0,00 l/m2 67,5º ENE 0,5 km/h2,0 km/h204.7 Lux
Sun 04, 05:00 PM16,9 ºC86,9 %955 hPa0,00 l/m2 45º NE 0,4 km/h3,7 km/h123.1 Lux
Sun 04, 05:05 PM16,7 ºC88,4 %955 hPa0,00 l/m2 337,5º NNO 0,3 km/h1,4 km/h81.3 Lux
Sun 04, 05:10 PM16,4 ºC91,0 %955 hPa0,00 l/m2 45º NE 0,4 km/h2,3 km/h129.9 Lux
Sun 04, 05:15 PM16,1 ºC93,0 %955 hPa0,00 l/m2 0º N 0,5 km/h6,4 km/h143.3 Lux
Sun 04, 05:20 PM16,2 ºC94,0 %955 hPa0,00 l/m2 337,5º NNO 7,6 km/h14,4 km/h257.6 Lux
Sun 04, 05:25 PM15,8 ºC92,2 %955 hPa0,00 l/m2 337,5º NNO 7,6 km/h15,3 km/h239.4 Lux
Sun 04, 05:30 PM15,8 ºC91,3 %955 hPa0,00 l/m2 337,5º NNO 2,6 km/h11,6 km/h182.5 Lux
Sun 04, 05:35 PM16,0 ºC90,0 %955 hPa0,00 l/m2 337,5º NNO 4,2 km/h9,3 km/h109.4 Lux
Sun 04, 05:40 PM15,8 ºC90,4 %955 hPa0,00 l/m2 337,5º NNO 4,5 km/h15,9 km/h204.7 Lux
Sun 04, 05:45 PM15,7 ºC93,5 %955 hPa0,00 l/m2 67,5º ENE 0,3 km/h1,4 km/h75.3 Lux
Sun 04, 05:50 PM15,6 ºC95,8 %955 hPa0,00 l/m2 0º N 0,1 km/h0,9 km/h62 Lux
Sun 04, 05:55 PM15,6 ºC97,4 %955 hPa0,00 l/m2 45º NE 0,1 km/h0,6 km/h17.3 Lux
Sun 04, 06:00 PM15,4 ºC98,7 %955 hPa0,00 l/m2 67,5º ENE 0,1 km/h0,6 km/h10.7 Lux
Sun 04, 06:05 PM15,2 ºC100,0 %955 hPa0,00 l/m2 45º NE 0,0 km/h0,3 km/h7.1 Lux
Sun 04, 06:10 PM15,3 ºC100,0 %955 hPa0,00 l/m2 45º NE 0,2 km/h0,9 km/h5 Lux
Sun 04, 06:15 PM15,1 ºC100,0 %955 hPa0,00 l/m2 45º NE 0,1 km/h0,9 km/h4.3 Lux
Sun 04, 06:20 PM15,2 ºC100,0 %955 hPa0,00 l/m2 67,5º ENE 0,3 km/h0,9 km/h3.5 Lux
Sun 04, 06:25 PM15,1 ºC100,0 %955 hPa0,00 l/m2 337,5º NNO 0,3 km/h2,0 km/h2.8 Lux
Sun 04, 06:30 PM15,0 ºC100,0 %955 hPa0,00 l/m2 0º N 4,8 km/h20,8 km/h2.5 Lux
Sun 04, 06:35 PM14,8 ºC100,0 %955 hPa0,00 l/m2 337,5º NNO 0,1 km/h0,6 km/h2.4 Lux
Sun 04, 06:40 PM14,8 ºC100,0 %955 hPa0,00 l/m2 337,5º NNO 0,5 km/h4,9 km/h2.3 Lux
Sun 04, 06:45 PM14,7 ºC100,0 %955 hPa0,00 l/m2 337,5º NNO 1,5 km/h9,3 km/h2.3 Lux
Sun 04, 06:50 PM14,6 ºC100,0 %955 hPa0,00 l/m2 45º NE 0,4 km/h6,4 km/h2.3 Lux
Sun 04, 06:55 PM14,5 ºC100,0 %955 hPa0,00 l/m2 337,5º NNO 0,7 km/h7,5 km/h2.4 Lux
Sun 04, 07:00 PM14,4 ºC100,0 %955 hPa0,00 l/m2 337,5º NNO 3,9 km/h11,0 km/h2.3 Lux
Sun 04, 07:05 PM14,3 ºC100,0 %955 hPa0,00 l/m2 337,5º NNO 4,2 km/h10,1 km/h2.2 Lux
Sun 04, 07:10 PM14,2 ºC100,0 %955 hPa0,00 l/m2 45º NE 0,0 km/h0,6 km/h2.3 Lux
Sun 04, 07:15 PM14,4 ºC100,0 %955 hPa0,00 l/m2 337,5º NNO 0,0 km/h0,0 km/h2.3 Lux
Sun 04, 07:20 PM14,3 ºC100,0 %955 hPa0,00 l/m2 0º N 0,0 km/h0,0 km/h2.3 Lux
Sun 04, 07:25 PM14,2 ºC100,0 %955 hPa0,00 l/m2 0º N 0,0 km/h0,0 km/h2.3 Lux
Sun 04, 07:30 PM14,2 ºC100,0 %955 hPa0,00 l/m2 45º NE 0,0 km/h0,0 km/h2.3 Lux
Sun 04, 07:35 PM14,1 ºC100,0 %955 hPa0,00 l/m2 0º N 0,0 km/h0,0 km/h2.3 Lux
Sun 04, 07:40 PM14,1 ºC100,0 %955 hPa0,00 l/m2 67,5º ENE 0,0 km/h0,0 km/h2.3 Lux
Sun 04, 07:45 PM14,0 ºC100,0 %955 hPa0,00 l/m2 45º NE 0,0 km/h0,0 km/h2.3 Lux
Sun 04, 07:50 PM13,9 ºC100,0 %955 hPa0,00 l/m2 337,5º NNO 0,0 km/h0,0 km/h2.1 Lux
Sun 04, 07:55 PM14,0 ºC100,0 %955 hPa0,00 l/m2 45º NE 0,0 km/h0,0 km/h2.4 Lux
Sun 04, 08:00 PM13,9 ºC100,0 %955 hPa0,00 l/m2 67,5º ENE 0,0 km/h0,0 km/h2.2 Lux
Sun 04, 08:05 PM13,9 ºC100,0 %955 hPa0,00 l/m2 67,5º ENE 0,0 km/h0,0 km/h2.2 Lux
Sun 04, 08:10 PM13,8 ºC100,0 %955 hPa0,00 l/m2 0º N 0,0 km/h0,0 km/h2.3 Lux
Sun 04, 08:15 PM13,7 ºC100,0 %955 hPa0,00 l/m2 67,5º ENE 0,0 km/h0,0 km/h2.2 Lux
Sun 04, 08:20 PM13,7 ºC100,0 %955 hPa0,00 l/m2 337,5º NNO 0,0 km/h0,0 km/h2.2 Lux
Sun 04, 08:25 PM13,6 ºC100,0 %955 hPa0,00 l/m2 0º N 1,2 km/h7,8 km/h2.3 Lux
Sun 04, 08:30 PM13,5 ºC100,0 %955 hPa0,00 l/m2 45º NE 0,0 km/h0,0 km/h2.2 Lux
Sun 04, 08:35 PM13,6 ºC100,0 %955 hPa0,00 l/m2 0º N 0,0 km/h0,0 km/h2.2 Lux
Sun 04, 08:40 PM13,6 ºC100,0 %955 hPa0,00 l/m2 0º N 0,0 km/h0,0 km/h2.2 Lux
Sun 04, 08:45 PM13,5 ºC100,0 %955 hPa0,00 l/m2 45º NE 0,0 km/h0,0 km/h2.2 Lux
Sun 04, 08:50 PM13,4 ºC100,0 %955 hPa0,00 l/m2 45º NE 0,0 km/h0,0 km/h2.2 Lux
Sun 04, 08:55 PM13,4 ºC100,0 %955 hPa0,00 l/m2 0º N 0,0 km/h0,0 km/h2.2 Lux
Sun 04, 09:00 PM13,3 ºC100,0 %955 hPa0,00 l/m2 45º NE 0,0 km/h0,0 km/h2.3 Lux
Sun 04, 09:05 PM13,4 ºC100,0 %955 hPa0,00 l/m2 0º N 0,0 km/h0,0 km/h2.3 Lux
Sun 04, 09:10 PM13,3 ºC100,0 %955 hPa0,00 l/m2 45º NE 0,0 km/h0,0 km/h2.3 Lux
Sun 04, 09:15 PM13,4 ºC100,0 %955 hPa0,00 l/m2 45º NE 0,0 km/h0,0 km/h2.3 Lux
Sun 04, 09:20 PM13,4 ºC100,0 %955 hPa0,00 l/m2 0º N 0,0 km/h0,0 km/h2.3 Lux
Sun 04, 09:25 PM13,4 ºC100,0 %955 hPa0,00 l/m2 0º N 0,0 km/h0,0 km/h2.3 Lux
Sun 04, 09:30 PM13,4 ºC100,0 %955 hPa0,00 l/m2 0º N 0,0 km/h0,0 km/h2.3 Lux
Sun 04, 09:35 PM13,3 ºC100,0 %955 hPa0,00 l/m2 0º N 0,0 km/h0,0 km/h2.2 Lux
Sun 04, 09:40 PM13,2 ºC100,0 %955 hPa0,00 l/m2 0º N 0,0 km/h0,0 km/h2.3 Lux
Sun 04, 09:45 PM13,3 ºC100,0 %955 hPa0,00 l/m2 45º NE 0,0 km/h0,0 km/h2.2 Lux
Sun 04, 09:50 PM13,2 ºC100,0 %955 hPa0,00 l/m2 0º N 0,0 km/h0,0 km/h2.3 Lux
Sun 04, 09:55 PM13,2 ºC100,0 %955 hPa0,00 l/m2 0º N 0,0 km/h0,0 km/h2.2 Lux
Sun 04, 10:00 PM13,2 ºC100,0 %955 hPa0,00 l/m2 0º N 0,0 km/h0,0 km/h2.3 Lux
Sun 04, 10:05 PM13,2 ºC100,0 %955 hPa0,00 l/m2 0º N 0,0 km/h0,0 km/h2.3 Lux
Sun 04, 10:10 PM13,2 ºC100,0 %954 hPa0,00 l/m2 0º N 0,0 km/h0,0 km/h2.1 Lux
Sun 04, 10:15 PM13,3 ºC100,0 %954 hPa0,00 l/m2 45º NE 0,0 km/h0,0 km/h2.2 Lux
Sun 04, 10:20 PM13,3 ºC100,0 %954 hPa0,00 l/m2 0º N 0,0 km/h0,0 km/h2.1 Lux
Sun 04, 10:25 PM13,3 ºC100,0 %954 hPa0,00 l/m2 0º N 0,0 km/h0,0 km/h2.2 Lux
Sun 04, 10:30 PM13,3 ºC100,0 %954 hPa0,00 l/m2 0º N 0,0 km/h0,0 km/h2.2 Lux
Sun 04, 10:35 PM13,2 ºC100,0 %954 hPa0,00 l/m2 0º N 0,1 km/h0,6 km/h2.2 Lux
Sun 04, 10:40 PM13,2 ºC100,0 %954 hPa0,00 l/m2 0º N 0,0 km/h0,0 km/h2.2 Lux
Sun 04, 10:45 PM13,1 ºC100,0 %954 hPa0,00 l/m2 225º SO 0,0 km/h0,0 km/h2.3 Lux
Sun 04, 10:50 PM13,1 ºC100,0 %954 hPa0,00 l/m2 0º N 0,0 km/h0,0 km/h2.2 Lux
Sun 04, 10:55 PM13,0 ºC100,0 %953 hPa0,00 l/m2 0º N 0,0 km/h0,0 km/h2.3 Lux
Sun 04, 11:00 PM12,9 ºC100,0 %953 hPa0,00 l/m2 45º NE 0,0 km/h0,0 km/h2.2 Lux
Sun 04, 11:05 PM12,9 ºC100,0 %953 hPa0,00 l/m2 0º N 0,0 km/h0,0 km/h2.3 Lux
Sun 04, 11:10 PM12,9 ºC100,0 %953 hPa0,00 l/m2 0º N 0,0 km/h0,0 km/h2.2 Lux
Sun 04, 11:15 PM12,9 ºC100,0 %953 hPa0,00 l/m2 315º NO 0,0 km/h0,0 km/h2.3 Lux
Sun 04, 11:20 PM13,1 ºC100,0 %953 hPa0,00 l/m2 0º N 0,0 km/h0,0 km/h2.3 Lux
Sun 04, 11:25 PM13,1 ºC100,0 %953 hPa0,00 l/m2 157,5º SSE 0,0 km/h0,0 km/h2.2 Lux
Sun 04, 11:30 PM13,3 ºC100,0 %953 hPa0,00 l/m2 225º SO 2,3 km/h5,8 km/h2.3 Lux
Sun 04, 11:35 PM13,6 ºC100,0 %953 hPa0,00 l/m2 0º N 4,0 km/h7,8 km/h2.1 Lux
Sun 04, 11:40 PM13,8 ºC100,0 %953 hPa0,00 l/m2 315º NO 3,6 km/h9,0 km/h2.4 Lux
Sun 04, 11:45 PM13,8 ºC100,0 %953 hPa0,00 l/m2 337,5º NNO 1,7 km/h10,4 km/h2.3 Lux
Sun 04, 11:50 PM13,9 ºC100,0 %953 hPa0,00 l/m2 337,5º NNO 0,7 km/h7,2 km/h2.2 Lux
Sun 04, 11:55 PM13,8 ºC100,0 %953 hPa0,00 l/m2 157,5º SSE 0,2 km/h2,3 km/h2.3 Lux
Mon 05, 12:00 AM13,8 ºC100,0 %953 hPa0,00 l/m2 0º N 0,0 km/h0,3 km/h2.2 Lux
Mon 05, 12:05 AM13,8 ºC100,0 %953 hPa0,00 l/m2 315º NO 0,3 km/h2,6 km/h2.3 Lux
Mon 05, 12:10 AM14,0 ºC100,0 %953 hPa0,00 l/m2 67,5º ENE 1,7 km/h8,7 km/h2.2 Lux
Mon 05, 12:15 AM14,1 ºC100,0 %953 hPa0,00 l/m2 247,5º OSO 0,4 km/h2,9 km/h2.2 Lux
Mon 05, 12:20 AM14,0 ºC100,0 %953 hPa0,00 l/m2 225º SO 0,1 km/h0,6 km/h2.2 Lux
Mon 05, 12:25 AM13,9 ºC100,0 %953 hPa0,00 l/m2 0º N 0,0 km/h0,0 km/h2.1 Lux
Mon 05, 12:30 AM13,7 ºC100,0 %953 hPa0,00 l/m2 337,5º NNO 1,3 km/h4,6 km/h2.3 Lux
Mon 05, 12:35 AM13,9 ºC100,0 %952 hPa0,00 l/m2 337,5º NNO 5,7 km/h16,8 km/h2.3 Lux
Mon 05, 12:40 AM14,3 ºC100,0 %952 hPa0,00 l/m2 225º SO 5,2 km/h13,9 km/h2.1 Lux
Mon 05, 12:45 AM14,5 ºC100,0 %952 hPa0,00 l/m2 337,5º NNO 3,6 km/h11,3 km/h2.3 Lux
Mon 05, 12:50 AM14,3 ºC100,0 %952 hPa0,00 l/m2 0º N 2,6 km/h5,8 km/h2.1 Lux
Mon 05, 12:55 AM14,3 ºC100,0 %952 hPa0,00 l/m2 337,5º NNO 1,4 km/h7,8 km/h2.2 Lux
Mon 05, 01:00 AM14,3 ºC100,0 %952 hPa0,00 l/m2 225º SO 1,4 km/h8,7 km/h2.2 Lux
Mon 05, 01:05 AM14,4 ºC100,0 %952 hPa0,00 l/m2 90º E 3,5 km/h13,3 km/h2.3 Lux
Mon 05, 01:10 AM14,3 ºC100,0 %952 hPa0,00 l/m2 225º SO 2,4 km/h7,2 km/h2.3 Lux
Mon 05, 01:15 AM14,2 ºC100,0 %952 hPa0,00 l/m2 247,5º OSO 1,7 km/h4,6 km/h2.4 Lux
Mon 05, 01:20 AM14,1 ºC100,0 %952 hPa0,00 l/m2 202,5º SSO 0,8 km/h5,2 km/h2.3 Lux
Mon 05, 01:25 AM14,1 ºC100,0 %952 hPa0,00 l/m2 315º NO 0,1 km/h0,9 km/h2.2 Lux
Mon 05, 01:30 AM14,1 ºC100,0 %952 hPa0,00 l/m2 0º N 3,2 km/h12,1 km/h2.2 Lux
Mon 05, 01:35 AM14,2 ºC100,0 %952 hPa0,00 l/m2 225º SO 1,5 km/h6,1 km/h2.4 Lux
Mon 05, 01:40 AM14,3 ºC100,0 %952 hPa0,00 l/m2 225º SO 2,6 km/h6,9 km/h2.3 Lux
Mon 05, 01:45 AM14,2 ºC100,0 %952 hPa0,00 l/m2 135º SE 3,4 km/h8,7 km/h2.2 Lux
Mon 05, 01:50 AM14,3 ºC95,3 %952 hPa0,00 l/m2 315º NO 2,8 km/h10,4 km/h2.3 Lux
Mon 05, 01:55 AM14,2 ºC93,5 %952 hPa0,00 l/m2 225º SO 0,4 km/h4,6 km/h2.3 Lux
Mon 05, 02:00 AM14,1 ºC94,1 %952 hPa0,00 l/m2 315º NO 1,4 km/h5,8 km/h2.3 Lux
Mon 05, 02:05 AM14,0 ºC95,3 %952 hPa0,00 l/m2 0º N 0,7 km/h6,7 km/h2.2 Lux
Mon 05, 02:10 AM13,9 ºC96,7 %952 hPa0,00 l/m2 225º SO 0,0 km/h0,3 km/h2.2 Lux
Mon 05, 02:15 AM13,7 ºC97,2 %952 hPa0,00 l/m2 337,5º NNO 0,0 km/h0,3 km/h2.3 Lux
Mon 05, 02:20 AM13,6 ºC98,4 %951 hPa0,00 l/m2 225º SO 0,4 km/h2,9 km/h2.3 Lux
Mon 05, 02:25 AM13,5 ºC99,2 %951 hPa0,00 l/m2 0º N 0,1 km/h0,6 km/h2.2 Lux
Mon 05, 02:30 AM13,4 ºC100,0 %951 hPa0,00 l/m2 0º N 0,2 km/h2,0 km/h2.3 Lux
Mon 05, 02:35 AM13,3 ºC100,0 %951 hPa0,00 l/m2 112.5º ESE 0,4 km/h1,7 km/h2.2 Lux
Mon 05, 02:40 AM13,4 ºC100,0 %951 hPa0,00 l/m2 337,5º NNO 0,3 km/h2,0 km/h2.1 Lux
Mon 05, 02:45 AM13,3 ºC100,0 %951 hPa0,00 l/m2 45º NE 0,0 km/h0,3 km/h2.1 Lux
Mon 05, 02:50 AM13,3 ºC100,0 %950 hPa0,00 l/m2 315º NO 1,0 km/h5,8 km/h2.4 Lux
Mon 05, 02:55 AM13,4 ºC100,0 %950 hPa0,00 l/m2 45º NE 0,1 km/h1,4 km/h2.1 Lux
Mon 05, 03:00 AM13,4 ºC100,0 %950 hPa0,00 l/m2 315º NO 0,5 km/h2,3 km/h2.1 Lux
Mon 05, 03:05 AM13,4 ºC100,0 %950 hPa0,00 l/m2 247,5º OSO 1,5 km/h10,7 km/h2.2 Lux
Mon 05, 03:10 AM13,6 ºC97,5 %950 hPa0,00 l/m2 45º NE 2,7 km/h12,4 km/h2.1 Lux
Mon 05, 03:15 AM13,9 ºC92,8 %950 hPa0,00 l/m2 0º N 0,1 km/h2,6 km/h2.4 Lux
Mon 05, 03:20 AM13,8 ºC97,1 %950 hPa0,00 l/m2 67,5º ENE 0,1 km/h0,6 km/h2.2 Lux
Mon 05, 03:25 AM13,9 ºC90,6 %950 hPa0,00 l/m2 315º NO 3,9 km/h13,6 km/h2.2 Lux
Mon 05, 03:30 AM14,4 ºC85,8 %950 hPa0,00 l/m2 45º NE 3,5 km/h11,0 km/h2.3 Lux
Mon 05, 03:35 AM14,3 ºC86,7 %950 hPa0,00 l/m2 247,5º OSO 0,3 km/h2,9 km/h2.1 Lux
Mon 05, 03:40 AM14,3 ºC86,1 %950 hPa0,00 l/m2 225º SO 2,9 km/h15,3 km/h2.1 Lux
Mon 05, 03:45 AM14,5 ºC85,2 %950 hPa0,00 l/m2 157,5º SSE 2,7 km/h17,1 km/h2.2 Lux
Mon 05, 03:50 AM14,6 ºC84,8 %949 hPa0,00 l/m2 202,5º SSO 11,1 km/h26,0 km/h2.3 Lux
Mon 05, 03:55 AM14,5 ºC87,8 %949 hPa0,00 l/m2 202,5º SSO 12,2 km/h26,3 km/h2.2 Lux
Mon 05, 04:00 AM14,4 ºC90,5 %949 hPa0,00 l/m2 315º NO 14,8 km/h36,1 km/h2.3 Lux
Mon 05, 04:05 AM14,3 ºC92,0 %949 hPa0,00 l/m2 225º SO 7,7 km/h24,3 km/h2.1 Lux
Mon 05, 04:10 AM14,3 ºC91,1 %949 hPa0,00 l/m2 337,5º NNO 6,3 km/h14,7 km/h2.3 Lux
Mon 05, 04:15 AM14,4 ºC89,7 %949 hPa0,00 l/m2 225º SO 12,2 km/h35,0 km/h2.3 Lux
Mon 05, 04:20 AM14,6 ºC88,3 %948 hPa0,00 l/m2 225º SO 8,6 km/h24,3 km/h2.1 Lux
Mon 05, 04:25 AM14,7 ºC87,9 %949 hPa0,00 l/m2 337,5º NNO 4,8 km/h9,3 km/h2.3 Lux
Mon 05, 04:30 AM14,8 ºC87,5 %949 hPa0,00 l/m2 337,5º NNO 13,7 km/h45,7 km/h2.3 Lux
Mon 05, 04:35 AM14,6 ºC88,5 %949 hPa0,00 l/m2 225º SO 20,0 km/h58,1 km/h2.2 Lux
Mon 05, 04:40 AM14,7 ºC90,3 %949 hPa0,00 l/m2 315º NO 14,1 km/h38,7 km/h2.3 Lux
Mon 05, 04:45 AM14,6 ºC92,5 %948 hPa0,00 l/m2 315º NO 11,4 km/h35,9 km/h2.2 Lux
Mon 05, 04:50 AM14,6 ºC93,0 %948 hPa0,00 l/m2 225º SO 19,4 km/h59,0 km/h2.2 Lux
Mon 05, 04:55 AM14,5 ºC95,2 %948 hPa0,00 l/m2 202,5º SSO 15,3 km/h34,7 km/h2.2 Lux
Mon 05, 05:00 AM14,5 ºC96,3 %948 hPa0,00 l/m2 202,5º SSO 30,1 km/h50,0 km/h2.2 Lux
Mon 05, 05:05 AM14,3 ºC99,8 %948 hPa0,00 l/m2 247,5º OSO 21,1 km/h55,5 km/h2.2 Lux
Mon 05, 05:10 AM14,1 ºC100,0 %948 hPa0,00 l/m2 202,5º SSO 41,7 km/h61,0 km/h2.2 Lux
Mon 05, 05:15 AM14,0 ºC100,0 %947 hPa0,00 l/m2 247,5º OSO 31,2 km/h62,1 km/h2.2 Lux
Mon 05, 05:20 AM13,9 ºC100,0 %947 hPa0,00 l/m2 157,5º SSE 36,0 km/h57,2 km/h2.3 Lux
Mon 05, 05:25 AM14,0 ºC100,0 %947 hPa0,00 l/m2 247,5º OSO 42,1 km/h61,3 km/h2.2 Lux
Mon 05, 05:30 AM14,1 ºC100,0 %947 hPa0,00 l/m2 225º SO 31,2 km/h65,9 km/h2.4 Lux
Mon 05, 05:35 AM14,1 ºC100,0 %947 hPa0,00 l/m2 225º SO 27,4 km/h72,3 km/h2.1 Lux
Mon 05, 05:40 AM14,1 ºC100,0 %947 hPa0,00 l/m2 225º SO 28,4 km/h46,8 km/h2.2 Lux
Mon 05, 05:45 AM14,1 ºC100,0 %947 hPa0,00 l/m2 225º SO 29,0 km/h59,0 km/h2.2 Lux
Mon 05, 05:50 AM14,1 ºC100,0 %948 hPa0,00 l/m2 225º SO 20,1 km/h32,7 km/h2.4 Lux
Mon 05, 05:55 AM13,6 ºC100,0 %948 hPa0,00 l/m2 225º SO 19,9 km/h41,0 km/h2.1 Lux
Mon 05, 06:15 AM10,8 ºC100,0 %950 hPa1,75 l/m2 45º NE 60,7 km/h91,9 km/h2.4 Lux
Mon 05, 06:20 AM10,3 ºC100,0 %950 hPa0,83 l/m2 337,5º NNO 44,5 km/h75,5 km/h2.3 Lux
Mon 05, 06:25 AM10,3 ºC100,0 %950 hPa0,25 l/m2 315º NO 12,5 km/h35,0 km/h2.3 Lux
Mon 05, 06:30 AM10,4 ºC100,0 %950 hPa0,17 l/m2 337,5º NNO 12,6 km/h29,8 km/h2.2 Lux
Mon 05, 06:35 AM10,4 ºC100,0 %950 hPa0,08 l/m2 315º NO 7,2 km/h29,5 km/h2.1 Lux
Mon 05, 06:40 AM10,4 ºC100,0 %950 hPa0,17 l/m2 0º N 11,8 km/h35,6 km/h2.3 Lux
Mon 05, 06:45 AM10,4 ºC100,0 %951 hPa0,17 l/m2 315º NO 10,6 km/h43,6 km/h2.1 Lux
Mon 05, 06:50 AM10,3 ºC100,0 %951 hPa0,25 l/m2 337,5º NNO 24,0 km/h53,7 km/h2.2 Lux
Mon 05, 06:55 AM10,3 ºC100,0 %951 hPa0,33 l/m2 337,5º NNO 28,6 km/h68,2 km/h2.2 Lux
Mon 05, 07:00 AM10,3 ºC100,0 %951 hPa0,25 l/m2 337,5º NNO 27,7 km/h59,8 km/h2.3 Lux
Mon 05, 07:05 AM10,1 ºC100,0 %951 hPa0,17 l/m2 45º NE 20,4 km/h48,0 km/h2.3 Lux
Mon 05, 07:10 AM10,1 ºC100,0 %951 hPa0,08 l/m2 337,5º NNO 17,4 km/h35,0 km/h2.2 Lux
Mon 05, 07:15 AM10,0 ºC100,0 %951 hPa0,00 l/m2 337,5º NNO 26,7 km/h52,9 km/h2.2 Lux
Mon 05, 07:20 AM9,9 ºC100,0 %951 hPa0,08 l/m2 315º NO 21,3 km/h43,1 km/h2.1 Lux
Mon 05, 07:25 AM9,8 ºC100,0 %951 hPa0,08 l/m2 337,5º NNO 23,1 km/h50,9 km/h2.3 Lux
Mon 05, 07:30 AM9,9 ºC100,0 %951 hPa0,08 l/m2 225º SO 16,6 km/h41,6 km/h2.3 Lux
Mon 05, 07:35 AM9,8 ºC100,0 %951 hPa0,08 l/m2 337,5º NNO 5,0 km/h11,6 km/h2.5 Lux
Mon 05, 07:40 AM9,6 ºC100,0 %951 hPa0,00 l/m2 337,5º NNO 3,0 km/h13,0 km/h2.6 Lux
Mon 05, 07:45 AM9,6 ºC100,0 %951 hPa0,00 l/m2 247,5º OSO 6,2 km/h22,2 km/h2.7 Lux
Mon 05, 07:50 AM9,5 ºC100,0 %951 hPa0,08 l/m2 225º SO 3,9 km/h8,1 km/h3.2 Lux
Mon 05, 07:55 AM9,3 ºC100,0 %951 hPa0,08 l/m2 337,5º NNO 6,7 km/h14,7 km/h4.7 Lux
Mon 05, 08:00 AM9,3 ºC100,0 %951 hPa0,00 l/m2 337,5º NNO 3,9 km/h11,3 km/h5.4 Lux
Mon 05, 08:05 AM9,1 ºC100,0 %951 hPa0,00 l/m2 337,5º NNO 6,6 km/h12,7 km/h4.6 Lux
Mon 05, 08:10 AM9,1 ºC100,0 %951 hPa0,00 l/m2 0º N 3,3 km/h8,1 km/h4.8 Lux
Mon 05, 08:15 AM9,1 ºC100,0 %951 hPa0,00 l/m2 0º N 1,8 km/h6,4 km/h5.3 Lux
Mon 05, 08:20 AM9,1 ºC100,0 %951 hPa0,08 l/m2 0º N 1,6 km/h6,4 km/h5.3 Lux
Mon 05, 08:25 AM9,0 ºC100,0 %951 hPa0,08 l/m2 337,5º NNO 1,4 km/h6,1 km/h5.2 Lux
Mon 05, 08:30 AM9,0 ºC100,0 %951 hPa0,00 l/m2 225º SO 0,5 km/h3,2 km/h5.6 Lux
Mon 05, 08:35 AM8,9 ºC100,0 %951 hPa0,00 l/m2 0º N 0,1 km/h1,7 km/h9.7 Lux
Mon 05, 08:40 AM9,0 ºC100,0 %951 hPa0,08 l/m2 0º N 0,0 km/h0,3 km/h10.6 Lux
Mon 05, 08:45 AM8,9 ºC100,0 %951 hPa0,00 l/m2 0º N 0,0 km/h0,0 km/h6.2 Lux
Mon 05, 08:50 AM8,9 ºC100,0 %951 hPa0,08 l/m2 0º N 0,4 km/h1,4 km/h5.5 Lux
Mon 05, 08:55 AM8,8 ºC100,0 %951 hPa0,00 l/m2 225º SO 0,0 km/h0,0 km/h13.6 Lux
Mon 05, 09:00 AM8,7 ºC100,0 %952 hPa0,00 l/m2 0º N 0,0 km/h0,0 km/h14.3 Lux
Mon 05, 09:05 AM8,8 ºC100,0 %952 hPa0,00 l/m2 0º N 0,0 km/h0,0 km/h24.2 Lux
Mon 05, 09:10 AM9,1 ºC100,0 %952 hPa0,08 l/m2 0º N 0,0 km/h0,0 km/h33 Lux
Mon 05, 09:15 AM8,9 ºC100,0 %952 hPa0,00 l/m2 45º NE 0,0 km/h0,3 km/h50.4 Lux
Mon 05, 09:20 AM8,8 ºC100,0 %951 hPa0,00 l/m2 0º N 0,3 km/h2,0 km/h22.4 Lux
Mon 05, 09:25 AM8,9 ºC100,0 %952 hPa0,08 l/m2 0º N 0,0 km/h0,0 km/h17.4 Lux
Mon 05, 09:30 AM8,8 ºC100,0 %952 hPa0,00 l/m2 337,5º NNO 0,0 km/h0,3 km/h33 Lux
Mon 05, 09:35 AM8,8 ºC100,0 %952 hPa0,00 l/m2 0º N 0,0 km/h0,0 km/h32.3 Lux
Mon 05, 09:40 AM9,0 ºC100,0 %952 hPa0,00 l/m2 0º N 0,0 km/h0,0 km/h24 Lux
Mon 05, 09:45 AM8,9 ºC100,0 %951 hPa0,00 l/m2 337,5º NNO 0,0 km/h0,0 km/h20.8 Lux
Mon 05, 09:50 AM8,8 ºC100,0 %952 hPa0,00 l/m2 45º NE 0,2 km/h0,6 km/h24.3 Lux
Mon 05, 09:55 AM8,8 ºC100,0 %952 hPa0,08 l/m2 337,5º NNO 0,1 km/h0,9 km/h26.1 Lux
Mon 05, 10:00 AM8,9 ºC100,0 %952 hPa0,00 l/m2 337,5º NNO 0,0 km/h0,6 km/h41.4 Lux
Mon 05, 10:05 AM8,9 ºC100,0 %952 hPa0,08 l/m2 0º N 0,7 km/h4,6 km/h96.7 Lux
Mon 05, 10:10 AM9,0 ºC100,0 %952 hPa0,00 l/m2 0º N 1,9 km/h6,4 km/h66.5 Lux
Mon 05, 10:15 AM9,1 ºC100,0 %952 hPa0,00 l/m2 0º N 0,0 km/h0,0 km/h83.2 Lux
Mon 05, 10:20 AM9,2 ºC100,0 %952 hPa0,00 l/m2 337,5º NNO 0,0 km/h0,6 km/h49.5 Lux
Mon 05, 10:25 AM9,1 ºC100,0 %952 hPa0,00 l/m2 0º N 0,4 km/h4,0 km/h110.9 Lux
Mon 05, 10:30 AM9,2 ºC100,0 %952 hPa0,00 l/m2 0º N 0,0 km/h0,0 km/h145.4 Lux
Mon 05, 10:35 AM9,5 ºC100,0 %952 hPa0,08 l/m2 337,5º NNO 0,0 km/h0,0 km/h128.2 Lux
Mon 05, 10:40 AM9,5 ºC100,0 %952 hPa0,00 l/m2 337,5º NNO 0,1 km/h2,0 km/h272.7 Lux
Mon 05, 10:45 AM9,4 ºC100,0 %952 hPa0,08 l/m2 337,5º NNO 4,0 km/h6,7 km/h185.5 Lux
Mon 05, 10:50 AM9,2 ºC100,0 %952 hPa0,00 l/m2 0º N 0,2 km/h1,4 km/h227 Lux
Mon 05, 10:55 AM9,6 ºC100,0 %952 hPa0,00 l/m2 45º NE 0,9 km/h5,8 km/h387.3 Lux
Mon 05, 11:00 AM9,9 ºC100,0 %952 hPa0,00 l/m2 0º N 0,1 km/h1,2 km/h378.8 Lux
Mon 05, 11:05 AM10,1 ºC100,0 %952 hPa0,00 l/m2 67,5º ENE 0,1 km/h1,4 km/h313 Lux
Mon 05, 11:10 AM10,1 ºC100,0 %952 hPa0,00 l/m2 45º NE 0,0 km/h0,0 km/h859.6 Lux
Mon 05, 11:15 AM10,8 ºC100,0 %952 hPa0,08 l/m2 0º N 1,3 km/h10,7 km/h414.6 Lux
Mon 05, 11:20 AM10,5 ºC100,0 %952 hPa0,00 l/m2 0º N 3,2 km/h14,4 km/h980.4 Lux
Mon 05, 11:25 AM10,6 ºC100,0 %952 hPa0,08 l/m2 337,5º NNO 13,3 km/h41,9 km/h294.7 Lux
Mon 05, 11:30 AM10,6 ºC100,0 %952 hPa0,00 l/m2 337,5º NNO 17,5 km/h31,2 km/h313 Lux
Mon 05, 11:35 AM10,2 ºC100,0 %952 hPa0,00 l/m2 337,5º NNO 13,9 km/h23,4 km/h1360.7 Lux
Mon 05, 11:40 AM10,5 ºC100,0 %953 hPa0,08 l/m2 45º NE 17,1 km/h34,4 km/h267.5 Lux
Mon 05, 11:45 AM11,1 ºC100,0 %952 hPa0,00 l/m2 337,5º NNO 21,0 km/h40,5 km/h1535.5 Lux
Mon 05, 11:50 AM11,5 ºC100,0 %952 hPa0,08 l/m2 337,5º NNO 29,3 km/h51,2 km/h1670.6 Lux
Mon 05, 11:55 AM11,4 ºC100,0 %952 hPa0,00 l/m2 337,5º NNO 31,5 km/h50,6 km/h1601 Lux
Mon 05, 12:00 PM11,5 ºC100,0 %952 hPa0,00 l/m2 225º SO 30,3 km/h61,3 km/h1535.5 Lux
Mon 05, 12:05 PM12,0 ºC100,0 %952 hPa0,00 l/m2 337,5º NNO 18,4 km/h35,3 km/h1744.7 Lux
Mon 05, 12:10 PM11,6 ºC100,0 %952 hPa0,00 l/m2 337,5º NNO 29,2 km/h45,7 km/h1823.7 Lux
Mon 05, 12:15 PM11,9 ºC100,0 %952 hPa0,00 l/m2 315º NO 15,3 km/h24,8 km/h2197.4 Lux
Mon 05, 12:20 PM12,4 ºC97,9 %952 hPa0,08 l/m2 0º N 18,6 km/h44,5 km/h1670.6 Lux
Mon 05, 12:25 PM12,6 ºC92,7 %952 hPa0,00 l/m2 0º N 16,6 km/h33,5 km/h859.6 Lux
Mon 05, 12:30 PM12,2 ºC100,0 %952 hPa0,00 l/m2 45º NE 12,4 km/h19,4 km/h571.9 Lux
Mon 05, 12:35 PM12,0 ºC100,0 %952 hPa0,08 l/m2 315º NO 16,3 km/h39,0 km/h2197.4 Lux
Mon 05, 12:40 PM12,4 ºC94,3 %952 hPa0,00 l/m2 0º N 13,5 km/h27,2 km/h1823.7 Lux
Mon 05, 12:45 PM13,2 ºC90,5 %952 hPa0,00 l/m2 337,5º NNO 25,0 km/h56,7 km/h2094.2 Lux
Mon 05, 12:50 PM13,0 ºC81,2 %952 hPa0,00 l/m2 0º N 30,2 km/h50,9 km/h859.6 Lux
Mon 05, 12:55 PM12,4 ºC86,6 %952 hPa0,00 l/m2 337,5º NNO 42,3 km/h79,5 km/h1259.7 Lux
Mon 05, 01:00 PM11,8 ºC87,0 %952 hPa0,00 l/m2 225º SO 30,3 km/h52,0 km/h1670.6 Lux
Mon 05, 01:05 PM12,7 ºC84,1 %952 hPa0,00 l/m2 337,5º NNO 21,3 km/h44,2 km/h1908 Lux
Mon 05, 01:10 PM13,6 ºC82,0 %952 hPa0,00 l/m2 337,5º NNO 25,5 km/h43,3 km/h387.3 Lux
Mon 05, 01:15 PM12,5 ºC82,6 %952 hPa0,08 l/m2 337,5º NNO 34,6 km/h59,8 km/h674.9 Lux
Mon 05, 01:20 PM12,5 ºC81,8 %952 hPa0,00 l/m2 337,5º NNO 21,1 km/h45,4 km/h1744.7 Lux
Mon 05, 01:25 PM13,3 ºC79,8 %952 hPa0,08 l/m2 337,5º NNO 36,2 km/h57,0 km/h1087.9 Lux
Mon 05, 01:30 PM12,2 ºC81,9 %952 hPa0,00 l/m2 315º NO 32,9 km/h52,9 km/h133.6 Lux
Mon 05, 01:35 PM11,9 ºC84,3 %952 hPa0,00 l/m2 337,5º NNO 34,5 km/h59,0 km/h1535.5 Lux
Mon 05, 01:40 PM11,6 ºC86,7 %952 hPa0,00 l/m2 337,5º NNO 26,6 km/h41,9 km/h1473.8 Lux
Mon 05, 01:45 PM12,9 ºC79,4 %952 hPa0,08 l/m2 337,5º NNO 22,3 km/h46,3 km/h313 Lux
Mon 05, 01:50 PM13,3 ºC76,2 %952 hPa0,00 l/m2 0º N 26,7 km/h51,2 km/h1670.6 Lux
Mon 05, 01:55 PM13,3 ºC73,7 %952 hPa0,00 l/m2 0º N 29,7 km/h54,6 km/h736.7 Lux
Mon 05, 02:00 PM12,5 ºC77,9 %952 hPa0,08 l/m2 67,5º ENE 29,2 km/h59,0 km/h300.6 Lux
Mon 05, 02:05 PM12,0 ºC75,9 %952 hPa0,00 l/m2 337,5º NNO 25,0 km/h51,7 km/h1473.8 Lux
Mon 05, 02:10 PM12,8 ºC75,8 %952 hPa0,00 l/m2 45º NE 20,1 km/h35,9 km/h1415.6 Lux
Mon 05, 02:15 PM13,1 ºC74,4 %952 hPa0,00 l/m2 315º NO 22,2 km/h43,6 km/h362.5 Lux
Mon 05, 02:20 PM12,9 ºC76,0 %952 hPa0,00 l/m2 337,5º NNO 18,0 km/h42,2 km/h887.7 Lux
Mon 05, 02:25 PM13,3 ºC75,1 %952 hPa0,00 l/m2 337,5º NNO 21,5 km/h50,0 km/h1415.6 Lux
Mon 05, 02:30 PM13,6 ºC70,6 %952 hPa0,00 l/m2 0º N 30,3 km/h55,5 km/h267.5 Lux
Mon 05, 02:35 PM12,9 ºC72,5 %952 hPa0,00 l/m2 337,5º NNO 29,3 km/h48,3 km/h243.8 Lux
Mon 05, 02:40 PM12,4 ºC75,9 %952 hPa0,00 l/m2 337,5º NNO 23,8 km/h39,9 km/h267.5 Lux
Mon 05, 02:45 PM12,3 ºC77,7 %952 hPa0,00 l/m2 315º NO 26,7 km/h51,2 km/h319.4 Lux
Mon 05, 02:50 PM12,2 ºC78,2 %952 hPa0,00 l/m2 337,5º NNO 20,6 km/h40,8 km/h235.2 Lux
Mon 05, 02:55 PM12,1 ºC79,5 %952 hPa0,00 l/m2 315º NO 25,1 km/h45,1 km/h387.3 Lux
Mon 05, 03:00 PM12,4 ºC75,8 %952 hPa0,00 l/m2 337,5º NNO 14,7 km/h36,7 km/h340 Lux
Mon 05, 03:05 PM12,4 ºC76,4 %952 hPa0,00 l/m2 337,5º NNO 15,0 km/h34,4 km/h347.3 Lux
Mon 05, 03:10 PM12,4 ºC78,6 %952 hPa0,00 l/m2 337,5º NNO 17,6 km/h44,8 km/h139.3 Lux
Mon 05, 03:15 PM12,2 ºC78,9 %952 hPa0,00 l/m2 337,5º NNO 15,2 km/h30,6 km/h272.7 Lux
Mon 05, 03:20 PM12,0 ºC82,1 %952 hPa0,00 l/m2 45º NE 19,5 km/h35,3 km/h179.7 Lux
Mon 05, 03:25 PM12,0 ºC80,2 %952 hPa0,00 l/m2 315º NO 27,1 km/h44,5 km/h141.3 Lux
Mon 05, 03:30 PM11,9 ºC77,0 %952 hPa0,00 l/m2 337,5º NNO 23,3 km/h39,3 km/h188.5 Lux
Mon 05, 03:35 PM11,9 ºC79,1 %953 hPa0,00 l/m2 337,5º NNO 15,6 km/h32,7 km/h347.3 Lux
Mon 05, 03:40 PM12,6 ºC75,7 %953 hPa0,00 l/m2 225º SO 18,6 km/h38,4 km/h490.1 Lux
Mon 05, 03:45 PM12,6 ºC77,1 %953 hPa0,00 l/m2 337,5º NNO 29,6 km/h53,5 km/h1127.5 Lux
Mon 05, 03:50 PM12,7 ºC67,5 %953 hPa0,00 l/m2 337,5º NNO 40,4 km/h62,1 km/h980.4 Lux
Mon 05, 03:55 PM13,0 ºC62,2 %953 hPa0,00 l/m2 337,5º NNO 21,9 km/h42,2 km/h1050.3 Lux
Mon 05, 04:00 PM13,2 ºC62,7 %953 hPa0,00 l/m2 0º N 27,4 km/h47,7 km/h694.7 Lux
Mon 05, 04:05 PM13,2 ºC61,9 %953 hPa0,00 l/m2 337,5º NNO 27,8 km/h54,3 km/h715.3 Lux
Mon 05, 04:10 PM13,0 ºC64,7 %953 hPa0,00 l/m2 337,5º NNO 15,9 km/h43,6 km/h694.7 Lux
Mon 05, 04:15 PM13,2 ºC62,8 %953 hPa0,00 l/m2 337,5º NNO 25,5 km/h45,7 km/h656 Lux
Mon 05, 04:20 PM13,1 ºC62,2 %953 hPa0,00 l/m2 337,5º NNO 18,4 km/h39,3 km/h715.3 Lux
Mon 05, 04:25 PM13,1 ºC64,5 %953 hPa0,00 l/m2 337,5º NNO 19,2 km/h39,0 km/h306.7 Lux
Mon 05, 04:30 PM12,8 ºC65,4 %953 hPa0,00 l/m2 337,5º NNO 15,3 km/h42,2 km/h257.6 Lux
Mon 05, 04:35 PM12,9 ºC65,7 %953 hPa0,00 l/m2 45º NE 23,9 km/h46,0 km/h272.7 Lux
Mon 05, 04:40 PM12,6 ºC64,4 %953 hPa0,00 l/m2 0º N 26,4 km/h48,0 km/h235.2 Lux
Mon 05, 04:45 PM12,5 ºC68,1 %953 hPa0,00 l/m2 337,5º NNO 19,8 km/h39,9 km/h139.3 Lux
Mon 05, 04:50 PM12,4 ºC67,8 %953 hPa0,00 l/m2 337,5º NNO 23,7 km/h43,1 km/h466.6 Lux
Mon 05, 04:55 PM12,7 ºC67,8 %953 hPa0,00 l/m2 337,5º NNO 16,5 km/h37,6 km/h466.6 Lux
Mon 05, 05:00 PM12,7 ºC65,9 %953 hPa0,00 l/m2 337,5º NNO 24,8 km/h59,0 km/h571.9 Lux
Mon 05, 05:05 PM13,0 ºC63,8 %953 hPa0,00 l/m2 337,5º NNO 26,0 km/h49,1 km/h466.6 Lux
Mon 05, 05:10 PM12,7 ºC66,8 %953 hPa0,00 l/m2 337,5º NNO 19,4 km/h49,4 km/h387.3 Lux
Mon 05, 05:15 PM12,9 ºC63,7 %953 hPa0,00 l/m2 315º NO 14,5 km/h27,8 km/h156.5 Lux
Mon 05, 05:20 PM12,9 ºC64,7 %953 hPa0,00 l/m2 337,5º NNO 18,9 km/h45,7 km/h104.1 Lux
Mon 05, 05:25 PM12,3 ºC67,5 %953 hPa0,00 l/m2 337,5º NNO 23,0 km/h38,4 km/h90.1 Lux
Mon 05, 05:30 PM12,2 ºC68,0 %953 hPa0,00 l/m2 337,5º NNO 22,1 km/h47,4 km/h76.2 Lux
Mon 05, 05:35 PM12,1 ºC69,7 %953 hPa0,00 l/m2 337,5º NNO 19,8 km/h41,9 km/h95.6 Lux
Mon 05, 05:40 PM12,0 ºC71,3 %953 hPa0,00 l/m2 337,5º NNO 18,5 km/h42,5 km/h63.2 Lux
Mon 05, 05:45 PM11,9 ºC72,8 %954 hPa0,00 l/m2 337,5º NNO 19,2 km/h36,4 km/h859.6 Lux
Mon 05, 05:50 PM11,9 ºC73,7 %954 hPa0,00 l/m2 337,5º NNO 12,0 km/h17,4 km/h60.8 Lux
Mon 05, 05:55 PM11,8 ºC75,5 %954 hPa0,00 l/m2 45º NE 9,8 km/h16,8 km/h43.1 Lux
Mon 05, 06:00 PM11,7 ºC77,6 %954 hPa0,00 l/m2 337,5º NNO 7,1 km/h12,7 km/h24.8 Lux
Mon 05, 06:05 PM11,6 ºC78,7 %954 hPa0,00 l/m2 337,5º NNO 8,4 km/h18,5 km/h17.5 Lux
Mon 05, 06:10 PM11,7 ºC77,8 %954 hPa0,00 l/m2 45º NE 14,7 km/h35,6 km/h16 Lux
Mon 05, 06:15 PM11,8 ºC76,2 %954 hPa0,00 l/m2 337,5º NNO 16,9 km/h40,5 km/h8.2 Lux
Mon 05, 06:20 PM11,7 ºC76,7 %954 hPa0,00 l/m2 0º N 16,5 km/h32,9 km/h5.7 Lux
Mon 05, 06:25 PM11,7 ºC77,5 %954 hPa0,00 l/m2 337,5º NNO 22,9 km/h54,6 km/h4 Lux
Mon 05, 06:30 PM11,6 ºC78,3 %954 hPa0,00 l/m2 337,5º NNO 22,1 km/h46,0 km/h3 Lux
Mon 05, 06:35 PM11,5 ºC80,7 %954 hPa0,00 l/m2 337,5º NNO 16,0 km/h31,2 km/h2.5 Lux
Mon 05, 06:40 PM11,4 ºC82,5 %954 hPa0,00 l/m2 157,5º SSE 4,4 km/h24,0 km/h2.2 Lux
Mon 05, 06:45 PM11,2 ºC85,9 %954 hPa0,00 l/m2 337,5º NNO 7,9 km/h17,6 km/h2.3 Lux
Mon 05, 07:30 PM10,7 ºC93,4 %955 hPa0,00 l/m2 337,5º NNO 5,7 km/h11,6 km/h2.3 Lux
Mon 05, 07:35 PM10,7 ºC94,5 %955 hPa0,00 l/m2 315º NO 14,6 km/h34,4 km/h2.2 Lux
Mon 05, 07:40 PM10,8 ºC94,6 %955 hPa0,00 l/m2 202,5º SSO 12,1 km/h31,2 km/h2.3 Lux
Mon 05, 07:45 PM10,9 ºC94,7 %955 hPa0,00 l/m2 45º NE 6,1 km/h21,1 km/h2.3 Lux
Mon 05, 07:50 PM10,8 ºC94,3 %955 hPa0,00 l/m2 157,5º SSE 8,1 km/h16,8 km/h2.2 Lux
Mon 05, 07:55 PM10,9 ºC93,3 %955 hPa0,00 l/m2 315º NO 6,8 km/h13,3 km/h2.3 Lux
Mon 05, 08:00 PM10,9 ºC93,2 %955 hPa0,00 l/m2 0º N 6,7 km/h15,0 km/h2.3 Lux
Mon 05, 08:05 PM10,9 ºC91,7 %955 hPa0,00 l/m2 337,5º NNO 6,2 km/h14,4 km/h2.3 Lux
Mon 05, 08:10 PM10,8 ºC91,9 %956 hPa0,00 l/m2 315º NO 6,0 km/h13,9 km/h2.3 Lux
Mon 05, 08:15 PM10,7 ºC92,3 %956 hPa0,00 l/m2 0º N 4,1 km/h7,8 km/h2.1 Lux
Mon 05, 08:20 PM10,6 ºC93,9 %956 hPa0,00 l/m2 202,5º SSO 5,3 km/h23,7 km/h2.1 Lux
Mon 05, 08:25 PM10,6 ºC94,2 %956 hPa0,00 l/m2 247,5º OSO 3,4 km/h8,7 km/h2.3 Lux
Mon 05, 08:30 PM10,6 ºC94,4 %956 hPa0,00 l/m2 315º NO 7,1 km/h24,6 km/h2.4 Lux
Mon 05, 08:35 PM10,6 ºC93,2 %956 hPa0,00 l/m2 67,5º ENE 4,9 km/h14,4 km/h2.3 Lux
Mon 05, 08:40 PM10,5 ºC94,8 %956 hPa0,00 l/m2 315º NO 10,4 km/h28,0 km/h2.3 Lux
Mon 05, 08:45 PM10,5 ºC93,2 %956 hPa0,00 l/m2 225º SO 6,9 km/h14,7 km/h2.4 Lux
Mon 05, 08:50 PM10,6 ºC92,4 %956 hPa0,00 l/m2 337,5º NNO 6,3 km/h12,1 km/h2.3 Lux
Mon 05, 08:55 PM10,6 ºC92,8 %956 hPa0,00 l/m2 337,5º NNO 5,5 km/h15,3 km/h2.2 Lux
Mon 05, 09:00 PM10,6 ºC92,5 %956 hPa0,00 l/m2 337,5º NNO 11,3 km/h26,9 km/h2.3 Lux
Mon 05, 09:05 PM10,5 ºC96,1 %956 hPa0,00 l/m2 337,5º NNO 16,2 km/h33,8 km/h2.3 Lux
Mon 05, 09:10 PM10,2 ºC100,0 %957 hPa0,00 l/m2 45º NE 15,7 km/h35,0 km/h2.3 Lux
Mon 05, 09:15 PM10,3 ºC100,0 %957 hPa0,00 l/m2 337,5º NNO 7,4 km/h23,7 km/h2.2 Lux
Mon 05, 09:20 PM10,0 ºC100,0 %957 hPa0,00 l/m2 45º NE 5,1 km/h11,3 km/h2.2 Lux
Mon 05, 09:25 PM9,6 ºC100,0 %957 hPa0,00 l/m2 315º NO 4,4 km/h15,3 km/h2.3 Lux
Mon 05, 09:30 PM9,6 ºC100,0 %957 hPa0,00 l/m2 315º NO 5,0 km/h13,3 km/h2.3 Lux
Mon 05, 09:36 PM9,5 ºC100,0 %957 hPa0,00 l/m2 225º SO 2,2 km/h13,9 km/h2.3 Lux
Mon 05, 09:41 PM9,5 ºC100,0 %957 hPa0,00 l/m2 337,5º NNO 0,9 km/h3,5 km/h2.3 Lux
Mon 05, 09:46 PM9,4 ºC100,0 %957 hPa0,00 l/m2 157,5º SSE 2,1 km/h6,4 km/h2.2 Lux
Mon 05, 09:51 PM9,5 ºC100,0 %957 hPa0,00 l/m2 315º NO 3,4 km/h10,4 km/h2.2 Lux
Mon 05, 09:56 PM9,6 ºC100,0 %957 hPa0,00 l/m2 45º NE 1,2 km/h6,1 km/h2.3 Lux
Mon 05, 10:01 PM9,6 ºC100,0 %957 hPa0,00 l/m2 225º SO 1,2 km/h4,9 km/h2.2 Lux
Mon 05, 10:06 PM9,7 ºC100,0 %957 hPa0,00 l/m2 225º SO 1,1 km/h6,4 km/h2.4 Lux
Mon 05, 10:11 PM9,8 ºC100,0 %957 hPa0,00 l/m2 337,5º NNO 3,5 km/h10,4 km/h2.4 Lux
Mon 05, 10:16 PM10,0 ºC100,0 %957 hPa0,00 l/m2 315º NO 1,5 km/h4,3 km/h2.1 Lux
Mon 05, 10:21 PM10,0 ºC100,0 %957 hPa0,00 l/m2 315º NO 4,9 km/h15,0 km/h2.3 Lux
Mon 05, 10:26 PM10,1 ºC100,0 %957 hPa0,00 l/m2 315º NO 2,1 km/h8,1 km/h2.2 Lux
Mon 05, 10:31 PM9,9 ºC100,0 %957 hPa0,00 l/m2 67,5º ENE 2,3 km/h10,4 km/h2.3 Lux
Mon 05, 10:36 PM9,9 ºC100,0 %957 hPa0,00 l/m2 315º NO 1,6 km/h7,8 km/h2.2 Lux
Mon 05, 10:41 PM9,7 ºC100,0 %957 hPa0,00 l/m2 337,5º NNO 1,5 km/h9,3 km/h2.3 Lux
Mon 05, 10:46 PM9,7 ºC100,0 %957 hPa0,00 l/m2 45º NE 0,3 km/h2,9 km/h2.2 Lux
Mon 05, 10:51 PM9,6 ºC100,0 %957 hPa0,00 l/m2 315º NO 1,2 km/h4,9 km/h2.2 Lux
Mon 05, 10:56 PM9,7 ºC100,0 %957 hPa0,00 l/m2 315º NO 2,2 km/h6,4 km/h2.3 Lux
Mon 05, 11:01 PM9,9 ºC100,0 %957 hPa0,00 l/m2 0º N 1,3 km/h9,3 km/h2.3 Lux
Mon 05, 11:06 PM9,9 ºC100,0 %957 hPa0,00 l/m2 0º N 1,0 km/h4,6 km/h2.1 Lux
Mon 05, 11:11 PM9,9 ºC100,0 %957 hPa0,00 l/m2 157,5º SSE 1,8 km/h7,8 km/h2.3 Lux
Mon 05, 11:16 PM9,8 ºC100,0 %957 hPa0,00 l/m2 337,5º NNO 2,3 km/h9,3 km/h2.2 Lux
Mon 05, 11:21 PM9,8 ºC100,0 %957 hPa0,00 l/m2 0º N 4,2 km/h11,3 km/h2.3 Lux
Mon 05, 11:26 PM9,7 ºC100,0 %957 hPa0,00 l/m2 225º SO 3,5 km/h14,4 km/h2.3 Lux
Mon 05, 11:31 PM9,8 ºC100,0 %957 hPa0,00 l/m2 315º NO 4,1 km/h15,0 km/h2.4 Lux
Mon 05, 11:36 PM9,8 ºC100,0 %957 hPa0,00 l/m2 315º NO 1,5 km/h6,9 km/h2.3 Lux
Mon 05, 11:41 PM9,7 ºC100,0 %957 hPa0,00 l/m2 337,5º NNO 3,5 km/h9,3 km/h2.2 Lux
Mon 05, 11:46 PM9,6 ºC100,0 %957 hPa0,00 l/m2 0º N 2,0 km/h11,0 km/h2.3 Lux
Mon 05, 11:51 PM9,5 ºC100,0 %957 hPa0,00 l/m2 337,5º NNO 0,1 km/h1,2 km/h2.3 Lux
Mon 05, 11:56 PM9,3 ºC100,0 %957 hPa0,00 l/m2 0º N 0,1 km/h0,6 km/h2.2 Lux
Tue 06, 12:01 AM9,3 ºC100,0 %957 hPa0,00 l/m2 0º N 0,2 km/h3,7 km/h2.3 Lux
Tue 06, 12:06 AM9,1 ºC100,0 %957 hPa0,00 l/m2 45º NE 0,0 km/h0,6 km/h2.2 Lux
Tue 06, 12:11 AM9,0 ºC100,0 %957 hPa0,00 l/m2 0º N 0,0 km/h0,0 km/h2.4 Lux
Tue 06, 12:16 AM9,0 ºC100,0 %957 hPa0,00 l/m2 0º N 0,0 km/h0,0 km/h2.4 Lux
Tue 06, 12:21 AM8,8 ºC100,0 %958 hPa0,00 l/m2 45º NE 0,0 km/h0,0 km/h2.3 Lux
Tue 06, 12:26 AM8,7 ºC100,0 %958 hPa0,00 l/m2 45º NE 0,0 km/h0,0 km/h2.2 Lux
Tue 06, 12:31 AM8,6 ºC100,0 %958 hPa0,00 l/m2 0º N 0,0 km/h0,0 km/h2.2 Lux
Tue 06, 12:36 AM8,7 ºC100,0 %958 hPa0,00 l/m2 0º N 0,0 km/h0,0 km/h2.2 Lux
Tue 06, 12:41 AM8,5 ºC100,0 %958 hPa0,00 l/m2 0º N 0,0 km/h0,3 km/h2.3 Lux
Tue 06, 12:46 AM8,5 ºC100,0 %958 hPa0,00 l/m2 0º N 0,0 km/h0,0 km/h2.3 Lux
Tue 06, 12:51 AM8,6 ºC100,0 %958 hPa0,00 l/m2 0º N 0,0 km/h0,0 km/h2.2 Lux
Tue 06, 12:56 AM8,5 ºC100,0 %958 hPa0,00 l/m2 67,5º ENE 0,0 km/h0,0 km/h2.3 Lux
Tue 06, 01:01 AM8,6 ºC100,0 %958 hPa0,00 l/m2 0º N 0,0 km/h0,0 km/h2.1 Lux
Tue 06, 01:06 AM8,7 ºC100,0 %958 hPa0,00 l/m2 67,5º ENE 0,0 km/h0,3 km/h2.4 Lux
Tue 06, 01:11 AM8,7 ºC100,0 %958 hPa0,00 l/m2 0º N 0,1 km/h0,9 km/h2.2 Lux
Tue 06, 01:16 AM8,7 ºC100,0 %958 hPa0,00 l/m2 0º N 0,1 km/h0,6 km/h2.2 Lux
Tue 06, 01:21 AM8,8 ºC100,0 %958 hPa0,00 l/m2 0º N 0,0 km/h0,3 km/h2.2 Lux
Tue 06, 01:26 AM8,8 ºC100,0 %958 hPa0,00 l/m2 337,5º NNO 0,0 km/h0,3 km/h2.2 Lux
Tue 06, 01:31 AM8,8 ºC100,0 %958 hPa0,00 l/m2 0º N 0,3 km/h1,2 km/h2.3 Lux
Tue 06, 01:36 AM9,0 ºC100,0 %958 hPa0,00 l/m2 45º NE 0,0 km/h0,0 km/h2.2 Lux
Tue 06, 01:41 AM8,8 ºC100,0 %958 hPa0,00 l/m2 67,5º ENE 0,0 km/h0,0 km/h2.3 Lux
Tue 06, 01:46 AM8,8 ºC100,0 %958 hPa0,00 l/m2 67,5º ENE 0,0 km/h0,0 km/h2.3 Lux
Tue 06, 01:51 AM8,8 ºC100,0 %958 hPa0,00 l/m2 247,5º OSO 0,0 km/h0,3 km/h2.2 Lux
Tue 06, 01:56 AM8,8 ºC100,0 %958 hPa0,00 l/m2 45º NE 0,0 km/h0,0 km/h2.2 Lux
Tue 06, 02:01 AM8,7 ºC100,0 %958 hPa0,00 l/m2 45º NE 0,0 km/h0,0 km/h2.3 Lux
Tue 06, 02:06 AM8,6 ºC100,0 %958 hPa0,00 l/m2 337,5º NNO 0,0 km/h0,3 km/h2.4 Lux
Tue 06, 02:11 AM8,8 ºC100,0 %958 hPa0,00 l/m2 337,5º NNO 1,2 km/h7,8 km/h2.3 Lux
Tue 06, 02:16 AM8,9 ºC100,0 %958 hPa0,00 l/m2 337,5º NNO 0,0 km/h0,3 km/h2.2 Lux
Tue 06, 02:21 AM9,0 ºC100,0 %958 hPa0,00 l/m2 0º N 1,6 km/h6,4 km/h2.2 Lux
Tue 06, 02:26 AM8,9 ºC100,0 %958 hPa0,00 l/m2 337,5º NNO 0,0 km/h0,0 km/h2.2 Lux
Tue 06, 02:31 AM8,6 ºC100,0 %958 hPa0,00 l/m2 337,5º NNO 0,3 km/h2,3 km/h2.2 Lux
Tue 06, 02:36 AM8,6 ºC100,0 %958 hPa0,00 l/m2 0º N 0,0 km/h0,0 km/h2.3 Lux
Tue 06, 02:41 AM8,4 ºC100,0 %958 hPa0,00 l/m2 0º N 0,0 km/h0,0 km/h2.2 Lux
Tue 06, 02:46 AM8,3 ºC100,0 %958 hPa0,00 l/m2 337,5º NNO 0,0 km/h0,0 km/h2.2 Lux
Tue 06, 02:51 AM8,3 ºC100,0 %958 hPa0,00 l/m2 337,5º NNO 0,0 km/h0,3 km/h2.2 Lux
Tue 06, 02:56 AM8,3 ºC100,0 %958 hPa0,00 l/m2 0º N 0,0 km/h0,3 km/h2.1 Lux
Tue 06, 03:01 AM8,2 ºC100,0 %958 hPa0,00 l/m2 225º SO 0,0 km/h0,3 km/h2.2 Lux
Tue 06, 03:06 AM8,2 ºC100,0 %958 hPa0,00 l/m2 45º NE 0,0 km/h0,0 km/h2.2 Lux
Tue 06, 03:11 AM8,1 ºC100,0 %958 hPa0,00 l/m2 0º N 0,0 km/h0,3 km/h2.3 Lux
Tue 06, 03:16 AM8,2 ºC100,0 %958 hPa0,00 l/m2 45º NE 0,3 km/h2,3 km/h2.3 Lux
Tue 06, 03:21 AM8,1 ºC100,0 %958 hPa0,00 l/m2 337,5º NNO 0,0 km/h0,0 km/h2.3 Lux
Tue 06, 03:26 AM8,1 ºC100,0 %958 hPa0,00 l/m2 247,5º OSO 0,1 km/h1,4 km/h2.1 Lux
Tue 06, 03:31 AM8,0 ºC100,0 %958 hPa0,00 l/m2 337,5º NNO 0,0 km/h0,3 km/h2.1 Lux
Tue 06, 03:36 AM8,0 ºC100,0 %958 hPa0,00 l/m2 337,5º NNO 0,0 km/h0,3 km/h2.4 Lux
Tue 06, 03:41 AM8,0 ºC100,0 %958 hPa0,00 l/m2 337,5º NNO 0,0 km/h0,0 km/h2.3 Lux
Tue 06, 03:46 AM8,1 ºC100,0 %958 hPa0,00 l/m2 337,5º NNO 0,0 km/h0,6 km/h2.3 Lux
Tue 06, 03:51 AM8,1 ºC100,0 %958 hPa0,00 l/m2 45º NE 0,0 km/h0,3 km/h2.1 Lux
Tue 06, 03:56 AM8,0 ºC100,0 %958 hPa0,00 l/m2 337,5º NNO 0,2 km/h1,2 km/h2.4 Lux
Tue 06, 04:01 AM8,1 ºC100,0 %958 hPa0,00 l/m2 337,5º NNO 0,1 km/h2,3 km/h2.2 Lux
Tue 06, 04:06 AM8,2 ºC100,0 %958 hPa0,00 l/m2 337,5º NNO 0,1 km/h1,7 km/h2.2 Lux
Tue 06, 04:11 AM8,0 ºC100,0 %958 hPa0,00 l/m2 337,5º NNO 0,1 km/h1,2 km/h2.3 Lux
Tue 06, 04:16 AM8,0 ºC100,0 %958 hPa0,00 l/m2 0º N 0,0 km/h0,3 km/h2.3 Lux
Tue 06, 04:21 AM7,9 ºC100,0 %958 hPa0,00 l/m2 157,5º SSE 0,0 km/h0,0 km/h2.2 Lux
Tue 06, 04:26 AM7,8 ºC100,0 %958 hPa0,00 l/m2 315º NO 0,0 km/h0,0 km/h2.2 Lux
Tue 06, 04:31 AM7,8 ºC100,0 %958 hPa0,00 l/m2 337,5º NNO 0,0 km/h0,3 km/h2.4 Lux
Tue 06, 04:36 AM7,7 ºC100,0 %958 hPa0,00 l/m2 0º N 0,0 km/h0,3 km/h2.1 Lux
Tue 06, 04:41 AM7,7 ºC100,0 %958 hPa0,00 l/m2 0º N 0,0 km/h0,3 km/h2.3 Lux
Tue 06, 04:46 AM7,8 ºC100,0 %958 hPa0,00 l/m2 67,5º ENE 0,0 km/h0,0 km/h2.3 Lux
Tue 06, 04:51 AM7,7 ºC100,0 %958 hPa0,00 l/m2 45º NE 0,0 km/h0,0 km/h2.2 Lux
Tue 06, 04:56 AM7,8 ºC100,0 %958 hPa0,00 l/m2 0º N 0,0 km/h0,0 km/h2.4 Lux
Tue 06, 05:01 AM7,7 ºC100,0 %958 hPa0,00 l/m2 0º N 0,0 km/h0,0 km/h2.2 Lux
Tue 06, 05:06 AM7,8 ºC100,0 %958 hPa0,00 l/m2 337,5º NNO 0,0 km/h0,0 km/h2.3 Lux
Tue 06, 05:11 AM7,9 ºC100,0 %958 hPa0,00 l/m2 0º N 0,0 km/h0,0 km/h2.2 Lux
Tue 06, 05:16 AM8,0 ºC100,0 %958 hPa0,00 l/m2 337,5º NNO 0,0 km/h0,0 km/h2.3 Lux
Tue 06, 05:21 AM7,9 ºC100,0 %958 hPa0,00 l/m2 0º N 0,0 km/h0,3 km/h2.3 Lux
Tue 06, 05:26 AM7,9 ºC100,0 %958 hPa0,00 l/m2 337,5º NNO 0,0 km/h0,0 km/h2.2 Lux
Tue 06, 05:31 AM7,7 ºC100,0 %958 hPa0,00 l/m2 0º N 0,0 km/h0,0 km/h2.4 Lux
Tue 06, 05:36 AM7,6 ºC100,0 %958 hPa0,00 l/m2 337,5º NNO 0,0 km/h0,0 km/h2.3 Lux
Tue 06, 05:41 AM7,7 ºC100,0 %958 hPa0,00 l/m2 337,5º NNO 0,0 km/h0,0 km/h2.2 Lux
Tue 06, 05:46 AM7,6 ºC100,0 %958 hPa0,00 l/m2 0º N 0,0 km/h0,3 km/h2.1 Lux
Tue 06, 05:51 AM7,7 ºC100,0 %958 hPa0,00 l/m2 337,5º NNO 0,9 km/h4,6 km/h2.3 Lux
Tue 06, 05:56 AM7,7 ºC100,0 %958 hPa0,00 l/m2 337,5º NNO 2,9 km/h11,0 km/h2.2 Lux
Tue 06, 06:01 AM7,8 ºC100,0 %959 hPa0,00 l/m2 0º N 2,1 km/h13,9 km/h2.3 Lux
Tue 06, 06:06 AM7,8 ºC100,0 %959 hPa0,00 l/m2 0º N 0,0 km/h0,0 km/h2.3 Lux
Tue 06, 06:11 AM7,7 ºC100,0 %959 hPa0,00 l/m2 0º N 0,0 km/h0,0 km/h2.1 Lux
Tue 06, 06:16 AM7,5 ºC100,0 %958 hPa0,00 l/m2 0º N 0,0 km/h0,0 km/h2.3 Lux
Tue 06, 06:21 AM7,3 ºC100,0 %959 hPa0,00 l/m2 0º N 0,0 km/h0,0 km/h2.3 Lux
Tue 06, 06:26 AM7,2 ºC100,0 %959 hPa0,00 l/m2 0º N 0,0 km/h0,0 km/h2.3 Lux
Tue 06, 06:31 AM7,3 ºC100,0 %959 hPa0,00 l/m2 0º N 0,0 km/h0,0 km/h2.3 Lux
Tue 06, 06:36 AM7,4 ºC100,0 %959 hPa0,00 l/m2 0º N 0,0 km/h0,0 km/h2.3 Lux
Tue 06, 06:41 AM7,3 ºC100,0 %959 hPa0,00 l/m2 0º N 0,0 km/h0,0 km/h2.3 Lux
Tue 06, 06:46 AM7,3 ºC100,0 %959 hPa0,00 l/m2 0º N 0,0 km/h0,0 km/h2.2 Lux
Tue 06, 06:51 AM7,5 ºC100,0 %959 hPa0,00 l/m2 0º N 0,0 km/h0,0 km/h2.1 Lux
Tue 06, 06:56 AM7,5 ºC100,0 %959 hPa0,00 l/m2 0º N 0,0 km/h0,0 km/h2.3 Lux
Tue 06, 07:01 AM7,4 ºC100,0 %959 hPa0,00 l/m2 0º N 0,0 km/h0,0 km/h2.3 Lux
Tue 06, 07:06 AM7,2 ºC100,0 %959 hPa0,00 l/m2 0º N 0,0 km/h0,0 km/h2.3 Lux
Tue 06, 07:11 AM7,4 ºC100,0 %959 hPa0,00 l/m2 45º NE 0,0 km/h0,0 km/h2.2 Lux
Tue 06, 07:16 AM7,3 ºC100,0 %959 hPa0,00 l/m2 0º N 0,0 km/h0,0 km/h2.3 Lux
Tue 06, 07:21 AM7,3 ºC100,0 %959 hPa0,00 l/m2 0º N 0,0 km/h0,0 km/h2.4 Lux
Tue 06, 07:26 AM7,2 ºC100,0 %959 hPa0,00 l/m2 45º NE 0,0 km/h0,0 km/h2.3 Lux
Tue 06, 07:31 AM7,5 ºC100,0 %959 hPa0,00 l/m2 0º N 0,0 km/h0,0 km/h2.9 Lux
Tue 06, 07:36 AM7,4 ºC100,0 %959 hPa0,00 l/m2 202,5º SSO 0,0 km/h0,0 km/h3.7 Lux
Tue 06, 07:41 AM7,5 ºC100,0 %959 hPa0,00 l/m2 0º N 0,0 km/h0,0 km/h5.3 Lux
Tue 06, 07:46 AM7,3 ºC100,0 %959 hPa0,00 l/m2 0º N 0,0 km/h0,0 km/h7.8 Lux
Tue 06, 07:51 AM7,1 ºC100,0 %959 hPa0,00 l/m2 337,5º NNO 0,0 km/h0,0 km/h11.1 Lux
Tue 06, 07:56 AM6,9 ºC100,0 %959 hPa0,00 l/m2 337,5º NNO 0,0 km/h0,0 km/h15.1 Lux
Tue 06, 08:01 AM7,0 ºC100,0 %959 hPa0,00 l/m2 0º N 0,0 km/h0,0 km/h19.8 Lux
Tue 06, 08:06 AM7,1 ºC100,0 %959 hPa0,00 l/m2 0º N 0,0 km/h0,0 km/h27.4 Lux
Tue 06, 08:11 AM6,9 ºC100,0 %959 hPa0,00 l/m2 0º N 0,0 km/h0,0 km/h35.8 Lux
Tue 06, 08:16 AM7,0 ºC100,0 %959 hPa0,00 l/m2 0º N 0,0 km/h0,0 km/h46.1 Lux
Tue 06, 08:21 AM7,0 ºC100,0 %959 hPa0,00 l/m2 45º NE 0,0 km/h0,0 km/h53.2 Lux
Tue 06, 08:26 AM7,3 ºC100,0 %960 hPa0,00 l/m2 0º N 0,0 km/h0,0 km/h65.1 Lux
Tue 06, 08:31 AM7,2 ºC100,0 %960 hPa0,00 l/m2 0º N 0,0 km/h0,0 km/h80.4 Lux
Tue 06, 08:36 AM7,3 ºC100,0 %960 hPa0,00 l/m2 0º N 0,0 km/h0,0 km/h95.6 Lux
Tue 06, 08:41 AM7,4 ºC100,0 %960 hPa0,00 l/m2 0º N 0,0 km/h0,0 km/h109.4 Lux
Tue 06, 08:46 AM7,4 ºC100,0 %960 hPa0,00 l/m2 0º N 0,0 km/h0,0 km/h119.8 Lux
Tue 06, 08:51 AM7,9 ºC100,0 %960 hPa0,00 l/m2 45º NE 0,0 km/h0,0 km/h135.4 Lux
Tue 06, 08:56 AM7,8 ºC100,0 %960 hPa0,00 l/m2 0º N 0,0 km/h0,0 km/h154.2 Lux
Tue 06, 09:01 AM7,7 ºC100,0 %960 hPa0,00 l/m2 0º N 0,0 km/h0,0 km/h147.5 Lux
Tue 06, 09:06 AM7,6 ºC100,0 %960 hPa0,00 l/m2 0º N 0,0 km/h0,0 km/h168.8 Lux
Tue 06, 09:11 AM7,6 ºC100,0 %960 hPa0,00 l/m2 0º N 0,0 km/h0,0 km/h166.2 Lux
Tue 06, 09:16 AM7,7 ºC100,0 %960 hPa0,00 l/m2 0º N 0,0 km/h0,0 km/h179.7 Lux
Tue 06, 09:21 AM7,7 ºC100,0 %960 hPa0,00 l/m2 0º N 0,0 km/h0,0 km/h191.6 Lux
Tue 06, 09:26 AM7,8 ºC100,0 %960 hPa0,00 l/m2 0º N 0,0 km/h0,0 km/h208.2 Lux
Tue 06, 09:31 AM8,0 ºC100,0 %960 hPa0,00 l/m2 0º N 0,0 km/h0,0 km/h227 Lux
Tue 06, 09:36 AM8,1 ºC100,0 %961 hPa0,00 l/m2 45º NE 0,0 km/h0,0 km/h223 Lux
Tue 06, 09:41 AM8,3 ºC100,0 %961 hPa0,00 l/m2 0º N 0,0 km/h0,0 km/h262.5 Lux
Tue 06, 09:46 AM8,5 ºC100,0 %961 hPa0,00 l/m2 0º N 0,0 km/h0,0 km/h272.7 Lux
Tue 06, 09:51 AM8,6 ºC100,0 %961 hPa0,00 l/m2 0º N 0,0 km/h0,0 km/h283.4 Lux
Tue 06, 09:56 AM8,7 ºC100,0 %961 hPa0,00 l/m2 0º N 0,0 km/h0,0 km/h300.6 Lux
Tue 06, 10:01 AM8,8 ºC100,0 %961 hPa0,00 l/m2 45º NE 0,0 km/h0,0 km/h300.6 Lux
Tue 06, 10:06 AM9,0 ºC100,0 %961 hPa0,00 l/m2 0º N 0,0 km/h0,0 km/h332.9 Lux
Tue 06, 10:11 AM9,2 ºC100,0 %961 hPa0,00 l/m2 0º N 0,0 km/h0,0 km/h378.8 Lux
Tue 06, 10:16 AM9,4 ºC100,0 %961 hPa0,00 l/m2 0º N 0,0 km/h0,0 km/h370.5 Lux
Tue 06, 10:21 AM9,4 ºC100,0 %961 hPa0,00 l/m2 45º NE 0,0 km/h0,0 km/h405.2 Lux
Tue 06, 10:26 AM9,6 ºC100,0 %961 hPa0,00 l/m2 0º N 0,0 km/h0,0 km/h455.5 Lux
Tue 06, 10:31 AM9,6 ºC100,0 %961 hPa0,00 l/m2 0º N 0,1 km/h2,3 km/h490.1 Lux
Tue 06, 10:36 AM9,8 ºC100,0 %961 hPa0,00 l/m2 0º N 0,0 km/h0,0 km/h515.4 Lux
Tue 06, 10:41 AM9,9 ºC100,0 %961 hPa0,00 l/m2 45º NE 0,0 km/h0,0 km/h587.4 Lux
Tue 06, 10:46 AM10,6 ºC100,0 %961 hPa0,00 l/m2 0º N 0,0 km/h0,0 km/h656 Lux
Tue 06, 10:51 AM11,6 ºC98,6 %961 hPa0,00 l/m2 45º NE 0,0 km/h0,0 km/h694.7 Lux
Tue 06, 10:56 AM13,1 ºC88,8 %961 hPa0,00 l/m2 45º NE 0,0 km/h0,3 km/h656 Lux
Tue 06, 11:01 AM11,5 ºC98,3 %961 hPa0,00 l/m2 0º N 0,0 km/h0,0 km/h759.2 Lux
Tue 06, 11:06 AM12,9 ºC90,3 %961 hPa0,00 l/m2 0º N 1,2 km/h8,4 km/h859.6 Lux
Tue 06, 11:11 AM12,8 ºC86,5 %961 hPa0,00 l/m2 45º NE 0,0 km/h0,3 km/h948 Lux
Tue 06, 11:16 AM12,8 ºC86,2 %961 hPa0,00 l/m2 0º N 0,0 km/h0,3 km/h1050.3 Lux
Tue 06, 11:21 AM12,4 ºC88,9 %961 hPa0,00 l/m2 0º N 0,0 km/h0,0 km/h1087.9 Lux
Tue 06, 11:26 AM14,4 ºC78,6 %961 hPa0,00 l/m2 67,5º ENE 0,1 km/h0,9 km/h1127.5 Lux
Tue 06, 11:31 AM13,3 ºC79,7 %961 hPa0,00 l/m2 337,5º NNO 0,6 km/h6,4 km/h1308.8 Lux
Tue 06, 11:36 AM13,4 ºC78,4 %961 hPa0,00 l/m2 45º NE 0,6 km/h5,2 km/h1308.8 Lux
Tue 06, 11:41 AM13,3 ºC74,8 %961 hPa0,00 l/m2 67,5º ENE 0,2 km/h2,0 km/h1415.6 Lux
Tue 06, 11:46 AM13,1 ºC74,2 %961 hPa0,00 l/m2 0º N 2,4 km/h8,7 km/h1415.6 Lux
Tue 06, 11:51 AM12,7 ºC76,8 %961 hPa0,00 l/m2 337,5º NNO 0,2 km/h1,2 km/h1535.5 Lux
Tue 06, 11:56 AM13,9 ºC71,7 %961 hPa0,00 l/m2 337,5º NNO 0,8 km/h5,2 km/h1601 Lux
Tue 06, 12:01 PM13,8 ºC68,5 %961 hPa0,00 l/m2 337,5º NNO 0,1 km/h1,2 km/h1535.5 Lux
Tue 06, 12:06 PM14,6 ºC65,7 %961 hPa0,00 l/m2 67,5º ENE 1,6 km/h9,5 km/h1473.8 Lux
Tue 06, 12:11 PM13,7 ºC68,5 %961 hPa0,00 l/m2 315º NO 5,0 km/h12,1 km/h1601 Lux
Tue 06, 12:16 PM13,1 ºC73,1 %961 hPa0,00 l/m2 202,5º SSO 2,3 km/h6,9 km/h1535.5 Lux
Tue 06, 12:21 PM13,9 ºC68,7 %961 hPa0,00 l/m2 315º NO 0,7 km/h2,9 km/h1535.5 Lux
Tue 06, 12:26 PM14,2 ºC67,3 %961 hPa0,00 l/m2 0º N 3,6 km/h13,6 km/h1535.5 Lux
Tue 06, 12:31 PM13,7 ºC70,4 %961 hPa0,00 l/m2 247,5º OSO 3,0 km/h12,4 km/h1473.8 Lux
Tue 06, 12:36 PM13,2 ºC72,7 %961 hPa0,00 l/m2 337,5º NNO 2,0 km/h10,4 km/h1744.7 Lux
Tue 06, 12:55 PM14,2 ºC67,9 %960 hPa0,00 l/m2 337,5º NNO 4,8 km/h20,5 km/h1744.7 Lux
Tue 06, 01:01 PM13,6 ºC72,0 %960 hPa0,00 l/m2 315º NO 12,6 km/h28,3 km/h1908 Lux
Tue 06, 01:06 PM13,3 ºC70,8 %960 hPa0,00 l/m2 337,5º NNO 5,7 km/h22,2 km/h715.3 Lux
Tue 06, 01:11 PM13,8 ºC69,1 %960 hPa0,00 l/m2 337,5º NNO 3,5 km/h24,3 km/h1259.7 Lux
Tue 06, 01:16 PM13,3 ºC71,5 %960 hPa0,00 l/m2 67,5º ENE 2,4 km/h6,4 km/h326.1 Lux
Tue 06, 01:21 PM13,1 ºC73,8 %960 hPa0,00 l/m2 337,5º NNO 7,2 km/h16,5 km/h515.4 Lux
Tue 06, 01:26 PM12,6 ºC75,1 %960 hPa0,00 l/m2 67,5º ENE 1,9 km/h11,3 km/h637.8 Lux
Tue 06, 01:31 PM12,9 ºC73,3 %960 hPa0,00 l/m2 337,5º NNO 6,9 km/h19,1 km/h1908 Lux
Tue 06, 01:36 PM14,3 ºC68,4 %960 hPa0,00 l/m2 337,5º NNO 13,0 km/h32,9 km/h1601 Lux
Tue 06, 01:41 PM14,0 ºC65,1 %960 hPa0,00 l/m2 337,5º NNO 13,3 km/h33,8 km/h1308.8 Lux
Tue 06, 01:46 PM14,1 ºC65,4 %960 hPa0,00 l/m2 45º NE 7,5 km/h32,1 km/h490.1 Lux
Tue 06, 04:52 PM23,6 ºC71,5 %715 hPa0,00 l/m2 45º NE 6,4 km/h31,2 km/h455.5 Lux
Tue 06, 04:57 PM14,8 ºC62,6 %959 hPa0,00 l/m2 315º NO 3,6 km/h11,6 km/h528.7 Lux
Tue 06, 05:02 PM14,5 ºC64,8 %959 hPa0,00 l/m2 45º NE 1,3 km/h5,8 km/h223 Lux
Tue 06, 05:07 PM14,5 ºC64,9 %959 hPa0,00 l/m2 45º NE 1,2 km/h4,9 km/h542.6 Lux
Tue 06, 05:12 PM14,4 ºC63,6 %959 hPa0,00 l/m2 67,5º ENE 0,4 km/h4,6 km/h370.5 Lux
Tue 06, 05:17 PM15,0 ºC63,2 %959 hPa0,00 l/m2 45º NE 0,1 km/h1,4 km/h306.7 Lux
Tue 06, 05:22 PM14,9 ºC63,0 %959 hPa0,00 l/m2 45º NE 0,8 km/h4,9 km/h201.3 Lux
Tue 06, 05:27 PM14,1 ºC66,5 %959 hPa0,00 l/m2 67,5º ENE 1,5 km/h10,4 km/h174.1 Lux
Tue 06, 05:32 PM13,7 ºC69,9 %959 hPa0,00 l/m2 45º NE 1,3 km/h5,5 km/h243.8 Lux
Tue 06, 05:37 PM13,7 ºC71,1 %959 hPa0,00 l/m2 0º N 0,6 km/h2,6 km/h185.5 Lux
Tue 06, 05:42 PM13,5 ºC71,1 %959 hPa0,00 l/m2 45º NE 0,1 km/h0,6 km/h603.5 Lux
Tue 06, 05:47 PM13,5 ºC70,7 %959 hPa0,00 l/m2 67,5º ENE 0,4 km/h2,6 km/h194.8 Lux
Tue 06, 05:52 PM13,3 ºC73,6 %959 hPa0,00 l/m2 135º SE 0,5 km/h2,9 km/h61.4 Lux
Tue 06, 05:57 PM13,1 ºC75,1 %959 hPa0,00 l/m2 112.5º ESE 0,1 km/h0,9 km/h41.7 Lux
Tue 06, 06:02 PM12,9 ºC76,4 %959 hPa0,00 l/m2 45º NE 0,0 km/h0,0 km/h35.8 Lux
Tue 06, 06:07 PM12,8 ºC79,2 %959 hPa0,00 l/m2 45º NE 0,0 km/h0,0 km/h22 Lux
Tue 06, 06:12 PM12,6 ºC80,0 %959 hPa0,00 l/m2 0º N 0,0 km/h0,0 km/h13.8 Lux
Tue 06, 06:17 PM12,5 ºC81,9 %959 hPa0,00 l/m2 337,5º NNO 0,0 km/h0,3 km/h9 Lux
Tue 06, 06:22 PM12,2 ºC84,1 %959 hPa0,00 l/m2 0º N 0,0 km/h0,3 km/h6.1 Lux
Tue 06, 06:27 PM12,1 ºC84,5 %959 hPa0,00 l/m2 337,5º NNO 1,3 km/h9,8 km/h4.4 Lux
Tue 06, 06:32 PM12,2 ºC82,6 %959 hPa0,00 l/m2 0º N 0,0 km/h0,6 km/h2.9 Lux
Tue 06, 06:37 PM11,9 ºC86,7 %959 hPa0,00 l/m2 45º NE 0,0 km/h0,0 km/h2.6 Lux
Tue 06, 06:42 PM11,7 ºC87,8 %959 hPa0,00 l/m2 45º NE 0,0 km/h0,0 km/h2.4 Lux
Tue 06, 06:47 PM11,7 ºC88,7 %959 hPa0,00 l/m2 45º NE 0,0 km/h0,0 km/h2.3 Lux
Tue 06, 06:52 PM11,4 ºC92,6 %959 hPa0,00 l/m2 0º N 0,0 km/h0,0 km/h2.3 Lux
Tue 06, 06:57 PM11,3 ºC93,7 %959 hPa0,00 l/m2 45º NE 0,0 km/h0,0 km/h2.3 Lux
Tue 06, 07:02 PM11,2 ºC95,4 %959 hPa0,00 l/m2 0º N 0,0 km/h0,0 km/h2.3 Lux
Tue 06, 07:07 PM11,4 ºC92,7 %959 hPa0,00 l/m2 45º NE 0,0 km/h0,0 km/h2.1 Lux
Tue 06, 07:12 PM11,4 ºC92,1 %959 hPa0,00 l/m2 45º NE 0,0 km/h0,0 km/h2.2 Lux
Tue 06, 07:17 PM11,1 ºC96,3 %960 hPa0,00 l/m2 0º N 0,0 km/h0,0 km/h2.1 Lux
Tue 06, 07:22 PM10,7 ºC98,4 %960 hPa0,00 l/m2 67,5º ENE 0,0 km/h0,0 km/h2.4 Lux
Tue 06, 07:27 PM10,8 ºC100,0 %960 hPa0,00 l/m2 67,5º ENE 0,0 km/h0,0 km/h2.2 Lux
Tue 06, 07:37 PM11,2 ºC94,9 %960 hPa0,00 l/m2 157,5º SSE 0,0 km/h0,0 km/h2.3 Lux
Tue 06, 07:42 PM11,3 ºC94,7 %960 hPa0,00 l/m2 202,5º SSO 0,0 km/h0,0 km/h2.3 Lux
Tue 06, 07:47 PM11,3 ºC94,0 %960 hPa0,00 l/m2 45º NE 0,0 km/h0,0 km/h2.1 Lux
Tue 06, 07:52 PM11,3 ºC95,0 %960 hPa0,00 l/m2 45º NE 0,0 km/h0,0 km/h2.3 Lux
Tue 06, 07:57 PM11,1 ºC97,4 %960 hPa0,00 l/m2 0º N 0,1 km/h0,6 km/h2.1 Lux
Tue 06, 08:02 PM10,9 ºC98,4 %960 hPa0,00 l/m2 337,5º NNO 0,0 km/h0,3 km/h2.3 Lux
Tue 06, 08:07 PM10,7 ºC100,0 %960 hPa0,00 l/m2 0º N 0,0 km/h0,3 km/h2.3 Lux
Tue 06, 08:12 PM10,6 ºC100,0 %960 hPa0,00 l/m2 225º SO 0,1 km/h0,9 km/h2.1 Lux
Tue 06, 08:17 PM10,4 ºC100,0 %960 hPa0,00 l/m2 0º N 0,2 km/h0,9 km/h2.4 Lux
Tue 06, 08:22 PM10,3 ºC100,0 %960 hPa0,00 l/m2 0º N 0,0 km/h0,0 km/h2.3 Lux
Tue 06, 08:27 PM10,3 ºC100,0 %960 hPa0,00 l/m2 0º N 0,3 km/h4,0 km/h2.3 Lux
Tue 06, 08:32 PM10,2 ºC100,0 %960 hPa0,00 l/m2 0º N 0,0 km/h0,3 km/h2.4 Lux
Tue 06, 08:37 PM10,2 ºC100,0 %960 hPa0,00 l/m2 0º N 0,0 km/h0,3 km/h2.4 Lux
Tue 06, 08:42 PM10,2 ºC100,0 %960 hPa0,00 l/m2 0º N 0,0 km/h0,3 km/h2.3 Lux
Tue 06, 08:47 PM10,2 ºC100,0 %960 hPa0,00 l/m2 45º NE 0,0 km/h0,0 km/h2.4 Lux
Tue 06, 08:52 PM9,9 ºC100,0 %960 hPa0,00 l/m2 45º NE 0,0 km/h0,0 km/h2.1 Lux
Tue 06, 08:57 PM9,9 ºC100,0 %960 hPa0,00 l/m2 0º N 0,0 km/h0,3 km/h2.2 Lux
Tue 06, 09:02 PM10,0 ºC100,0 %960 hPa0,00 l/m2 0º N 0,0 km/h0,0 km/h2.3 Lux
Tue 06, 09:07 PM9,9 ºC100,0 %960 hPa0,00 l/m2 45º NE 0,0 km/h0,3 km/h2.3 Lux
Tue 06, 09:12 PM9,9 ºC100,0 %960 hPa0,00 l/m2 0º N 0,1 km/h0,3 km/h2.2 Lux
Tue 06, 09:17 PM9,9 ºC100,0 %960 hPa0,00 l/m2 0º N 0,0 km/h0,0 km/h2.4 Lux
Tue 06, 09:22 PM10,1 ºC100,0 %960 hPa0,00 l/m2 0º N 0,0 km/h0,3 km/h2.3 Lux
Tue 06, 09:27 PM10,0 ºC100,0 %960 hPa0,00 l/m2 45º NE 0,0 km/h0,0 km/h2.3 Lux
Tue 06, 09:32 PM10,0 ºC100,0 %960 hPa0,00 l/m2 45º NE 0,0 km/h0,0 km/h2.1 Lux
Tue 06, 09:37 PM10,0 ºC100,0 %960 hPa0,00 l/m2 45º NE 0,0 km/h0,3 km/h2.2 Lux
Tue 06, 09:42 PM9,8 ºC100,0 %960 hPa0,00 l/m2 0º N 0,0 km/h0,3 km/h2.2 Lux
Tue 06, 09:47 PM9,8 ºC100,0 %960 hPa0,00 l/m2 0º N 0,1 km/h0,6 km/h2.1 Lux
Tue 06, 09:52 PM9,8 ºC100,0 %960 hPa0,00 l/m2 67,5º ENE 0,1 km/h0,6 km/h2.1 Lux
Tue 06, 09:57 PM9,8 ºC100,0 %960 hPa0,00 l/m2 0º N 0,1 km/h0,3 km/h2.3 Lux
Tue 06, 10:02 PM9,6 ºC100,0 %960 hPa0,00 l/m2 0º N 0,0 km/h0,0 km/h2.3 Lux
Tue 06, 10:07 PM9,5 ºC100,0 %960 hPa0,00 l/m2 337,5º NNO 0,0 km/h0,3 km/h2.3 Lux
Tue 06, 10:12 PM9,5 ºC100,0 %960 hPa0,00 l/m2 0º N 0,2 km/h1,4 km/h2.2 Lux
Tue 06, 10:17 PM9,7 ºC100,0 %960 hPa0,00 l/m2 0º N 0,1 km/h0,3 km/h2.2 Lux
Tue 06, 10:22 PM9,6 ºC100,0 %960 hPa0,00 l/m2 0º N 0,0 km/h0,6 km/h2.4 Lux
Tue 06, 10:27 PM9,4 ºC100,0 %960 hPa0,00 l/m2 0º N 0,1 km/h0,9 km/h2.4 Lux
Tue 06, 10:32 PM9,4 ºC100,0 %960 hPa0,00 l/m2 0º N 0,0 km/h0,0 km/h2.3 Lux
Tue 06, 10:37 PM9,3 ºC100,0 %960 hPa0,00 l/m2 45º NE 0,0 km/h0,6 km/h2.3 Lux
Tue 06, 10:42 PM9,3 ºC100,0 %960 hPa0,00 l/m2 0º N 0,0 km/h0,0 km/h2.3 Lux
Tue 06, 10:47 PM9,4 ºC100,0 %960 hPa0,00 l/m2 0º N 0,0 km/h0,0 km/h2.3 Lux
Tue 06, 10:52 PM9,5 ºC100,0 %960 hPa0,00 l/m2 45º NE 0,0 km/h0,6 km/h2.3 Lux
Tue 06, 10:57 PM9,6 ºC100,0 %960 hPa0,00 l/m2 45º NE 0,1 km/h0,3 km/h2.3 Lux
Tue 06, 11:02 PM9,5 ºC100,0 %960 hPa0,00 l/m2 0º N 0,0 km/h0,3 km/h2.3 Lux
Tue 06, 11:07 PM9,2 ºC100,0 %960 hPa0,00 l/m2 247,5º OSO 0,0 km/h0,3 km/h2.3 Lux
Tue 06, 11:12 PM9,4 ºC100,0 %960 hPa0,00 l/m2 0º N 0,0 km/h0,0 km/h2.2 Lux
Tue 06, 11:17 PM9,7 ºC100,0 %961 hPa0,00 l/m2 337,5º NNO 0,0 km/h0,3 km/h2.4 Lux
Tue 06, 11:22 PM9,9 ºC100,0 %961 hPa0,00 l/m2 157,5º SSE 0,0 km/h0,0 km/h2.1 Lux
Tue 06, 11:27 PM10,0 ºC100,0 %961 hPa0,00 l/m2 45º NE 0,3 km/h5,2 km/h2.1 Lux
Tue 06, 11:32 PM9,4 ºC100,0 %961 hPa0,00 l/m2 0º N 0,0 km/h0,0 km/h2.1 Lux
Tue 06, 11:37 PM9,1 ºC100,0 %961 hPa0,00 l/m2 0º N 0,0 km/h0,0 km/h2.2 Lux
Tue 06, 11:42 PM9,0 ºC100,0 %961 hPa0,00 l/m2 0º N 0,0 km/h0,9 km/h2.2 Lux
Tue 06, 11:47 PM8,8 ºC100,0 %961 hPa0,00 l/m2 315º NO 0,0 km/h0,3 km/h2.2 Lux
Tue 06, 11:52 PM8,8 ºC100,0 %961 hPa0,00 l/m2 0º N 0,0 km/h0,3 km/h2.3 Lux
Tue 06, 11:57 PM8,8 ºC100,0 %961 hPa0,00 l/m2 0º N 0,0 km/h0,6 km/h2.4 Lux
Wed 07, 12:02 AM8,7 ºC100,0 %961 hPa0,00 l/m2 0º N 0,0 km/h0,0 km/h2.3 Lux
Wed 07, 12:07 AM8,7 ºC100,0 %961 hPa0,00 l/m2 45º NE 0,0 km/h0,3 km/h2.2 Lux
Wed 07, 12:12 AM8,8 ºC100,0 %961 hPa0,00 l/m2 337,5º NNO 0,0 km/h0,0 km/h2.3 Lux
Wed 07, 12:17 AM8,8 ºC100,0 %961 hPa0,00 l/m2 337,5º NNO 0,0 km/h0,0 km/h2.3 Lux
Wed 07, 12:22 AM8,8 ºC100,0 %961 hPa0,00 l/m2 0º N 0,3 km/h1,7 km/h2.2 Lux
Wed 07, 12:27 AM8,8 ºC100,0 %960 hPa0,00 l/m2 337,5º NNO 0,0 km/h0,0 km/h2.2 Lux
Wed 07, 12:32 AM8,7 ºC100,0 %960 hPa0,00 l/m2 45º NE 0,6 km/h2,3 km/h2.1 Lux
Wed 07, 12:37 AM8,7 ºC100,0 %960 hPa0,00 l/m2 0º N 0,4 km/h2,6 km/h2.1 Lux
Wed 07, 12:42 AM8,7 ºC100,0 %960 hPa0,00 l/m2 45º NE 0,5 km/h3,5 km/h2.3 Lux
Wed 07, 12:47 AM8,9 ºC100,0 %960 hPa0,00 l/m2 45º NE 0,1 km/h0,9 km/h2.2 Lux
Wed 07, 12:52 AM9,0 ºC100,0 %960 hPa0,00 l/m2 0º N 0,1 km/h0,9 km/h2.3 Lux
Wed 07, 12:57 AM9,0 ºC100,0 %960 hPa0,00 l/m2 0º N 0,4 km/h3,2 km/h2.3 Lux
Wed 07, 01:02 AM9,0 ºC100,0 %960 hPa0,00 l/m2 0º N 0,1 km/h0,6 km/h2.1 Lux
Wed 07, 01:07 AM9,1 ºC100,0 %960 hPa0,00 l/m2 0º N 0,4 km/h2,3 km/h2.4 Lux
Wed 07, 01:12 AM9,2 ºC100,0 %960 hPa0,00 l/m2 45º NE 0,1 km/h0,6 km/h2.3 Lux
Wed 07, 01:17 AM9,2 ºC100,0 %960 hPa0,00 l/m2 0º N 0,7 km/h3,5 km/h2.2 Lux
Wed 07, 01:22 AM9,3 ºC100,0 %960 hPa0,00 l/m2 337,5º NNO 0,1 km/h0,9 km/h2.3 Lux
Wed 07, 01:27 AM9,1 ºC100,0 %959 hPa0,00 l/m2 0º N 0,2 km/h2,0 km/h2.2 Lux
Wed 07, 01:32 AM9,1 ºC100,0 %959 hPa0,00 l/m2 337,5º NNO 0,5 km/h4,0 km/h2.3 Lux
Wed 07, 01:37 AM9,0 ºC100,0 %959 hPa0,00 l/m2 225º SO 0,0 km/h0,3 km/h2.3 Lux
Wed 07, 01:42 AM9,2 ºC100,0 %959 hPa0,00 l/m2 0º N 0,0 km/h0,0 km/h2.3 Lux
Wed 07, 01:47 AM9,2 ºC100,0 %959 hPa0,00 l/m2 45º NE 0,0 km/h0,6 km/h2.2 Lux
Wed 07, 01:52 AM9,1 ºC100,0 %959 hPa0,00 l/m2 337,5º NNO 0,3 km/h2,0 km/h2.3 Lux
Wed 07, 01:57 AM9,1 ºC100,0 %959 hPa0,00 l/m2 315º NO 0,1 km/h0,3 km/h2.2 Lux
Wed 07, 02:02 AM9,2 ºC100,0 %959 hPa0,00 l/m2 0º N 0,0 km/h0,3 km/h2.3 Lux
Wed 07, 02:07 AM9,2 ºC100,0 %959 hPa0,00 l/m2 45º NE 0,1 km/h0,9 km/h2.2 Lux
Wed 07, 02:12 AM9,2 ºC100,0 %959 hPa0,00 l/m2 202,5º SSO 0,3 km/h2,6 km/h2.3 Lux
Wed 07, 02:17 AM9,1 ºC100,0 %959 hPa0,00 l/m2 0º N 0,1 km/h2,6 km/h2.2 Lux
Wed 07, 02:22 AM9,0 ºC100,0 %959 hPa0,00 l/m2 45º NE 0,0 km/h0,6 km/h2.3 Lux
Wed 07, 02:27 AM9,0 ºC100,0 %959 hPa0,00 l/m2 45º NE 0,0 km/h0,6 km/h2.2 Lux
Wed 07, 02:32 AM9,0 ºC100,0 %959 hPa0,00 l/m2 45º NE 0,2 km/h2,0 km/h2.3 Lux
Wed 07, 02:37 AM8,9 ºC100,0 %958 hPa0,00 l/m2 45º NE 0,0 km/h0,6 km/h2.4 Lux
Wed 07, 02:42 AM8,9 ºC100,0 %959 hPa0,00 l/m2 337,5º NNO 0,0 km/h0,0 km/h2.4 Lux
Wed 07, 02:47 AM9,0 ºC100,0 %959 hPa0,00 l/m2 0º N 0,0 km/h0,3 km/h2.3 Lux
Wed 07, 02:52 AM9,1 ºC100,0 %958 hPa0,00 l/m2 45º NE 0,3 km/h2,9 km/h2.1 Lux
Wed 07, 02:57 AM9,4 ºC100,0 %958 hPa0,00 l/m2 0º N 0,3 km/h3,2 km/h2.2 Lux
Wed 07, 03:02 AM9,1 ºC100,0 %959 hPa0,00 l/m2 337,5º NNO 1,4 km/h7,5 km/h2.2 Lux
Wed 07, 03:07 AM9,2 ºC100,0 %959 hPa0,00 l/m2 337,5º NNO 0,9 km/h5,5 km/h2.2 Lux
Wed 07, 03:12 AM8,7 ºC100,0 %959 hPa0,00 l/m2 0º N 0,1 km/h0,3 km/h2.2 Lux
Wed 07, 03:17 AM8,4 ºC100,0 %959 hPa0,00 l/m2 0º N 0,0 km/h0,3 km/h2.3 Lux
Wed 07, 03:22 AM8,0 ºC100,0 %959 hPa0,00 l/m2 0º N 0,0 km/h0,0 km/h2.2 Lux
Wed 07, 03:27 AM7,7 ºC100,0 %959 hPa0,00 l/m2 202,5º SSO 0,0 km/h0,3 km/h2.2 Lux
Wed 07, 03:32 AM8,2 ºC100,0 %959 hPa0,00 l/m2 247,5º OSO 0,0 km/h0,3 km/h2.2 Lux
Wed 07, 03:37 AM8,6 ºC100,0 %959 hPa0,00 l/m2 67,5º ENE 0,0 km/h0,0 km/h2.2 Lux
Wed 07, 03:42 AM8,6 ºC100,0 %959 hPa0,00 l/m2 45º NE 0,0 km/h0,3 km/h2.1 Lux
Wed 07, 03:47 AM8,6 ºC100,0 %959 hPa0,00 l/m2 67,5º ENE 0,1 km/h0,3 km/h2.2 Lux
Wed 07, 03:52 AM8,5 ºC100,0 %959 hPa0,00 l/m2 45º NE 0,3 km/h1,4 km/h2.2 Lux
Wed 07, 03:57 AM8,4 ºC100,0 %959 hPa0,00 l/m2 45º NE 0,0 km/h0,0 km/h2.3 Lux
Wed 07, 04:02 AM8,2 ºC100,0 %959 hPa0,00 l/m2 157,5º SSE 0,0 km/h0,3 km/h2.3 Lux
Wed 07, 04:07 AM8,1 ºC100,0 %959 hPa0,00 l/m2 0º N 0,1 km/h0,9 km/h2.3 Lux
Wed 07, 04:12 AM7,9 ºC100,0 %959 hPa0,00 l/m2 0º N 0,0 km/h0,3 km/h2.3 Lux
Wed 07, 04:17 AM7,9 ºC100,0 %959 hPa0,00 l/m2 315º NO 0,0 km/h0,0 km/h2.2 Lux
Wed 07, 04:22 AM8,1 ºC100,0 %959 hPa0,00 l/m2 0º N 0,0 km/h0,0 km/h2.3 Lux
Wed 07, 04:27 AM8,1 ºC100,0 %959 hPa0,00 l/m2 315º NO 0,0 km/h0,0 km/h2.3 Lux
Wed 07, 04:32 AM8,2 ºC100,0 %959 hPa0,00 l/m2 0º N 0,0 km/h0,3 km/h2.2 Lux
Wed 07, 04:37 AM8,3 ºC100,0 %959 hPa0,00 l/m2 67,5º ENE 0,0 km/h0,0 km/h2.2 Lux
Wed 07, 04:42 AM8,3 ºC100,0 %959 hPa0,00 l/m2 0º N 0,0 km/h0,0 km/h2.3 Lux
Wed 07, 04:47 AM8,5 ºC100,0 %959 hPa0,00 l/m2 0º N 0,0 km/h0,0 km/h2.1 Lux
Wed 07, 04:52 AM8,8 ºC100,0 %959 hPa0,00 l/m2 0º N 0,0 km/h0,6 km/h2.3 Lux
Wed 07, 04:57 AM9,2 ºC100,0 %959 hPa0,00 l/m2 157,5º SSE 0,0 km/h0,3 km/h2.2 Lux
Wed 07, 05:02 AM9,1 ºC100,0 %959 hPa0,00 l/m2 0º N 0,1 km/h1,4 km/h2.2 Lux
Wed 07, 05:07 AM9,1 ºC100,0 %959 hPa0,00 l/m2 0º N 0,0 km/h0,6 km/h2.2 Lux
Wed 07, 05:12 AM9,2 ºC100,0 %959 hPa0,00 l/m2 0º N 0,0 km/h0,3 km/h2.1 Lux
Wed 07, 05:17 AM9,1 ºC100,0 %959 hPa0,00 l/m2 45º NE 0,0 km/h0,0 km/h2.2 Lux
Wed 07, 05:22 AM9,1 ºC100,0 %959 hPa0,00 l/m2 45º NE 0,0 km/h0,3 km/h2.2 Lux
Wed 07, 05:27 AM9,1 ºC100,0 %959 hPa0,00 l/m2 337,5º NNO 0,0 km/h0,3 km/h2.4 Lux
Wed 07, 05:37 AM9,4 ºC100,0 %959 hPa0,00 l/m2 67,5º ENE 0,7 km/h3,5 km/h2.3 Lux
Wed 07, 05:47 AM9,4 ºC100,0 %959 hPa0,00 l/m2 45º NE 1,0 km/h4,3 km/h2.3 Lux
Wed 07, 05:52 AM9,2 ºC100,0 %959 hPa0,00 l/m2 67,5º ENE 4,5 km/h8,4 km/h2.2 Lux
Wed 07, 05:57 AM9,1 ºC100,0 %959 hPa0,00 l/m2 337,5º NNO 4,1 km/h6,9 km/h2.3 Lux
Wed 07, 06:02 AM9,0 ºC100,0 %959 hPa0,00 l/m2 0º N 1,9 km/h5,2 km/h2.2 Lux
Wed 07, 06:07 AM9,1 ºC100,0 %959 hPa0,00 l/m2 45º NE 0,0 km/h0,3 km/h2.3 Lux
Wed 07, 06:12 AM9,1 ºC100,0 %959 hPa0,00 l/m2 67,5º ENE 1,2 km/h4,0 km/h2.2 Lux
Wed 07, 06:17 AM9,3 ºC100,0 %959 hPa0,00 l/m2 45º NE 0,4 km/h4,6 km/h2.3 Lux
Wed 07, 06:22 AM9,4 ºC100,0 %959 hPa0,00 l/m2 67,5º ENE 0,4 km/h3,5 km/h2.3 Lux
Wed 07, 06:27 AM9,5 ºC100,0 %959 hPa0,00 l/m2 45º NE 0,0 km/h0,0 km/h2.3 Lux
Wed 07, 06:32 AM9,7 ºC100,0 %959 hPa0,00 l/m2 0º N 0,0 km/h0,0 km/h2.2 Lux
Wed 07, 06:37 AM9,9 ºC100,0 %959 hPa0,00 l/m2 0º N 0,0 km/h0,0 km/h2.2 Lux
Wed 07, 06:42 AM10,2 ºC100,0 %959 hPa0,00 l/m2 0º N 0,0 km/h0,3 km/h2.2 Lux
Wed 07, 06:47 AM10,4 ºC100,0 %959 hPa0,00 l/m2 45º NE 0,0 km/h0,0 km/h2.2 Lux
Wed 07, 06:52 AM10,3 ºC100,0 %959 hPa0,00 l/m2 0º N 0,0 km/h0,0 km/h2.2 Lux
Wed 07, 06:57 AM10,2 ºC100,0 %959 hPa0,00 l/m2 135º SE 0,3 km/h1,4 km/h2.3 Lux
Wed 07, 07:02 AM10,7 ºC100,0 %959 hPa0,00 l/m2 45º NE 0,3 km/h2,3 km/h2.4 Lux
Wed 07, 07:07 AM11,0 ºC99,8 %959 hPa0,00 l/m2 337,5º NNO 0,6 km/h3,2 km/h2.3 Lux
Wed 07, 07:12 AM11,6 ºC94,3 %959 hPa0,00 l/m2 0º N 0,0 km/h0,3 km/h2.2 Lux
Wed 07, 07:17 AM11,9 ºC92,0 %959 hPa0,00 l/m2 337,5º NNO 0,4 km/h4,0 km/h2.3 Lux
Wed 07, 07:22 AM11,9 ºC92,3 %959 hPa0,00 l/m2 337,5º NNO 1,5 km/h8,7 km/h2.3 Lux
Wed 07, 07:27 AM11,9 ºC91,3 %959 hPa0,00 l/m2 45º NE 0,5 km/h3,5 km/h2.4 Lux
Wed 07, 07:32 AM10,6 ºC100,0 %959 hPa0,00 l/m2 0º N 0,2 km/h1,7 km/h2.6 Lux
Wed 07, 07:37 AM10,3 ºC100,0 %959 hPa0,00 l/m2 225º SO 0,2 km/h2,3 km/h3 Lux
Wed 07, 07:42 AM11,4 ºC96,5 %959 hPa0,00 l/m2 337,5º NNO 0,4 km/h4,0 km/h4 Lux
Wed 07, 07:47 AM12,1 ºC90,6 %959 hPa0,00 l/m2 337,5º NNO 0,3 km/h3,7 km/h5.4 Lux
Wed 07, 07:52 AM12,3 ºC89,8 %959 hPa0,00 l/m2 0º N 0,0 km/h0,6 km/h7.1 Lux
Wed 07, 07:57 AM11,3 ºC97,7 %960 hPa0,00 l/m2 45º NE 0,1 km/h0,6 km/h8.5 Lux
Wed 07, 08:02 AM11,1 ºC99,7 %960 hPa0,00 l/m2 337,5º NNO 0,0 km/h0,3 km/h11.4 Lux
Wed 07, 08:07 AM11,8 ºC94,6 %960 hPa0,00 l/m2 337,5º NNO 0,4 km/h4,0 km/h17.8 Lux
Wed 07, 08:12 AM12,3 ºC89,6 %960 hPa0,00 l/m2 337,5º NNO 1,2 km/h4,6 km/h22.5 Lux
Wed 07, 08:17 AM12,9 ºC85,1 %960 hPa0,00 l/m2 225º SO 0,9 km/h13,6 km/h30.4 Lux
Wed 07, 08:22 AM12,9 ºC83,9 %960 hPa0,00 l/m2 45º NE 3,9 km/h9,3 km/h32.5 Lux
Wed 07, 08:27 AM13,0 ºC83,1 %960 hPa0,00 l/m2 315º NO 2,8 km/h8,1 km/h35.8 Lux
Wed 07, 08:32 AM13,1 ºC81,9 %960 hPa0,00 l/m2 337,5º NNO 0,7 km/h4,0 km/h55.2 Lux
Wed 07, 08:37 AM13,1 ºC81,9 %960 hPa0,00 l/m2 337,5º NNO 0,9 km/h6,7 km/h57.4 Lux
Wed 07, 08:42 AM13,2 ºC81,3 %960 hPa0,00 l/m2 337,5º NNO 0,6 km/h3,7 km/h70 Lux
Wed 07, 08:47 AM13,2 ºC81,1 %960 hPa0,00 l/m2 157,5º SSE 0,5 km/h5,2 km/h99.1 Lux
Wed 07, 08:52 AM13,2 ºC81,0 %960 hPa0,00 l/m2 225º SO 1,4 km/h4,3 km/h106.7 Lux
Wed 07, 08:57 AM13,3 ºC81,5 %960 hPa0,00 l/m2 67,5º ENE 0,9 km/h3,5 km/h161.2 Lux
Wed 07, 09:02 AM13,2 ºC82,5 %960 hPa0,00 l/m2 225º SO 0,6 km/h6,7 km/h215.4 Lux
Wed 07, 09:07 AM13,5 ºC79,6 %960 hPa0,00 l/m2 202,5º SSO 0,5 km/h1,4 km/h171.4 Lux
Wed 07, 09:12 AM13,5 ºC80,8 %960 hPa0,00 l/m2 225º SO 2,6 km/h5,8 km/h354.8 Lux
Wed 07, 09:17 AM13,6 ºC79,6 %960 hPa0,00 l/m2 225º SO 2,6 km/h7,2 km/h262.5 Lux
Wed 07, 09:22 AM13,8 ºC77,3 %960 hPa0,00 l/m2 135º SE 1,3 km/h6,4 km/h300.6 Lux
Wed 07, 09:27 AM14,0 ºC78,5 %960 hPa0,00 l/m2 337,5º NNO 0,0 km/h0,3 km/h283.4 Lux
Thu 08, 02:12 PM19,9 ºC58,1 %959 hPa0,00 l/m2 337,5º NNO 13,6 km/h32,4 km/h2426.9 Lux
Thu 08, 02:17 PM19,1 ºC62,7 %959 hPa0,00 l/m2 315º NO 8,3 km/h20,5 km/h674.9 Lux
Thu 08, 02:22 PM20,2 ºC58,6 %959 hPa0,00 l/m2 337,5º NNO 12,8 km/h43,1 km/h674.9 Lux
Thu 08, 02:27 PM18,2 ºC68,4 %959 hPa0,00 l/m2 337,5º NNO 7,7 km/h14,1 km/h759.2 Lux
Thu 08, 02:32 PM18,4 ºC69,0 %959 hPa0,00 l/m2 225º SO 2,5 km/h7,2 km/h556.9 Lux
Thu 08, 02:37 PM18,3 ºC69,8 %959 hPa0,00 l/m2 337,5º NNO 4,9 km/h16,8 km/h556.9 Lux
Thu 08, 02:42 PM18,1 ºC70,6 %958 hPa0,00 l/m2 225º SO 12,0 km/h30,3 km/h571.9 Lux
Thu 08, 02:47 PM17,8 ºC71,9 %958 hPa0,00 l/m2 337,5º NNO 16,7 km/h32,4 km/h782.6 Lux
Thu 08, 02:52 PM17,6 ºC72,2 %959 hPa0,00 l/m2 225º SO 12,2 km/h19,9 km/h1744.7 Lux
Thu 08, 02:57 PM18,6 ºC69,4 %958 hPa0,00 l/m2 135º SE 8,4 km/h24,3 km/h1823.7 Lux
Thu 08, 03:02 PM19,9 ºC66,0 %958 hPa0,00 l/m2 225º SO 14,3 km/h40,8 km/h782.6 Lux
Thu 08, 03:07 PM18,2 ºC71,0 %958 hPa0,00 l/m2 337,5º NNO 7,9 km/h22,5 km/h556.9 Lux
Thu 08, 03:12 PM18,1 ºC72,4 %958 hPa0,00 l/m2 157,5º SSE 10,1 km/h33,2 km/h759.2 Lux
Thu 08, 03:17 PM17,6 ºC74,7 %958 hPa0,00 l/m2 157,5º SSE 5,0 km/h12,4 km/h1415.6 Lux
Thu 08, 03:22 PM18,7 ºC69,5 %958 hPa0,00 l/m2 225º SO 10,4 km/h35,3 km/h1127.5 Lux
Thu 08, 03:27 PM18,1 ºC72,8 %958 hPa0,00 l/m2 225º SO 4,0 km/h8,7 km/h1670.6 Lux
Thu 08, 03:32 PM18,9 ºC68,9 %958 hPa0,00 l/m2 315º NO 10,8 km/h38,2 km/h759.2 Lux
Thu 08, 03:37 PM18,1 ºC70,4 %958 hPa0,00 l/m2 337,5º NNO 14,8 km/h35,6 km/h277.9 Lux
Thu 08, 03:42 PM17,4 ºC73,0 %958 hPa0,00 l/m2 337,5º NNO 12,8 km/h24,3 km/h466.6 Lux
Thu 08, 03:47 PM17,3 ºC72,7 %958 hPa0,00 l/m2 337,5º NNO 12,1 km/h38,7 km/h556.9 Lux
Thu 08, 03:52 PM17,1 ºC74,8 %958 hPa0,00 l/m2 337,5º NNO 20,2 km/h41,6 km/h243.8 Lux
Thu 08, 03:57 PM16,8 ºC74,7 %958 hPa0,00 l/m2 247,5º OSO 14,5 km/h45,7 km/h326.1 Lux
Thu 08, 04:02 PM16,7 ºC76,9 %958 hPa0,00 l/m2 225º SO 20,3 km/h43,9 km/h277.9 Lux
Thu 08, 04:07 PM16,6 ºC79,3 %958 hPa0,00 l/m2 0º N 15,2 km/h29,8 km/h405.2 Lux
Thu 08, 04:12 PM16,5 ºC80,0 %958 hPa0,00 l/m2 157,5º SSE 11,2 km/h33,5 km/h223 Lux
Thu 08, 04:17 PM16,4 ºC82,2 %958 hPa0,00 l/m2 202,5º SSO 9,5 km/h20,2 km/h105.4 Lux
Thu 08, 04:22 PM16,3 ºC83,7 %959 hPa0,00 l/m2 337,5º NNO 3,9 km/h10,4 km/h126.4 Lux
Thu 08, 04:27 PM16,2 ºC84,4 %959 hPa0,00 l/m2 202,5º SSO 14,4 km/h50,6 km/h131.7 Lux
Thu 08, 04:32 PM15,8 ºC88,7 %959 hPa0,00 l/m2 225º SO 16,0 km/h46,8 km/h235.2 Lux
Thu 08, 04:37 PM15,8 ºC92,0 %958 hPa0,00 l/m2 337,5º NNO 10,7 km/h18,8 km/h73.7 Lux
Thu 08, 04:42 PM15,3 ºC100,0 %958 hPa0,00 l/m2 337,5º NNO 6,1 km/h16,8 km/h22.7 Lux
Thu 08, 04:47 PM15,1 ºC100,0 %959 hPa0,00 l/m2 337,5º NNO 1,8 km/h5,8 km/h26.1 Lux
Thu 08, 04:52 PM15,1 ºC100,0 %959 hPa0,00 l/m2 225º SO 5,3 km/h15,9 km/h30.9 Lux
Thu 08, 04:57 PM15,1 ºC100,0 %959 hPa0,00 l/m2 225º SO 2,0 km/h9,8 km/h42 Lux
Thu 08, 05:02 PM15,0 ºC100,0 %959 hPa0,00 l/m2 337,5º NNO 2,1 km/h6,9 km/h38.5 Lux
Thu 08, 05:07 PM14,9 ºC100,0 %959 hPa0,00 l/m2 337,5º NNO 7,6 km/h22,5 km/h32.3 Lux
Thu 08, 05:12 PM15,0 ºC100,0 %959 hPa0,08 l/m2 225º SO 10,8 km/h26,6 km/h63.8 Lux
Thu 08, 05:17 PM15,1 ºC100,0 %959 hPa0,00 l/m2 337,5º NNO 10,1 km/h21,4 km/h71.4 Lux
Thu 08, 05:22 PM15,2 ºC100,0 %959 hPa0,00 l/m2 337,5º NNO 12,9 km/h37,9 km/h34.5 Lux
Thu 08, 05:27 PM15,3 ºC100,0 %959 hPa0,00 l/m2 247,5º OSO 14,5 km/h29,8 km/h36.1 Lux
Thu 08, 05:32 PM15,4 ºC100,0 %959 hPa0,00 l/m2 337,5º NNO 11,7 km/h29,5 km/h19 Lux
Thu 08, 05:37 PM15,3 ºC99,2 %959 hPa0,00 l/m2 45º NE 14,7 km/h48,3 km/h8 Lux
Thu 08, 05:42 PM15,2 ºC100,0 %959 hPa0,00 l/m2 247,5º OSO 10,3 km/h33,2 km/h12.1 Lux
Thu 08, 05:47 PM15,0 ºC100,0 %959 hPa0,00 l/m2 225º SO 6,7 km/h19,4 km/h10.2 Lux
Thu 08, 05:52 PM14,9 ºC100,0 %959 hPa0,00 l/m2 202,5º SSO 8,1 km/h11,6 km/h8.1 Lux
Thu 08, 05:57 PM14,8 ºC100,0 %960 hPa0,00 l/m2 225º SO 6,3 km/h23,4 km/h9.3 Lux
Thu 08, 06:02 PM14,3 ºC100,0 %959 hPa0,00 l/m2 337,5º NNO 5,1 km/h18,5 km/h4.1 Lux
Thu 08, 06:07 PM14,2 ºC100,0 %960 hPa0,00 l/m2 315º NO 21,2 km/h53,5 km/h5.2 Lux
Thu 08, 06:12 PM14,0 ºC100,0 %960 hPa0,00 l/m2 337,5º NNO 15,2 km/h39,3 km/h4.6 Lux
Thu 08, 06:17 PM13,5 ºC100,0 %960 hPa0,00 l/m2 225º SO 11,3 km/h34,7 km/h3.8 Lux
Thu 08, 06:22 PM13,1 ºC100,0 %960 hPa0,00 l/m2 202,5º SSO 9,4 km/h23,1 km/h2.7 Lux
Thu 08, 06:27 PM13,1 ºC100,0 %960 hPa0,00 l/m2 337,5º NNO 7,6 km/h16,8 km/h2.6 Lux
Thu 08, 06:32 PM13,1 ºC100,0 %960 hPa0,00 l/m2 247,5º OSO 4,7 km/h11,0 km/h2.4 Lux
Thu 08, 06:37 PM13,2 ºC100,0 %960 hPa0,00 l/m2 225º SO 4,4 km/h12,4 km/h2.1 Lux
Thu 08, 06:42 PM13,2 ºC100,0 %960 hPa0,00 l/m2 225º SO 5,0 km/h12,7 km/h2.2 Lux
Thu 08, 06:47 PM13,3 ºC100,0 %960 hPa0,00 l/m2 315º NO 2,6 km/h13,0 km/h2.3 Lux
Thu 08, 06:57 PM13,3 ºC100,0 %960 hPa0,00 l/m2 225º SO 4,5 km/h11,0 km/h2.3 Lux
Thu 08, 07:02 PM13,4 ºC100,0 %961 hPa0,00 l/m2 67,5º ENE 6,7 km/h34,7 km/h2.2 Lux
Thu 08, 07:07 PM13,4 ºC100,0 %961 hPa0,00 l/m2 337,5º NNO 9,4 km/h23,7 km/h2.3 Lux
Thu 08, 07:12 PM13,3 ºC100,0 %960 hPa0,00 l/m2 247,5º OSO 2,3 km/h10,1 km/h2.3 Lux
Thu 08, 07:17 PM13,2 ºC100,0 %960 hPa0,00 l/m2 337,5º NNO 3,8 km/h10,4 km/h2.1 Lux
Thu 08, 07:22 PM13,1 ºC100,0 %960 hPa0,00 l/m2 225º SO 4,6 km/h11,0 km/h2.3 Lux
Thu 08, 07:27 PM13,2 ºC100,0 %961 hPa0,00 l/m2 337,5º NNO 3,5 km/h9,8 km/h2.1 Lux
Thu 08, 07:32 PM13,0 ºC100,0 %961 hPa0,00 l/m2 225º SO 2,1 km/h8,1 km/h2.2 Lux
Thu 08, 07:37 PM13,0 ºC100,0 %961 hPa0,00 l/m2 247,5º OSO 1,4 km/h6,7 km/h2.3 Lux
Thu 08, 07:42 PM12,9 ºC100,0 %961 hPa0,00 l/m2 225º SO 2,0 km/h11,6 km/h2.3 Lux
Thu 08, 07:47 PM13,0 ºC100,0 %961 hPa0,00 l/m2 0º N 2,6 km/h9,5 km/h2.3 Lux
Thu 08, 07:52 PM12,9 ºC100,0 %961 hPa0,00 l/m2 67,5º ENE 1,2 km/h7,8 km/h2.3 Lux
Thu 08, 07:57 PM12,7 ºC100,0 %961 hPa0,00 l/m2 67,5º ENE 0,1 km/h0,9 km/h2.3 Lux
Thu 08, 08:02 PM12,5 ºC100,0 %961 hPa0,00 l/m2 337,5º NNO 0,4 km/h2,6 km/h2.3 Lux
Thu 08, 08:07 PM12,7 ºC100,0 %961 hPa0,00 l/m2 337,5º NNO 0,8 km/h6,1 km/h2.3 Lux
Thu 08, 08:12 PM12,9 ºC100,0 %961 hPa0,00 l/m2 0º N 1,3 km/h9,3 km/h2.1 Lux
Thu 08, 08:17 PM12,9 ºC100,0 %961 hPa0,00 l/m2 157,5º SSE 0,0 km/h0,3 km/h2.3 Lux
Thu 08, 08:22 PM12,9 ºC100,0 %961 hPa0,00 l/m2 337,5º NNO 1,3 km/h5,8 km/h2.3 Lux
Thu 08, 08:27 PM12,9 ºC100,0 %961 hPa0,00 l/m2 0º N 1,3 km/h7,8 km/h2.3 Lux
Thu 08, 08:32 PM12,9 ºC100,0 %961 hPa0,00 l/m2 225º SO 0,6 km/h4,3 km/h2.3 Lux
Thu 08, 08:37 PM12,9 ºC100,0 %961 hPa0,00 l/m2 315º NO 1,1 km/h4,3 km/h2.3 Lux
Thu 08, 08:42 PM13,1 ºC100,0 %961 hPa0,00 l/m2 337,5º NNO 1,9 km/h6,7 km/h2.2 Lux
Thu 08, 08:47 PM13,1 ºC100,0 %961 hPa0,00 l/m2 337,5º NNO 1,2 km/h7,5 km/h2.3 Lux
Thu 08, 08:52 PM13,0 ºC100,0 %961 hPa0,00 l/m2 0º N 2,4 km/h7,5 km/h2.3 Lux
Thu 08, 08:57 PM12,8 ºC100,0 %961 hPa0,00 l/m2 225º SO 1,9 km/h11,6 km/h2.3 Lux
Thu 08, 09:02 PM12,6 ºC100,0 %961 hPa0,00 l/m2 225º SO 5,1 km/h22,5 km/h2.3 Lux
Thu 08, 09:07 PM12,5 ºC100,0 %961 hPa0,00 l/m2 337,5º NNO 2,5 km/h8,1 km/h2.3 Lux
Thu 08, 09:12 PM12,5 ºC100,0 %961 hPa0,00 l/m2 90º E 2,5 km/h6,9 km/h2.1 Lux
Thu 08, 09:17 PM12,4 ºC100,0 %961 hPa0,00 l/m2 67,5º ENE 2,8 km/h8,4 km/h2.4 Lux
Thu 08, 09:22 PM12,4 ºC100,0 %961 hPa0,00 l/m2 315º NO 3,5 km/h10,4 km/h2.3 Lux
Thu 08, 09:27 PM12,3 ºC100,0 %961 hPa0,00 l/m2 337,5º NNO 4,1 km/h11,8 km/h2.2 Lux
Thu 08, 09:32 PM12,2 ºC100,0 %961 hPa0,00 l/m2 337,5º NNO 3,1 km/h9,0 km/h2.3 Lux
Thu 08, 09:37 PM12,3 ºC100,0 %961 hPa0,00 l/m2 337,5º NNO 1,1 km/h5,2 km/h2.1 Lux
Thu 08, 09:42 PM12,2 ºC100,0 %961 hPa0,00 l/m2 202,5º SSO 1,4 km/h4,3 km/h2.3 Lux
Thu 08, 09:47 PM12,3 ºC100,0 %961 hPa0,00 l/m2 225º SO 0,3 km/h2,0 km/h2.3 Lux
Thu 08, 09:52 PM12,3 ºC100,0 %961 hPa0,00 l/m2 337,5º NNO 0,6 km/h3,5 km/h2.3 Lux
Thu 08, 09:57 PM12,3 ºC100,0 %961 hPa0,00 l/m2 0º N 0,8 km/h3,5 km/h2.3 Lux
Thu 08, 10:02 PM12,4 ºC100,0 %961 hPa0,00 l/m2 0º N 0,8 km/h4,0 km/h2.4 Lux
Thu 08, 10:07 PM12,4 ºC100,0 %961 hPa0,00 l/m2 0º N 1,4 km/h8,7 km/h2.4 Lux
Thu 08, 10:12 PM12,5 ºC100,0 %961 hPa0,00 l/m2 112.5º ESE 0,4 km/h2,3 km/h2.3 Lux
Thu 08, 10:17 PM12,4 ºC100,0 %962 hPa0,00 l/m2 337,5º NNO 0,6 km/h7,8 km/h2.3 Lux
Thu 08, 10:22 PM12,5 ºC100,0 %962 hPa0,00 l/m2 225º SO 1,3 km/h8,1 km/h2.3 Lux
Thu 08, 10:27 PM12,6 ºC100,0 %962 hPa0,00 l/m2 225º SO 1,9 km/h6,9 km/h2.3 Lux
Thu 08, 10:32 PM12,7 ºC100,0 %962 hPa0,00 l/m2 315º NO 5,0 km/h16,2 km/h2.3 Lux
Thu 08, 10:37 PM12,8 ºC100,0 %962 hPa0,00 l/m2 337,5º NNO 4,4 km/h11,0 km/h2.3 Lux
Thu 08, 10:42 PM12,9 ºC100,0 %962 hPa0,08 l/m2 67,5º ENE 4,1 km/h23,7 km/h2.3 Lux
Thu 08, 10:47 PM12,8 ºC100,0 %962 hPa0,00 l/m2 337,5º NNO 1,8 km/h6,1 km/h2.4 Lux
Thu 08, 10:52 PM12,8 ºC100,0 %962 hPa0,00 l/m2 337,5º NNO 1,9 km/h7,5 km/h2.3 Lux
Thu 08, 10:57 PM12,7 ºC100,0 %962 hPa0,00 l/m2 337,5º NNO 2,0 km/h6,7 km/h2.3 Lux
Thu 08, 11:02 PM12,4 ºC100,0 %962 hPa0,00 l/m2 337,5º NNO 5,4 km/h30,1 km/h2.3 Lux
Thu 08, 11:07 PM12,5 ºC100,0 %962 hPa0,00 l/m2 337,5º NNO 13,0 km/h40,5 km/h2.2 Lux
Thu 08, 11:12 PM12,6 ºC100,0 %962 hPa0,00 l/m2 45º NE 14,5 km/h30,1 km/h2.2 Lux
Thu 08, 11:17 PM12,6 ºC100,0 %962 hPa0,00 l/m2 337,5º NNO 19,4 km/h39,0 km/h2.2 Lux
Thu 08, 11:22 PM12,6 ºC100,0 %962 hPa0,00 l/m2 337,5º NNO 20,8 km/h38,7 km/h2.3 Lux
Thu 08, 11:27 PM12,6 ºC100,0 %962 hPa0,00 l/m2 337,5º NNO 27,1 km/h47,4 km/h2.3 Lux
Thu 08, 11:32 PM12,6 ºC100,0 %962 hPa0,00 l/m2 337,5º NNO 26,6 km/h48,6 km/h2.4 Lux
Thu 08, 11:37 PM12,6 ºC100,0 %962 hPa0,00 l/m2 0º N 20,7 km/h54,3 km/h2.3 Lux
Thu 08, 11:42 PM12,5 ºC100,0 %962 hPa0,00 l/m2 337,5º NNO 28,6 km/h49,4 km/h2.3 Lux
Thu 08, 11:47 PM12,5 ºC100,0 %962 hPa0,00 l/m2 0º N 26,2 km/h45,1 km/h2.1 Lux
Thu 08, 11:52 PM12,4 ºC100,0 %962 hPa0,00 l/m2 67,5º ENE 21,3 km/h35,6 km/h2.3 Lux
Thu 08, 11:57 PM12,3 ºC100,0 %963 hPa0,00 l/m2 337,5º NNO 25,7 km/h40,8 km/h2.3 Lux
Fri 09, 12:02 AM12,2 ºC100,0 %963 hPa0,00 l/m2 337,5º NNO 19,2 km/h44,2 km/h2.1 Lux
Fri 09, 12:07 AM12,1 ºC100,0 %963 hPa0,00 l/m2 45º NE 17,6 km/h35,6 km/h2.1 Lux
Fri 09, 12:12 AM12,1 ºC100,0 %963 hPa0,00 l/m2 337,5º NNO 9,3 km/h20,2 km/h2.1 Lux
Fri 09, 12:17 AM12,0 ºC100,0 %963 hPa0,00 l/m2 315º NO 12,3 km/h43,1 km/h2.2 Lux
Fri 09, 12:22 AM12,0 ºC100,0 %963 hPa0,00 l/m2 0º N 6,5 km/h28,3 km/h2.1 Lux
Fri 09, 12:27 AM11,9 ºC100,0 %963 hPa0,00 l/m2 337,5º NNO 13,5 km/h30,1 km/h2.2 Lux
Fri 09, 12:32 AM11,9 ºC100,0 %963 hPa0,00 l/m2 0º N 18,9 km/h45,1 km/h2.3 Lux
Fri 09, 12:37 AM11,8 ºC100,0 %963 hPa0,00 l/m2 337,5º NNO 15,6 km/h32,1 km/h2.3 Lux
Fri 09, 12:42 AM11,6 ºC100,0 %963 hPa0,00 l/m2 337,5º NNO 22,3 km/h46,8 km/h2.2 Lux
Fri 09, 12:47 AM11,5 ºC100,0 %963 hPa0,00 l/m2 0º N 8,4 km/h19,9 km/h2.2 Lux
Fri 09, 12:52 AM11,3 ºC100,0 %963 hPa0,00 l/m2 337,5º NNO 13,4 km/h32,1 km/h2.3 Lux
Fri 09, 12:57 AM11,2 ºC100,0 %963 hPa0,00 l/m2 337,5º NNO 15,4 km/h37,3 km/h2.4 Lux
Fri 09, 01:02 AM11,1 ºC100,0 %963 hPa0,00 l/m2 337,5º NNO 15,3 km/h35,6 km/h2.2 Lux
Fri 09, 01:07 AM11,0 ºC100,0 %963 hPa0,00 l/m2 45º NE 9,8 km/h22,8 km/h2.1 Lux
Fri 09, 01:12 AM10,9 ºC100,0 %963 hPa0,00 l/m2 45º NE 8,4 km/h17,6 km/h2.1 Lux
Fri 09, 01:17 AM10,8 ºC100,0 %963 hPa0,00 l/m2 337,5º NNO 6,2 km/h17,6 km/h2.3 Lux
Fri 09, 01:22 AM10,7 ºC100,0 %963 hPa0,00 l/m2 337,5º NNO 7,3 km/h12,4 km/h2.3 Lux
Fri 09, 01:27 AM10,7 ºC100,0 %963 hPa0,00 l/m2 0º N 8,3 km/h22,0 km/h2.1 Lux
Fri 09, 01:32 AM10,6 ºC100,0 %963 hPa0,00 l/m2 0º N 6,8 km/h11,0 km/h2.3 Lux
Fri 09, 01:37 AM10,6 ºC100,0 %963 hPa0,00 l/m2 0º N 5,8 km/h11,8 km/h2.1 Lux
Fri 09, 01:42 AM10,6 ºC100,0 %963 hPa0,00 l/m2 0º N 2,8 km/h6,7 km/h2.3 Lux
Fri 09, 01:47 AM10,5 ºC100,0 %963 hPa0,00 l/m2 0º N 2,5 km/h10,7 km/h2.1 Lux
Fri 09, 01:52 AM10,5 ºC100,0 %963 hPa0,00 l/m2 0º N 1,9 km/h6,9 km/h2.4 Lux
Fri 09, 01:57 AM10,4 ºC100,0 %963 hPa0,00 l/m2 0º N 0,0 km/h0,3 km/h2.1 Lux
Fri 09, 02:02 AM10,3 ºC100,0 %963 hPa0,00 l/m2 337,5º NNO 2,1 km/h10,1 km/h2.2 Lux
Fri 09, 02:07 AM10,2 ºC100,0 %963 hPa0,00 l/m2 337,5º NNO 3,0 km/h7,8 km/h2.1 Lux
Fri 09, 02:12 AM10,2 ºC100,0 %963 hPa0,00 l/m2 337,5º NNO 4,3 km/h7,8 km/h2.1 Lux
Fri 09, 02:17 AM10,1 ºC100,0 %963 hPa0,00 l/m2 0º N 3,2 km/h15,0 km/h2.3 Lux
Fri 09, 02:22 AM9,9 ºC100,0 %963 hPa0,00 l/m2 135º SE 0,3 km/h0,9 km/h2.2 Lux
Fri 09, 02:27 AM9,7 ºC100,0 %963 hPa0,00 l/m2 337,5º NNO 0,5 km/h2,9 km/h2.2 Lux
Fri 09, 02:32 AM9,6 ºC100,0 %963 hPa0,00 l/m2 0º N 0,0 km/h0,3 km/h2.1 Lux
Fri 09, 02:37 AM9,4 ºC100,0 %963 hPa0,00 l/m2 0º N 0,5 km/h4,6 km/h2.2 Lux
Fri 09, 02:42 AM9,3 ºC100,0 %963 hPa0,00 l/m2 337,5º NNO 4,6 km/h11,8 km/h2.2 Lux
Fri 09, 02:47 AM9,3 ºC100,0 %963 hPa0,00 l/m2 0º N 10,5 km/h24,8 km/h2.2 Lux
Fri 09, 02:52 AM9,3 ºC100,0 %963 hPa0,00 l/m2 337,5º NNO 10,7 km/h17,1 km/h2.2 Lux
Fri 09, 02:57 AM9,3 ºC100,0 %963 hPa0,00 l/m2 337,5º NNO 14,7 km/h25,7 km/h2.3 Lux
Fri 09, 03:02 AM9,3 ºC100,0 %963 hPa0,00 l/m2 45º NE 12,6 km/h23,4 km/h2.2 Lux
Fri 09, 03:07 AM9,4 ºC100,0 %963 hPa0,00 l/m2 337,5º NNO 15,4 km/h29,5 km/h2.1 Lux
Fri 09, 03:12 AM9,3 ºC100,0 %963 hPa0,00 l/m2 45º NE 13,5 km/h30,3 km/h2.4 Lux
Fri 09, 03:17 AM9,3 ºC100,0 %963 hPa0,00 l/m2 0º N 9,2 km/h18,5 km/h2.3 Lux
Fri 09, 03:22 AM9,2 ºC100,0 %963 hPa0,00 l/m2 337,5º NNO 9,1 km/h20,5 km/h2.1 Lux
Fri 09, 03:27 AM9,2 ºC100,0 %963 hPa0,00 l/m2 337,5º NNO 9,9 km/h19,9 km/h2.2 Lux
Fri 09, 03:32 AM9,1 ºC100,0 %963 hPa0,00 l/m2 337,5º NNO 6,4 km/h9,5 km/h2.4 Lux
Fri 09, 03:37 AM9,0 ºC100,0 %963 hPa0,00 l/m2 337,5º NNO 8,6 km/h13,9 km/h2.3 Lux
Fri 09, 03:42 AM9,0 ºC100,0 %963 hPa0,00 l/m2 0º N 4,8 km/h10,4 km/h2.3 Lux
Fri 09, 03:47 AM8,9 ºC100,0 %963 hPa0,00 l/m2 0º N 0,4 km/h4,3 km/h2.1 Lux
Fri 09, 03:52 AM8,8 ºC100,0 %963 hPa0,00 l/m2 0º N 0,0 km/h0,3 km/h2.3 Lux
Fri 09, 03:57 AM8,7 ºC100,0 %963 hPa0,00 l/m2 0º N 0,0 km/h0,3 km/h2.3 Lux
Fri 09, 04:02 AM8,5 ºC100,0 %963 hPa0,00 l/m2 0º N 0,2 km/h0,9 km/h2.3 Lux
Fri 09, 04:07 AM8,4 ºC100,0 %963 hPa0,00 l/m2 337,5º NNO 6,0 km/h11,3 km/h2.2 Lux
Fri 09, 04:12 AM8,5 ºC100,0 %964 hPa0,00 l/m2 315º NO 7,9 km/h12,7 km/h2.3 Lux
Fri 09, 04:17 AM8,6 ºC100,0 %964 hPa0,00 l/m2 337,5º NNO 8,7 km/h12,4 km/h2.2 Lux
Fri 09, 04:22 AM8,6 ºC100,0 %964 hPa0,00 l/m2 337,5º NNO 7,8 km/h14,1 km/h2.2 Lux
Fri 09, 04:27 AM8,6 ºC100,0 %964 hPa0,00 l/m2 337,5º NNO 4,5 km/h9,5 km/h2.2 Lux
Fri 09, 04:32 AM8,5 ºC100,0 %964 hPa0,00 l/m2 0º N 8,1 km/h15,6 km/h2.4 Lux
Fri 09, 04:37 AM8,5 ºC100,0 %964 hPa0,00 l/m2 337,5º NNO 11,4 km/h22,5 km/h2.2 Lux
Fri 09, 04:42 AM8,5 ºC100,0 %964 hPa0,00 l/m2 45º NE 8,6 km/h13,9 km/h2.3 Lux
Fri 09, 04:47 AM8,5 ºC100,0 %964 hPa0,00 l/m2 0º N 5,7 km/h11,3 km/h2.3 Lux
Fri 09, 04:52 AM8,5 ºC100,0 %964 hPa0,00 l/m2 45º NE 3,0 km/h8,1 km/h2.2 Lux
Fri 09, 04:57 AM8,4 ºC100,0 %964 hPa0,00 l/m2 67,5º ENE 0,1 km/h0,3 km/h2.2 Lux
Fri 09, 05:02 AM8,2 ºC100,0 %964 hPa0,00 l/m2 0º N 0,1 km/h0,3 km/h2.2 Lux
Fri 09, 05:07 AM8,1 ºC100,0 %964 hPa0,00 l/m2 0º N 0,2 km/h1,2 km/h2.4 Lux
Fri 09, 05:12 AM8,1 ºC100,0 %964 hPa0,00 l/m2 0º N 0,0 km/h0,3 km/h2.2 Lux
Fri 09, 05:17 AM8,0 ºC100,0 %964 hPa0,00 l/m2 45º NE 0,0 km/h0,0 km/h2.2 Lux
Fri 09, 05:22 AM8,0 ºC100,0 %964 hPa0,00 l/m2 0º N 0,0 km/h0,0 km/h2.3 Lux
Fri 09, 05:27 AM7,8 ºC100,0 %964 hPa0,00 l/m2 0º N 0,0 km/h0,0 km/h2.3 Lux
Fri 09, 05:32 AM7,9 ºC100,0 %964 hPa0,00 l/m2 45º NE 0,0 km/h0,3 km/h2.1 Lux
Fri 09, 05:37 AM7,9 ºC100,0 %964 hPa0,00 l/m2 0º N 0,1 km/h0,3 km/h2.2 Lux
Fri 09, 05:42 AM7,9 ºC100,0 %964 hPa0,08 l/m2 45º NE 0,0 km/h0,0 km/h2.1 Lux
Fri 09, 05:47 AM7,8 ºC100,0 %964 hPa0,00 l/m2 45º NE 0,0 km/h0,3 km/h2.1 Lux
Fri 09, 05:52 AM7,9 ºC100,0 %964 hPa0,00 l/m2 45º NE 0,0 km/h0,0 km/h2.2 Lux
Fri 09, 05:57 AM7,7 ºC100,0 %964 hPa0,00 l/m2 45º NE 0,0 km/h0,0 km/h2.2 Lux
Fri 09, 06:02 AM7,8 ºC100,0 %964 hPa0,00 l/m2 0º N 0,0 km/h0,0 km/h2.1 Lux
Fri 09, 06:07 AM7,8 ºC100,0 %964 hPa0,00 l/m2 0º N 0,0 km/h0,0 km/h2.3 Lux
Fri 09, 06:12 AM7,8 ºC100,0 %964 hPa0,00 l/m2 45º NE 0,0 km/h0,0 km/h2.2 Lux
Fri 09, 06:17 AM7,9 ºC100,0 %964 hPa0,00 l/m2 0º N 0,0 km/h0,0 km/h2.2 Lux
Fri 09, 06:22 AM8,0 ºC100,0 %965 hPa0,00 l/m2 0º N 0,0 km/h0,0 km/h2.2 Lux
Fri 09, 06:27 AM8,0 ºC100,0 %965 hPa0,00 l/m2 0º N 0,0 km/h0,3 km/h2.4 Lux
Fri 09, 06:32 AM8,0 ºC100,0 %965 hPa0,00 l/m2 0º N 0,0 km/h0,0 km/h2.3 Lux
Fri 09, 06:37 AM8,0 ºC100,0 %965 hPa0,00 l/m2 0º N 0,1 km/h0,3 km/h2.4 Lux
Fri 09, 06:42 AM8,1 ºC100,0 %965 hPa0,00 l/m2 0º N 0,0 km/h0,3 km/h2.4 Lux
Fri 09, 06:47 AM8,1 ºC100,0 %965 hPa0,00 l/m2 0º N 0,0 km/h0,0 km/h2.3 Lux
Fri 09, 06:52 AM8,0 ºC100,0 %965 hPa0,00 l/m2 0º N 0,0 km/h0,0 km/h2.3 Lux
Fri 09, 06:57 AM7,9 ºC100,0 %965 hPa0,00 l/m2 337,5º NNO 0,0 km/h0,0 km/h2.1 Lux
Fri 09, 07:02 AM7,9 ºC100,0 %965 hPa0,00 l/m2 337,5º NNO 0,0 km/h0,0 km/h2.3 Lux
Fri 09, 07:07 AM7,8 ºC100,0 %965 hPa0,00 l/m2 0º N 0,0 km/h0,0 km/h2.2 Lux
Fri 09, 07:12 AM7,7 ºC100,0 %965 hPa0,00 l/m2 337,5º NNO 0,0 km/h0,3 km/h2.2 Lux
Fri 09, 07:17 AM7,7 ºC100,0 %965 hPa0,00 l/m2 0º N 0,0 km/h0,3 km/h2.2 Lux
Fri 09, 07:22 AM7,8 ºC100,0 %965 hPa0,00 l/m2 0º N 0,0 km/h0,0 km/h2.1 Lux
Fri 09, 07:27 AM7,6 ºC100,0 %965 hPa0,00 l/m2 0º N 0,0 km/h0,0 km/h2.2 Lux
Fri 09, 07:32 AM7,5 ºC100,0 %965 hPa0,00 l/m2 0º N 0,0 km/h0,0 km/h2.7 Lux
Fri 09, 07:37 AM7,5 ºC100,0 %965 hPa0,00 l/m2 0º N 0,0 km/h0,0 km/h3.3 Lux
Fri 09, 07:42 AM7,6 ºC100,0 %965 hPa0,00 l/m2 45º NE 0,0 km/h0,0 km/h4.6 Lux
Fri 09, 07:47 AM7,7 ºC100,0 %965 hPa0,00 l/m2 0º N 0,0 km/h0,0 km/h7.1 Lux
Fri 09, 07:52 AM7,6 ºC100,0 %965 hPa0,00 l/m2 337,5º NNO 0,0 km/h0,0 km/h10.7 Lux
Fri 09, 07:57 AM7,6 ºC100,0 %965 hPa0,00 l/m2 0º N 0,0 km/h0,0 km/h14.3 Lux
Fri 09, 08:02 AM7,6 ºC100,0 %965 hPa0,00 l/m2 0º N 0,0 km/h0,0 km/h19.5 Lux
Fri 09, 08:07 AM7,5 ºC100,0 %965 hPa0,00 l/m2 0º N 0,0 km/h0,0 km/h26.9 Lux
Fri 09, 08:12 AM7,5 ºC100,0 %965 hPa0,00 l/m2 0º N 0,0 km/h0,0 km/h30.9 Lux
Fri 09, 08:17 AM7,6 ºC100,0 %965 hPa0,00 l/m2 0º N 0,0 km/h0,0 km/h36.4 Lux
Fri 09, 08:22 AM7,6 ºC100,0 %965 hPa0,00 l/m2 45º NE 0,0 km/h0,0 km/h42.8 Lux
Fri 09, 08:27 AM7,6 ºC100,0 %965 hPa0,00 l/m2 45º NE 0,0 km/h0,3 km/h49.9 Lux
Fri 09, 08:32 AM7,9 ºC100,0 %966 hPa0,00 l/m2 45º NE 0,1 km/h0,3 km/h62 Lux
Fri 09, 08:37 AM7,9 ºC100,0 %966 hPa0,00 l/m2 0º N 0,0 km/h0,0 km/h89.1 Lux
Fri 09, 08:42 AM7,9 ºC100,0 %966 hPa0,00 l/m2 0º N 0,0 km/h0,0 km/h73.7 Lux
Fri 09, 08:47 AM7,9 ºC100,0 %966 hPa0,00 l/m2 0º N 0,0 km/h0,0 km/h99.1 Lux
Fri 09, 08:52 AM8,0 ºC100,0 %966 hPa0,00 l/m2 0º N 0,0 km/h0,0 km/h93.3 Lux
Fri 09, 08:57 AM8,0 ºC100,0 %966 hPa0,00 l/m2 0º N 0,0 km/h0,0 km/h99.1 Lux
Fri 09, 09:02 AM7,9 ºC100,0 %966 hPa0,00 l/m2 0º N 0,0 km/h0,0 km/h93.3 Lux
Fri 09, 09:07 AM8,0 ºC100,0 %966 hPa0,00 l/m2 0º N 0,0 km/h0,0 km/h128.2 Lux
Fri 09, 09:12 AM8,1 ºC100,0 %966 hPa0,00 l/m2 0º N 0,0 km/h0,0 km/h106.7 Lux
Fri 09, 09:17 AM8,0 ºC100,0 %966 hPa0,00 l/m2 0º N 0,0 km/h0,0 km/h109.4 Lux
Fri 09, 09:22 AM8,2 ºC100,0 %966 hPa0,00 l/m2 0º N 0,0 km/h0,0 km/h135.4 Lux
Fri 09, 09:27 AM8,2 ºC100,0 %966 hPa0,00 l/m2 0º N 0,0 km/h0,0 km/h227 Lux
Fri 09, 09:32 AM8,3 ºC100,0 %966 hPa0,00 l/m2 0º N 0,0 km/h0,0 km/h156.5 Lux
Fri 09, 09:37 AM8,4 ºC100,0 %966 hPa0,00 l/m2 0º N 0,0 km/h0,0 km/h262.5 Lux
Fri 09, 09:42 AM8,4 ºC100,0 %966 hPa0,00 l/m2 0º N 0,0 km/h0,0 km/h300.6 Lux
Fri 09, 09:47 AM8,8 ºC100,0 %966 hPa0,00 l/m2 0º N 0,0 km/h0,0 km/h277.9 Lux
Fri 09, 09:52 AM8,8 ºC100,0 %966 hPa0,00 l/m2 337,5º NNO 0,0 km/h0,0 km/h300.6 Lux
Fri 09, 09:57 AM8,8 ºC100,0 %966 hPa0,00 l/m2 45º NE 0,1 km/h0,6 km/h208.2 Lux
Fri 09, 10:02 AM9,0 ºC100,0 %967 hPa0,00 l/m2 0º N 0,0 km/h0,0 km/h248.3 Lux
Fri 09, 10:07 AM9,0 ºC100,0 %966 hPa0,00 l/m2 0º N 0,0 km/h0,0 km/h444.7 Lux
Fri 09, 10:12 AM9,1 ºC100,0 %966 hPa0,00 l/m2 337,5º NNO 1,9 km/h5,2 km/h387.3 Lux
Fri 09, 10:17 AM9,4 ºC100,0 %966 hPa0,00 l/m2 0º N 0,1 km/h0,6 km/h434.3 Lux
Fri 09, 10:22 AM9,4 ºC100,0 %967 hPa0,00 l/m2 337,5º NNO 1,5 km/h6,4 km/h444.7 Lux
Fri 09, 10:27 AM9,4 ºC100,0 %966 hPa0,00 l/m2 337,5º NNO 0,6 km/h6,1 km/h490.1 Lux
Fri 09, 10:32 AM9,5 ºC100,0 %967 hPa0,00 l/m2 0º N 0,1 km/h0,6 km/h502.5 Lux
Fri 09, 10:37 AM9,6 ºC100,0 %967 hPa0,00 l/m2 45º NE 2,4 km/h9,8 km/h528.7 Lux
Fri 09, 10:42 AM9,7 ºC100,0 %967 hPa0,00 l/m2 45º NE 1,9 km/h6,4 km/h571.9 Lux
Fri 09, 10:47 AM9,7 ºC100,0 %967 hPa0,00 l/m2 337,5º NNO 1,5 km/h9,3 km/h782.6 Lux
Fri 09, 10:52 AM9,9 ºC100,0 %967 hPa0,00 l/m2 337,5º NNO 1,6 km/h7,5 km/h807.1 Lux
Fri 09, 10:57 AM10,5 ºC100,0 %966 hPa0,00 l/m2 337,5º NNO 1,0 km/h4,6 km/h466.6 Lux
Fri 09, 11:02 AM10,4 ºC100,0 %967 hPa0,00 l/m2 0º N 0,1 km/h0,6 km/h807.1 Lux
Fri 09, 11:07 AM10,8 ºC100,0 %967 hPa0,00 l/m2 0º N 0,0 km/h0,3 km/h1050.3 Lux
Fri 09, 11:12 AM11,3 ºC100,0 %966 hPa0,00 l/m2 0º N 0,2 km/h0,9 km/h1169.2 Lux
Fri 09, 11:17 AM12,5 ºC100,0 %966 hPa0,00 l/m2 0º N 0,5 km/h1,7 km/h556.9 Lux
Fri 09, 11:22 AM11,4 ºC100,0 %966 hPa0,00 l/m2 0º N 1,3 km/h4,6 km/h1169.2 Lux
Fri 09, 11:27 AM11,0 ºC100,0 %966 hPa0,00 l/m2 45º NE 1,4 km/h3,7 km/h1213.3 Lux
Fri 09, 11:32 AM12,7 ºC97,1 %966 hPa0,00 l/m2 0º N 1,2 km/h4,6 km/h1535.5 Lux
Fri 09, 11:37 AM12,8 ºC93,2 %966 hPa0,00 l/m2 337,5º NNO 0,6 km/h3,7 km/h1670.6 Lux
Fri 09, 11:42 AM12,9 ºC96,8 %966 hPa0,00 l/m2 337,5º NNO 2,8 km/h16,5 km/h1744.7 Lux
Fri 09, 11:47 AM13,3 ºC90,6 %966 hPa0,00 l/m2 337,5º NNO 8,0 km/h24,6 km/h340 Lux
Fri 09, 11:52 AM11,6 ºC100,0 %966 hPa0,00 l/m2 0º N 10,8 km/h26,9 km/h1908 Lux
Fri 09, 11:57 AM12,9 ºC92,5 %966 hPa0,00 l/m2 337,5º NNO 1,4 km/h7,5 km/h1998 Lux
Fri 09, 12:02 PM13,7 ºC85,7 %966 hPa0,00 l/m2 45º NE 0,4 km/h2,3 km/h571.9 Lux
Fri 09, 12:07 PM13,2 ºC90,4 %966 hPa0,00 l/m2 67,5º ENE 0,4 km/h2,6 km/h414.6 Lux
Fri 09, 12:12 PM12,7 ºC93,5 %966 hPa0,00 l/m2 247,5º OSO 0,0 km/h0,6 km/h542.6 Lux
Fri 09, 12:17 PM12,3 ºC97,4 %966 hPa0,00 l/m2 0º N 0,3 km/h1,7 km/h2094.2 Lux
Fri 09, 12:22 PM13,0 ºC92,6 %966 hPa0,00 l/m2 337,5º NNO 0,3 km/h1,2 km/h354.8 Lux
Fri 09, 12:27 PM12,8 ºC89,9 %966 hPa0,00 l/m2 45º NE 1,6 km/h5,5 km/h502.5 Lux
Fri 09, 12:32 PM11,9 ºC91,7 %966 hPa0,00 l/m2 0º N 0,8 km/h5,8 km/h1473.8 Lux
Fri 09, 12:37 PM12,9 ºC84,2 %966 hPa0,00 l/m2 0º N 0,8 km/h4,0 km/h2094.2 Lux
Fri 09, 12:42 PM14,4 ºC69,6 %966 hPa0,00 l/m2 337,5º NNO 0,8 km/h2,9 km/h502.5 Lux
Fri 09, 12:47 PM15,1 ºC65,2 %966 hPa0,00 l/m2 337,5º NNO 5,8 km/h13,3 km/h294.7 Lux
Fri 09, 12:52 PM12,7 ºC76,6 %966 hPa0,00 l/m2 0º N 2,6 km/h6,1 km/h1744.7 Lux
Fri 09, 12:57 PM14,0 ºC66,2 %966 hPa0,00 l/m2 67,5º ENE 3,2 km/h9,3 km/h1823.7 Lux
Fri 09, 01:02 PM14,1 ºC59,0 %966 hPa0,00 l/m2 45º NE 5,8 km/h11,8 km/h2094.2 Lux
Fri 09, 01:07 PM14,8 ºC64,2 %966 hPa0,00 l/m2 135º SE 2,4 km/h5,2 km/h277.9 Lux
Fri 09, 01:12 PM13,2 ºC68,7 %966 hPa0,00 l/m2 157,5º SSE 4,0 km/h11,0 km/h736.7 Lux
Fri 09, 01:17 PM14,2 ºC63,1 %966 hPa0,00 l/m2 67,5º ENE 2,1 km/h7,5 km/h1998 Lux
Fri 09, 01:22 PM13,5 ºC66,1 %966 hPa0,00 l/m2 337,5º NNO 2,6 km/h6,9 km/h1908 Lux
Fri 09, 01:27 PM13,0 ºC69,6 %966 hPa0,00 l/m2 67,5º ENE 2,8 km/h7,5 km/h313 Lux
Fri 09, 01:32 PM12,5 ºC67,8 %966 hPa0,00 l/m2 0º N 1,6 km/h4,6 km/h1998 Lux
Fri 09, 01:37 PM14,7 ºC60,9 %965 hPa0,00 l/m2 45º NE 4,5 km/h10,7 km/h1823.7 Lux
Fri 09, 01:42 PM14,5 ºC63,0 %965 hPa0,00 l/m2 45º NE 3,2 km/h9,5 km/h248.3 Lux
Fri 09, 01:47 PM12,9 ºC67,8 %965 hPa0,00 l/m2 135º SE 2,4 km/h6,1 km/h556.9 Lux
Fri 09, 01:52 PM13,2 ºC66,7 %965 hPa0,00 l/m2 337,5º NNO 3,2 km/h8,1 km/h1823.7 Lux
Fri 09, 01:57 PM14,5 ºC61,1 %965 hPa0,00 l/m2 337,5º NNO 4,6 km/h12,4 km/h1744.7 Lux
Fri 09, 02:02 PM13,5 ºC63,1 %965 hPa0,00 l/m2 67,5º ENE 3,5 km/h8,1 km/h1998 Lux
Fri 09, 02:07 PM14,7 ºC61,8 %965 hPa0,00 l/m2 337,5º NNO 3,5 km/h7,8 km/h466.6 Lux
Fri 09, 02:12 PM13,3 ºC67,1 %965 hPa0,00 l/m2 315º NO 3,1 km/h8,7 km/h1823.7 Lux
Fri 09, 02:17 PM14,7 ºC62,2 %965 hPa0,00 l/m2 225º SO 4,0 km/h11,6 km/h455.5 Lux
Fri 09, 02:22 PM14,0 ºC62,8 %965 hPa0,00 l/m2 45º NE 3,6 km/h17,1 km/h1535.5 Lux
Fri 09, 02:27 PM14,8 ºC60,2 %965 hPa0,08 l/m2 135º SE 3,4 km/h9,8 km/h340 Lux
Fri 09, 02:32 PM14,1 ºC61,9 %965 hPa0,00 l/m2 112.5º ESE 3,0 km/h10,7 km/h1473.8 Lux
Fri 09, 02:37 PM14,0 ºC64,7 %965 hPa0,00 l/m2 337,5º NNO 5,8 km/h14,4 km/h1535.5 Lux
Fri 09, 02:42 PM14,7 ºC60,6 %964 hPa0,00 l/m2 0º N 11,8 km/h32,1 km/h1473.8 Lux
Fri 09, 02:47 PM15,0 ºC62,4 %964 hPa0,00 l/m2 157,5º SSE 3,9 km/h9,3 km/h1473.8 Lux
Fri 09, 02:52 PM14,7 ºC61,9 %964 hPa0,00 l/m2 337,5º NNO 2,4 km/h13,0 km/h1473.8 Lux
Fri 09, 02:57 PM15,4 ºC57,5 %964 hPa0,00 l/m2 45º NE 1,5 km/h4,0 km/h917.2 Lux
Fri 09, 03:02 PM14,2 ºC63,6 %964 hPa0,00 l/m2 45º NE 1,3 km/h4,0 km/h571.9 Lux
Fri 09, 03:07 PM13,6 ºC66,0 %964 hPa0,00 l/m2 337,5º NNO 1,3 km/h3,5 km/h1050.3 Lux
Fri 09, 03:12 PM13,6 ºC63,9 %964 hPa0,00 l/m2 112.5º ESE 2,9 km/h9,8 km/h887.7 Lux
Fri 09, 03:17 PM13,8 ºC63,8 %964 hPa0,00 l/m2 45º NE 3,3 km/h10,4 km/h980.4 Lux
Fri 09, 03:22 PM14,7 ºC61,8 %964 hPa0,00 l/m2 337,5º NNO 5,3 km/h11,6 km/h1050.3 Lux
Fri 09, 03:27 PM14,4 ºC59,8 %964 hPa0,00 l/m2 0º N 2,1 km/h11,6 km/h980.4 Lux
Fri 09, 03:32 PM14,8 ºC58,9 %964 hPa0,00 l/m2 337,5º NNO 1,7 km/h4,6 km/h980.4 Lux
Fri 09, 03:37 PM14,2 ºC61,9 %964 hPa0,00 l/m2 135º SE 2,4 km/h6,9 km/h1050.3 Lux
Fri 09, 03:42 PM15,1 ºC59,8 %964 hPa0,00 l/m2 0º N 1,0 km/h5,5 km/h859.6 Lux
Fri 09, 03:47 PM15,0 ºC59,4 %964 hPa0,00 l/m2 247,5º OSO 2,8 km/h9,3 km/h917.2 Lux
Fri 09, 03:52 PM14,6 ºC60,6 %964 hPa0,00 l/m2 45º NE 2,6 km/h9,3 km/h887.7 Lux
Fri 09, 03:57 PM13,8 ºC63,4 %964 hPa0,00 l/m2 45º NE 2,0 km/h10,4 km/h807.1 Lux
Fri 09, 04:02 PM14,2 ºC62,7 %964 hPa0,00 l/m2 157,5º SSE 1,5 km/h5,2 km/h674.9 Lux
Fri 09, 04:07 PM13,9 ºC63,1 %964 hPa0,00 l/m2 45º NE 2,0 km/h10,4 km/h736.7 Lux
Fri 09, 04:12 PM13,8 ºC64,1 %964 hPa0,00 l/m2 67,5º ENE 2,1 km/h6,1 km/h715.3 Lux
Fri 09, 04:17 PM13,8 ºC65,1 %964 hPa0,00 l/m2 247,5º OSO 4,0 km/h9,8 km/h674.9 Lux
Fri 09, 04:22 PM13,8 ºC65,4 %964 hPa0,00 l/m2 67,5º ENE 1,9 km/h7,8 km/h656 Lux
Fri 09, 04:27 PM13,9 ºC67,4 %964 hPa0,00 l/m2 135º SE 2,4 km/h8,4 km/h620.3 Lux
Fri 09, 04:32 PM13,6 ºC67,5 %964 hPa0,00 l/m2 157,5º SSE 1,4 km/h5,2 km/h191.6 Lux
Fri 09, 04:37 PM13,5 ºC68,2 %964 hPa0,00 l/m2 0º N 1,8 km/h7,8 km/h156.5 Lux
Fri 09, 04:42 PM13,4 ºC69,2 %964 hPa0,00 l/m2 315º NO 3,5 km/h10,4 km/h131.7 Lux
Fri 09, 04:47 PM13,1 ºC71,3 %964 hPa0,00 l/m2 67,5º ENE 4,9 km/h11,6 km/h119.8 Lux
Fri 09, 04:52 PM12,9 ºC71,2 %964 hPa0,00 l/m2 67,5º ENE 9,3 km/h42,5 km/h478.2 Lux
Fri 09, 04:57 PM13,1 ºC70,3 %964 hPa0,00 l/m2 157,5º SSE 10,0 km/h18,2 km/h542.6 Lux
Fri 09, 05:02 PM13,4 ºC67,1 %964 hPa0,00 l/m2 67,5º ENE 6,9 km/h23,1 km/h434.3 Lux
Fri 09, 05:07 PM13,7 ºC66,6 %964 hPa0,00 l/m2 202,5º SSO 4,2 km/h14,1 km/h455.5 Lux
Fri 09, 05:12 PM13,8 ºC67,4 %964 hPa0,00 l/m2 0º N 2,0 km/h6,9 km/h466.6 Lux
Fri 09, 05:17 PM13,3 ºC68,1 %964 hPa0,00 l/m2 315º NO 3,7 km/h10,4 km/h414.6 Lux
Fri 09, 05:22 PM13,5 ºC68,0 %964 hPa0,00 l/m2 337,5º NNO 3,6 km/h9,8 km/h396.1 Lux
Fri 09, 05:27 PM13,1 ºC70,4 %964 hPa0,00 l/m2 0º N 4,6 km/h13,6 km/h158.8 Lux
Fri 09, 05:32 PM12,8 ºC72,1 %964 hPa0,00 l/m2 45º NE 10,5 km/h35,0 km/h917.2 Lux
Fri 09, 05:37 PM12,5 ºC73,2 %964 hPa0,00 l/m2 225º SO 12,3 km/h33,2 km/h656 Lux
Fri 09, 05:42 PM12,4 ºC74,3 %964 hPa0,00 l/m2 0º N 9,8 km/h17,6 km/h174.1 Lux
Fri 09, 05:47 PM12,4 ºC75,1 %964 hPa0,00 l/m2 0º N 11,4 km/h22,2 km/h116.7 Lux
Fri 09, 05:52 PM12,3 ºC76,1 %964 hPa0,00 l/m2 315º NO 8,9 km/h21,7 km/h65.8 Lux
Fri 09, 05:57 PM12,3 ºC78,2 %964 hPa0,00 l/m2 90º E 7,8 km/h12,1 km/h53.2 Lux
Fri 09, 06:02 PM12,1 ºC79,4 %964 hPa0,00 l/m2 45º NE 3,2 km/h7,5 km/h28.8 Lux
Fri 09, 06:07 PM12,0 ºC81,0 %964 hPa0,00 l/m2 202,5º SSO 2,9 km/h7,2 km/h14.1 Lux
Fri 09, 06:12 PM11,9 ºC81,4 %964 hPa0,00 l/m2 337,5º NNO 3,0 km/h8,4 km/h9 Lux
Fri 09, 06:17 PM11,8 ºC82,2 %964 hPa0,00 l/m2 337,5º NNO 3,6 km/h8,7 km/h7.5 Lux
Fri 09, 06:22 PM11,7 ºC85,2 %964 hPa0,00 l/m2 0º N 8,8 km/h17,9 km/h5 Lux
Fri 09, 06:27 PM11,6 ºC86,2 %965 hPa0,00 l/m2 135º SE 6,3 km/h24,0 km/h3.4 Lux
Fri 09, 06:32 PM11,6 ºC86,8 %965 hPa0,00 l/m2 67,5º ENE 3,5 km/h7,8 km/h2.5 Lux
Fri 09, 06:37 PM11,5 ºC88,5 %965 hPa0,00 l/m2 0º N 3,0 km/h7,5 km/h2.4 Lux
Fri 09, 06:42 PM11,4 ºC89,7 %965 hPa0,00 l/m2 0º N 4,2 km/h9,8 km/h2.3 Lux
Fri 09, 06:47 PM11,3 ºC91,5 %965 hPa0,00 l/m2 225º SO 2,7 km/h6,1 km/h2.1 Lux
Fri 09, 06:52 PM11,3 ºC92,3 %965 hPa0,00 l/m2 225º SO 1,9 km/h6,7 km/h2.3 Lux
Fri 09, 06:57 PM11,3 ºC93,1 %965 hPa0,00 l/m2 67,5º ENE 1,9 km/h8,1 km/h2.3 Lux
Fri 09, 07:02 PM11,2 ºC95,1 %965 hPa0,00 l/m2 45º NE 0,8 km/h4,6 km/h2.3 Lux
Fri 09, 07:07 PM11,2 ºC95,5 %965 hPa0,00 l/m2 337,5º NNO 0,3 km/h1,7 km/h2.3 Lux
Fri 09, 07:12 PM11,1 ºC96,3 %965 hPa0,00 l/m2 0º N 0,5 km/h2,9 km/h2.3 Lux
Fri 09, 07:17 PM11,0 ºC98,2 %965 hPa0,00 l/m2 337,5º NNO 0,0 km/h0,3 km/h2.3 Lux
Fri 09, 07:22 PM10,9 ºC99,9 %965 hPa0,00 l/m2 337,5º NNO 0,0 km/h0,3 km/h2.2 Lux
Fri 09, 07:27 PM10,8 ºC100,0 %965 hPa0,00 l/m2 337,5º NNO 2,3 km/h8,1 km/h2.4 Lux
Fri 09, 07:32 PM10,7 ºC100,0 %965 hPa0,00 l/m2 337,5º NNO 2,2 km/h6,7 km/h2.1 Lux
Fri 09, 07:37 PM10,7 ºC100,0 %965 hPa0,00 l/m2 0º N 1,6 km/h5,8 km/h2.3 Lux
Fri 09, 07:42 PM10,6 ºC100,0 %965 hPa0,00 l/m2 337,5º NNO 1,8 km/h6,7 km/h2.3 Lux
Fri 09, 07:47 PM10,7 ºC100,0 %965 hPa0,00 l/m2 337,5º NNO 3,6 km/h8,1 km/h2.3 Lux
Fri 09, 07:52 PM10,7 ºC100,0 %965 hPa0,00 l/m2 337,5º NNO 7,6 km/h11,0 km/h2.3 Lux
Fri 09, 07:57 PM10,8 ºC100,0 %965 hPa0,00 l/m2 337,5º NNO 6,8 km/h9,5 km/h2.3 Lux
Fri 09, 08:02 PM10,8 ºC100,0 %965 hPa0,00 l/m2 0º N 2,3 km/h6,9 km/h2.3 Lux
Fri 09, 08:07 PM10,7 ºC100,0 %965 hPa0,00 l/m2 0º N 0,0 km/h0,3 km/h2.4 Lux
Fri 09, 08:12 PM10,7 ºC100,0 %965 hPa0,00 l/m2 0º N 0,0 km/h0,0 km/h2.4 Lux
Fri 09, 08:17 PM10,4 ºC100,0 %965 hPa0,00 l/m2 45º NE 0,0 km/h0,0 km/h2.3 Lux
Fri 09, 08:22 PM10,3 ºC100,0 %965 hPa0,00 l/m2 45º NE 0,0 km/h0,0 km/h2.3 Lux
Fri 09, 08:27 PM10,2 ºC100,0 %965 hPa0,00 l/m2 0º N 0,0 km/h0,0 km/h2.3 Lux
Fri 09, 08:32 PM10,2 ºC100,0 %965 hPa0,00 l/m2 45º NE 0,0 km/h0,0 km/h2.2 Lux
Fri 09, 08:37 PM10,3 ºC100,0 %965 hPa0,00 l/m2 157,5º SSE 0,0 km/h0,0 km/h2.3 Lux
Fri 09, 08:42 PM10,2 ºC100,0 %965 hPa0,00 l/m2 0º N 0,0 km/h0,0 km/h2.4 Lux
Fri 09, 08:47 PM10,3 ºC100,0 %965 hPa0,00 l/m2 0º N 0,0 km/h0,0 km/h2.4 Lux
Fri 09, 08:52 PM10,3 ºC100,0 %965 hPa0,00 l/m2 0º N 0,0 km/h0,0 km/h2.3 Lux
Fri 09, 08:57 PM10,2 ºC100,0 %965 hPa0,00 l/m2 0º N 0,0 km/h0,0 km/h2.2 Lux
Fri 09, 09:02 PM10,1 ºC100,0 %965 hPa0,00 l/m2 0º N 0,0 km/h0,0 km/h2.3 Lux
Fri 09, 09:07 PM10,0 ºC100,0 %965 hPa0,00 l/m2 0º N 0,0 km/h0,0 km/h2.1 Lux
Fri 09, 09:12 PM10,0 ºC100,0 %966 hPa0,00 l/m2 0º N 0,0 km/h0,0 km/h2.3 Lux
Fri 09, 09:17 PM10,1 ºC100,0 %966 hPa0,00 l/m2 45º NE 0,0 km/h0,0 km/h2.4 Lux
Fri 09, 09:22 PM10,3 ºC100,0 %966 hPa0,00 l/m2 45º NE 0,0 km/h0,0 km/h2.3 Lux
Fri 09, 09:27 PM10,4 ºC100,0 %966 hPa0,00 l/m2 45º NE 0,0 km/h0,0 km/h2.3 Lux
Fri 09, 09:32 PM10,5 ºC100,0 %966 hPa0,00 l/m2 0º N 0,0 km/h0,0 km/h2.3 Lux
Fri 09, 09:37 PM10,4 ºC100,0 %966 hPa0,00 l/m2 0º N 0,0 km/h0,0 km/h2.3 Lux
Fri 09, 09:42 PM10,4 ºC100,0 %966 hPa0,00 l/m2 0º N 0,0 km/h0,0 km/h2.2 Lux
Fri 09, 09:47 PM10,3 ºC100,0 %966 hPa0,00 l/m2 0º N 0,0 km/h0,0 km/h2.4 Lux
Fri 09, 09:52 PM10,2 ºC100,0 %966 hPa0,00 l/m2 0º N 0,0 km/h0,0 km/h2.1 Lux
Fri 09, 09:57 PM10,1 ºC100,0 %966 hPa0,00 l/m2 0º N 0,0 km/h0,0 km/h2.3 Lux
Fri 09, 10:02 PM10,0 ºC100,0 %966 hPa0,00 l/m2 0º N 0,0 km/h0,0 km/h2.3 Lux
Fri 09, 10:07 PM10,0 ºC100,0 %966 hPa0,00 l/m2 0º N 0,0 km/h0,0 km/h2.3 Lux
Fri 09, 10:12 PM10,0 ºC100,0 %966 hPa0,00 l/m2 0º N 0,0 km/h0,0 km/h2.3 Lux
Fri 09, 10:17 PM10,1 ºC100,0 %966 hPa0,00 l/m2 0º N 0,0 km/h0,0 km/h2.2 Lux
Fri 09, 10:22 PM10,2 ºC100,0 %966 hPa0,00 l/m2 45º NE 0,0 km/h0,0 km/h2.3 Lux
Fri 09, 10:27 PM10,2 ºC100,0 %966 hPa0,00 l/m2 0º N 0,0 km/h0,0 km/h2.2 Lux
Fri 09, 10:32 PM10,1 ºC100,0 %966 hPa0,00 l/m2 0º N 0,0 km/h0,0 km/h2.3 Lux
Fri 09, 10:37 PM10,0 ºC100,0 %966 hPa0,00 l/m2 0º N 0,0 km/h0,0 km/h2.4 Lux
Fri 09, 10:42 PM10,0 ºC100,0 %966 hPa0,00 l/m2 0º N 0,0 km/h0,0 km/h2.1 Lux
Fri 09, 10:47 PM10,1 ºC100,0 %966 hPa0,00 l/m2 45º NE 0,0 km/h0,0 km/h2.2 Lux
Fri 09, 10:52 PM10,2 ºC100,0 %966 hPa0,00 l/m2 45º NE 0,0 km/h0,0 km/h2.3 Lux
Fri 09, 10:57 PM10,2 ºC100,0 %966 hPa0,00 l/m2 45º NE 0,0 km/h0,0 km/h2.4 Lux
Fri 09, 11:02 PM10,2 ºC100,0 %966 hPa0,00 l/m2 0º N 0,0 km/h0,3 km/h2.2 Lux
Fri 09, 11:07 PM10,3 ºC100,0 %966 hPa0,00 l/m2 0º N 0,0 km/h0,0 km/h2.1 Lux
Fri 09, 11:12 PM10,2 ºC100,0 %966 hPa0,00 l/m2 0º N 0,0 km/h0,0 km/h2.2 Lux
Fri 09, 11:17 PM10,2 ºC100,0 %965 hPa0,00 l/m2 45º NE 0,0 km/h0,0 km/h2.3 Lux
Fri 09, 11:22 PM10,2 ºC100,0 %966 hPa0,00 l/m2 0º N 0,0 km/h0,0 km/h2.1 Lux
Fri 09, 11:27 PM10,2 ºC100,0 %966 hPa0,00 l/m2 337,5º NNO 0,3 km/h3,2 km/h2.3 Lux
Fri 09, 11:32 PM10,2 ºC100,0 %966 hPa0,00 l/m2 0º N 0,8 km/h4,6 km/h2.1 Lux
Fri 09, 11:37 PM10,2 ºC100,0 %966 hPa0,00 l/m2 337,5º NNO 0,3 km/h2,6 km/h2.4 Lux
Fri 09, 11:42 PM10,2 ºC100,0 %966 hPa0,00 l/m2 0º N 0,0 km/h0,3 km/h2.2 Lux
Fri 09, 11:48 PM10,2 ºC100,0 %966 hPa0,00 l/m2 337,5º NNO 0,0 km/h0,3 km/h2.3 Lux
Fri 09, 11:53 PM10,2 ºC100,0 %966 hPa0,00 l/m2 0º N 0,0 km/h0,0 km/h2.2 Lux
Fri 09, 11:58 PM10,1 ºC100,0 %965 hPa0,00 l/m2 0º N 0,0 km/h0,0 km/h2.1 Lux
WeatherStation © 2018